Time,TemperatureF,DewpointF,PressureIn,WindDirection,WindDirectionDegrees,WindSpeedMPH,WindSpeedGustMPH,Humidity,HourlyPrecipIn,Conditions,Clouds,dailyrainin,SoftwareType,DateUTC
2013-03-04 00:00:00,53.6,50.4,29.96,ESE,112,3.0,4.0,89,0.00,,,0.00,VWS V14.01,2013-03-04 08:00:00,
2013-03-04 00:01:00,53.6,50.4,29.96,SE,135,1.0,2.0,89,0.00,,,0.00,VWS V14.01,2013-03-04 08:01:00,
2013-03-04 00:02:00,53.6,50.4,29.96,SE,135,1.0,2.0,89,0.00,,,0.00,VWS V14.01,2013-03-04 08:02:00,
2013-03-04 00:03:00,53.6,50.4,29.96,SE,135,2.0,3.0,89,0.00,,,0.00,VWS V14.01,2013-03-04 08:03:00,
2013-03-04 00:04:00,53.6,50.4,29.96,ESE,112,2.0,4.0,89,0.00,,,0.00,VWS V14.01,2013-03-04 08:04:00,
2013-03-04 00:05:00,53.6,50.4,29.96,ESE,112,2.0,3.0,89,0.00,,,0.00,VWS V14.01,2013-03-04 08:05:00,
2013-03-04 00:06:00,53.6,50.4,29.96,ESE,112,1.0,3.0,89,0.00,,,0.00,VWS V14.01,2013-03-04 08:06:00,
2013-03-04 00:07:00,53.6,50.4,29.96,ESE,112,2.0,3.0,89,0.00,,,0.00,VWS V14.01,2013-03-04 08:07:00,
2013-03-04 00:08:00,53.6,50.4,29.96,ESE,112,2.0,2.0,89,0.00,,,0.00,VWS V14.01,2013-03-04 08:08:00,
2013-03-04 00:09:00,53.6,50.4,29.96,ESE,112,1.0,2.0,89,0.00,,,0.00,VWS V14.01,2013-03-04 08:09:00,
2013-03-04 00:10:00,53.6,50.4,29.96,SE,135,0.0,2.0,89,0.00,,,0.00,VWS V14.01,2013-03-04 08:10:00,
2013-03-04 00:11:00,53.6,50.7,29.96,ESE,112,1.0,2.0,90,0.00,,,0.00,VWS V14.01,2013-03-04 08:11:00,
2013-03-04 00:12:00,53.6,50.4,29.96,SE,135,1.0,2.0,89,0.00,,,0.00,VWS V14.01,2013-03-04 08:12:00,
2013-03-04 00:13:00,53.6,50.4,29.96,SE,135,1.0,2.0,89,0.00,,,0.00,VWS V14.01,2013-03-04 08:13:00,
2013-03-04 00:14:00,53.6,50.4,29.96,SE,135,1.0,1.0,89,0.00,,,0.00,VWS V14.01,2013-03-04 08:14:00,
2013-03-04 00:15:00,53.6,50.4,29.96,SSE,158,0.0,1.0,89,0.00,,,0.00,VWS V14.01,2013-03-04 08:15:00,
2013-03-04 00:16:00,53.6,50.4,29.96,SSE,158,1.0,1.0,89,0.00,,,0.00,VWS V14.01,2013-03-04 08:16:00,
2013-03-04 00:17:00,53.6,50.4,29.96,SE,135,0.0,1.0,89,0.00,,,0.00,VWS V14.01,2013-03-04 08:17:00,
2013-03-04 00:18:00,53.6,50.7,29.96,SE,135,1.0,3.0,90,0.00,,,0.00,VWS V14.01,2013-03-04 08:18:00,
2013-03-04 00:19:00,53.6,50.7,29.97,SE,135,2.0,3.0,90,0.00,,,0.00,VWS V14.01,2013-03-04 08:19:00,
2013-03-04 00:20:00,53.6,50.4,29.97,ESE,112,1.0,2.0,89,0.00,,,0.00,VWS V14.01,2013-03-04 08:20:00,
2013-03-04 00:21:00,53.6,50.4,29.97,SE,135,1.0,2.0,89,0.00,,,0.00,VWS V14.01,2013-03-04 08:21:00,
2013-03-04 00:22:00,53.6,50.4,29.97,SE,135,1.0,1.0,89,0.00,,,0.00,VWS V14.01,2013-03-04 08:22:00,
2013-03-04 00:23:00,53.6,50.4,29.97,SE,135,1.0,2.0,89,0.00,,,0.00,VWS V14.01,2013-03-04 08:23:00,
2013-03-04 00:24:00,53.6,50.7,29.97,SE,135,1.0,1.0,90,0.00,,,0.00,VWS V14.01,2013-03-04 08:24:00,
2013-03-04 00:25:00,53.6,50.7,29.97,SE,135,0.0,1.0,90,0.00,,,0.00,VWS V14.01,2013-03-04 08:25:00,
2013-03-04 00:26:00,53.6,50.7,29.97,ESE,112,1.0,1.0,90,0.00,,,0.00,VWS V14.01,2013-03-04 08:26:00,
2013-03-04 00:27:00,53.6,50.7,29.97,SE,135,1.0,1.0,90,0.00,,,0.00,VWS V14.01,2013-03-04 08:27:00,
2013-03-04 00:28:00,53.6,50.7,29.96,SE,135,1.0,2.0,90,0.00,,,0.00,VWS V14.01,2013-03-04 08:28:00,
2013-03-04 00:29:00,53.7,50.8,29.96,East,90,1.0,2.0,90,0.00,,,0.00,VWS V14.01,2013-03-04 08:29:00,
2013-03-04 00:30:00,53.7,50.8,29.96,East,90,1.0,2.0,90,0.00,,,0.00,VWS V14.01,2013-03-04 08:30:00,
2013-03-04 00:31:00,53.7,50.8,29.97,East,90,1.0,3.0,90,0.00,,,0.00,VWS V14.01,2013-03-04 08:31:00,
2013-03-04 00:32:00,53.7,50.8,29.97,ESE,112,1.0,1.0,90,0.00,,,0.00,VWS V14.01,2013-03-04 08:32:00,
2013-03-04 00:33:00,53.7,50.8,29.96,ESE,112,1.0,4.0,90,0.00,,,0.00,VWS V14.01,2013-03-04 08:33:00,
2013-03-04 00:34:00,53.7,50.8,29.96,East,90,2.0,3.0,90,0.00,,,0.00,VWS V14.01,2013-03-04 08:34:00,
2013-03-04 00:35:00,53.7,50.8,29.96,ESE,112,2.0,3.0,90,0.00,,,0.00,VWS V14.01,2013-03-04 08:35:00,
2013-03-04 00:36:00,53.7,50.8,29.96,SE,135,0.0,1.0,90,0.00,,,0.00,VWS V14.01,2013-03-04 08:36:00,
2013-03-04 00:37:00,53.7,50.8,29.96,SE,135,1.0,1.0,90,0.00,,,0.00,VWS V14.01,2013-03-04 08:37:00,
2013-03-04 00:38:00,53.7,50.8,29.96,SE,135,1.0,2.0,90,0.00,,,0.00,VWS V14.01,2013-03-04 08:38:00,
2013-03-04 00:39:00,53.7,50.8,29.96,SE,135,1.0,2.0,90,0.00,,,0.00,VWS V14.01,2013-03-04 08:39:00,
2013-03-04 00:40:00,53.7,50.8,29.96,SE,135,1.0,2.0,90,0.00,,,0.00,VWS V14.01,2013-03-04 08:40:00,
2013-03-04 00:41:00,53.7,50.8,29.96,SSE,158,2.0,3.0,90,0.00,,,0.00,VWS V14.01,2013-03-04 08:41:00,
2013-03-04 00:42:00,53.7,50.8,29.97,SE,135,1.0,1.0,90,0.00,,,0.00,VWS V14.01,2013-03-04 08:42:00,
2013-03-04 00:43:00,53.7,50.8,29.97,ESE,112,1.0,1.0,90,0.00,,,0.00,VWS V14.01,2013-03-04 08:43:00,
2013-03-04 00:44:00,53.7,50.8,29.97,SE,135,2.0,2.0,90,0.00,,,0.00,VWS V14.01,2013-03-04 08:44:00,
2013-03-04 00:45:00,53.7,50.8,29.97,SE,135,1.0,2.0,90,0.00,,,0.00,VWS V14.01,2013-03-04 08:45:00,
2013-03-04 00:46:00,53.7,50.8,29.97,SSW,202,1.0,3.0,90,0.00,,,0.00,VWS V14.01,2013-03-04 08:46:00,
2013-03-04 00:47:00,53.7,50.8,29.97,WSW,248,1.0,3.0,90,0.00,,,0.00,VWS V14.01,2013-03-04 08:47:00,
2013-03-04 00:48:00,53.7,50.8,29.97,SW,225,0.0,1.0,90,0.00,,,0.00,VWS V14.01,2013-03-04 08:48:00,
2013-03-04 00:49:00,53.7,50.8,29.97,South,180,1.0,2.0,90,0.00,,,0.00,VWS V14.01,2013-03-04 08:49:00,
2013-03-04 00:50:00,53.7,50.8,29.97,SSE,158,1.0,2.0,90,0.00,,,0.00,VWS V14.01,2013-03-04 08:50:00,
2013-03-04 00:51:00,53.7,50.8,29.97,SE,135,2.0,4.0,90,0.00,,,0.00,VWS V14.01,2013-03-04 08:51:00,
2013-03-04 00:52:00,53.7,50.8,29.97,SSE,158,2.0,2.0,90,0.00,,,0.00,VWS V14.01,2013-03-04 08:52:00,
2013-03-04 00:53:00,53.7,50.8,29.97,SSE,158,1.0,2.0,90,0.00,,,0.00,VWS V14.01,2013-03-04 08:53:00,
2013-03-04 00:54:00,53.7,50.8,29.97,ESE,112,0.0,1.0,90,0.00,,,0.00,VWS V14.01,2013-03-04 08:54:00,
2013-03-04 00:55:00,53.7,50.8,29.97,South,180,2.0,3.0,90,0.00,,,0.00,VWS V14.01,2013-03-04 08:55:00,
2013-03-04 00:56:00,53.7,50.8,29.97,SSE,158,2.0,3.0,90,0.00,,,0.00,VWS V14.01,2013-03-04 08:56:00,
2013-03-04 00:57:00,53.7,50.8,29.97,SSE,158,1.0,2.0,90,0.00,,,0.00,VWS V14.01,2013-03-04 08:57:00,
2013-03-04 00:58:00,53.8,50.9,29.97,SSW,202,1.0,3.0,90,0.00,,,0.00,VWS V14.01,2013-03-04 08:58:00,
2013-03-04 00:59:00,53.8,50.9,29.97,SSE,158,1.0,1.0,90,0.00,,,0.00,VWS V14.01,2013-03-04 08:59:00,
2013-03-04 01:00:00,53.8,50.9,29.97,ESE,112,2.0,3.0,90,0.00,,,0.00,VWS V14.01,2013-03-04 09:00:00,
2013-03-04 01:01:00,53.8,50.9,29.97,SE,135,1.0,2.0,90,0.00,,,0.00,VWS V14.01,2013-03-04 09:01:00,
2013-03-04 01:02:00,53.8,50.9,29.97,SE,135,0.0,1.0,90,0.00,,,0.00,VWS V14.01,2013-03-04 09:02:00,
2013-03-04 01:03:00,53.8,50.9,29.97,SE,135,0.0,1.0,90,0.00,,,0.00,VWS V14.01,2013-03-04 09:03:00,
2013-03-04 01:04:00,53.8,50.9,29.97,SE,135,1.0,1.0,90,0.00,,,0.00,VWS V14.01,2013-03-04 09:04:00,
2013-03-04 01:05:00,53.8,50.9,29.97,SSE,158,0.0,1.0,90,0.00,,,0.00,VWS V14.01,2013-03-04 09:05:00,
2013-03-04 01:06:00,53.8,50.9,29.97,ESE,112,1.0,1.0,90,0.00,,,0.00,VWS V14.01,2013-03-04 09:06:00,
2013-03-04 01:07:00,53.8,50.9,29.97,SE,135,2.0,3.0,90,0.00,,,0.00,VWS V14.01,2013-03-04 09:07:00,
2013-03-04 01:08:00,53.8,50.9,29.97,SE,135,2.0,2.0,90,0.00,,,0.00,VWS V14.01,2013-03-04 09:08:00,
2013-03-04 01:09:00,53.8,50.6,29.97,East,90,1.0,1.0,89,0.00,,,0.00,VWS V14.01,2013-03-04 09:09:00,
2013-03-04 01:10:00,53.8,50.6,29.97,ESE,112,1.0,2.0,89,0.00,,,0.00,VWS V14.01,2013-03-04 09:10:00,
2013-03-04 01:11:00,53.7,50.5,29.97,ESE,112,1.0,2.0,89,0.00,,,0.00,VWS V14.01,2013-03-04 09:11:00,
2013-03-04 01:12:00,53.8,50.9,29.97,SE,135,1.0,2.0,90,0.00,,,0.00,VWS V14.01,2013-03-04 09:12:00,
2013-03-04 01:13:00,53.7,50.8,29.97,SE,135,1.0,2.0,90,0.00,,,0.00,VWS V14.01,2013-03-04 09:13:00,
2013-03-04 01:14:00,53.8,50.9,29.97,SE,135,1.0,1.0,90,0.00,,,0.00,VWS V14.01,2013-03-04 09:14:00,
2013-03-04 01:15:00,53.8,50.9,29.97,ESE,112,1.0,2.0,90,0.00,,,0.00,VWS V14.01,2013-03-04 09:15:00,
2013-03-04 01:16:00,53.7,50.8,29.97,ESE,112,1.0,1.0,90,0.00,,,0.00,VWS V14.01,2013-03-04 09:16:00,
2013-03-04 01:17:00,53.8,50.9,29.97,ESE,112,1.0,2.0,90,0.00,,,0.00,VWS V14.01,2013-03-04 09:17:00,
2013-03-04 01:18:00,53.8,50.9,29.97,ESE,112,2.0,2.0,90,0.00,,,0.00,VWS V14.01,2013-03-04 09:18:00,
2013-03-04 01:19:00,53.8,50.9,29.97,ESE,112,1.0,1.0,90,0.00,,,0.00,VWS V14.01,2013-03-04 09:19:00,
2013-03-04 01:20:00,53.8,50.9,29.97,SSE,158,1.0,2.0,90,0.00,,,0.00,VWS V14.01,2013-03-04 09:20:00,
2013-03-04 01:21:00,53.8,50.9,29.97,South,180,0.0,1.0,90,0.00,,,0.00,VWS V14.01,2013-03-04 09:21:00,
2013-03-04 01:22:00,53.8,50.9,29.97,SE,135,1.0,3.0,90,0.00,,,0.00,VWS V14.01,2013-03-04 09:22:00,
2013-03-04 01:23:00,53.8,50.9,29.97,SE,135,2.0,3.0,90,0.00,,,0.00,VWS V14.01,2013-03-04 09:23:00,
2013-03-04 01:24:00,53.8,50.9,29.97,SSE,158,1.0,1.0,90,0.00,,,0.00,VWS V14.01,2013-03-04 09:24:00,
2013-03-04 01:25:00,53.8,50.9,29.97,SE,135,1.0,2.0,90,0.00,,,0.00,VWS V14.01,2013-03-04 09:25:00,
2013-03-04 01:26:00,53.8,50.9,29.97,SE,135,2.0,4.0,90,0.00,,,0.00,VWS V14.01,2013-03-04 09:26:00,
2013-03-04 01:27:00,53.8,50.9,29.97,SE,135,3.0,5.0,90,0.00,,,0.00,VWS V14.01,2013-03-04 09:27:00,
2013-03-04 01:28:00,53.8,50.6,29.97,SE,135,3.0,5.0,89,0.00,,,0.00,VWS V14.01,2013-03-04 09:28:00,
2013-03-04 01:29:00,53.8,50.6,29.97,SE,135,2.0,3.0,89,0.00,,,0.00,VWS V14.01,2013-03-04 09:29:00,
2013-03-04 01:30:00,53.8,50.6,29.97,South,180,1.0,2.0,89,0.00,,,0.00,VWS V14.01,2013-03-04 09:30:00,
2013-03-04 01:31:00,53.8,50.6,29.97,SSE,158,0.0,1.0,89,0.00,,,0.00,VWS V14.01,2013-03-04 09:31:00,
2013-03-04 01:32:00,53.8,50.6,29.97,SE,135,2.0,5.0,89,0.00,,,0.00,VWS V14.01,2013-03-04 09:32:00,
2013-03-04 01:33:00,53.8,50.6,29.97,SE,135,2.0,3.0,89,0.00,,,0.00,VWS V14.01,2013-03-04 09:33:00,
2013-03-04 01:34:00,53.8,50.6,29.97,SSE,158,2.0,3.0,89,0.00,,,0.00,VWS V14.01,2013-03-04 09:34:00,
2013-03-04 01:35:00,53.8,50.6,29.97,SE,135,2.0,3.0,89,0.00,,,0.00,VWS V14.01,2013-03-04 09:35:00,
2013-03-04 01:36:00,53.8,50.6,29.97,SE,135,2.0,4.0,89,0.00,,,0.00,VWS V14.01,2013-03-04 09:36:00,
2013-03-04 01:37:00,53.8,50.6,29.97,SE,135,2.0,3.0,89,0.00,,,0.00,VWS V14.01,2013-03-04 09:37:00,
2013-03-04 01:38:00,53.8,50.6,29.97,SE,135,3.0,5.0,89,0.00,,,0.00,VWS V14.01,2013-03-04 09:38:00,
2013-03-04 01:39:00,53.8,50.6,29.97,SE,135,3.0,4.0,89,0.00,,,0.00,VWS V14.01,2013-03-04 09:39:00,
2013-03-04 01:40:00,53.8,50.6,29.97,East,90,2.0,4.0,89,0.00,,,0.00,VWS V14.01,2013-03-04 09:40:00,
2013-03-04 01:41:00,53.8,50.6,29.97,SE,135,2.0,3.0,89,0.00,,,0.00,VWS V14.01,2013-03-04 09:41:00,
2013-03-04 01:42:00,53.8,50.6,29.97,SE,135,2.0,3.0,89,0.00,,,0.00,VWS V14.01,2013-03-04 09:42:00,
2013-03-04 01:43:00,53.8,50.6,29.97,SE,135,1.0,2.0,89,0.00,,,0.00,VWS V14.01,2013-03-04 09:43:00,
2013-03-04 01:44:00,53.8,50.6,29.97,East,90,2.0,3.0,89,0.00,,,0.00,VWS V14.01,2013-03-04 09:44:00,
2013-03-04 01:45:00,53.8,50.6,29.97,ESE,112,2.0,3.0,89,0.00,,,0.00,VWS V14.01,2013-03-04 09:45:00,
2013-03-04 01:46:00,53.8,50.6,29.97,East,90,2.0,2.0,89,0.00,,,0.00,VWS V14.01,2013-03-04 09:46:00,
2013-03-04 01:47:00,53.8,50.6,29.97,ESE,112,2.0,3.0,89,0.00,,,0.00,VWS V14.01,2013-03-04 09:47:00,
2013-03-04 01:48:00,53.8,50.6,29.97,ESE,112,1.0,2.0,89,0.00,,,0.00,VWS V14.01,2013-03-04 09:48:00,
2013-03-04 01:49:00,53.8,50.6,29.97,SE,135,2.0,3.0,89,0.00,,,0.00,VWS V14.01,2013-03-04 09:49:00,
2013-03-04 01:50:00,53.8,50.6,29.97,SE,135,1.0,2.0,89,0.00,,,0.00,VWS V14.01,2013-03-04 09:50:00,
2013-03-04 01:51:00,53.8,50.6,29.97,SE,135,3.0,4.0,89,0.00,,,0.00,VWS V14.01,2013-03-04 09:51:00,
2013-03-04 01:52:00,53.8,50.6,29.97,SE,135,2.0,2.0,89,0.00,,,0.00,VWS V14.01,2013-03-04 09:52:00,
2013-03-04 01:53:00,53.8,50.6,29.97,ESE,112,1.0,2.0,89,0.00,,,0.00,VWS V14.01,2013-03-04 09:53:00,
2013-03-04 01:54:00,53.8,50.6,29.97,SSE,158,1.0,2.0,89,0.00,,,0.00,VWS V14.01,2013-03-04 09:54:00,
2013-03-04 01:55:00,53.8,50.6,29.97,SE,135,1.0,2.0,89,0.00,,,0.00,VWS V14.01,2013-03-04 09:55:00,
2013-03-04 01:56:00,53.8,50.6,29.96,ESE,112,1.0,2.0,89,0.00,,,0.00,VWS V14.01,2013-03-04 09:56:00,
2013-03-04 01:57:00,53.8,50.6,29.97,ESE,112,1.0,2.0,89,0.00,,,0.00,VWS V14.01,2013-03-04 09:57:00,
2013-03-04 01:58:00,53.8,50.6,29.97,ESE,112,0.0,1.0,89,0.00,,,0.00,VWS V14.01,2013-03-04 09:58:00,
2013-03-04 01:59:00,53.8,50.6,29.97,ESE,112,1.0,2.0,89,0.00,,,0.00,VWS V14.01,2013-03-04 09:59:00,
2013-03-04 02:00:00,53.8,50.6,29.97,SE,135,0.0,1.0,89,0.00,,,0.00,VWS V14.01,2013-03-04 10:00:00,
2013-03-04 02:01:00,53.8,50.6,29.97,ESE,112,1.0,2.0,89,0.00,,,0.00,VWS V14.01,2013-03-04 10:01:00,
2013-03-04 02:02:00,53.8,50.6,29.97,East,90,2.0,3.0,89,0.00,,,0.00,VWS V14.01,2013-03-04 10:02:00,
2013-03-04 02:03:00,53.8,50.6,29.97,ESE,112,1.0,3.0,89,0.00,,,0.00,VWS V14.01,2013-03-04 10:03:00,
2013-03-04 02:04:00,53.8,50.6,29.97,ESE,112,1.0,2.0,89,0.00,,,0.00,VWS V14.01,2013-03-04 10:04:00,
2013-03-04 02:05:00,53.9,50.7,29.97,ESE,112,1.0,2.0,89,0.00,,,0.00,VWS V14.01,2013-03-04 10:05:00,
2013-03-04 02:06:00,53.9,50.7,29.97,SE,135,1.0,2.0,89,0.00,,,0.00,VWS V14.01,2013-03-04 10:06:00,
2013-03-04 02:07:00,53.8,50.6,29.97,SE,135,1.0,1.0,89,0.00,,,0.00,VWS V14.01,2013-03-04 10:07:00,
2013-03-04 02:08:00,53.8,50.6,29.97,SE,135,1.0,2.0,89,0.00,,,0.00,VWS V14.01,2013-03-04 10:08:00,
2013-03-04 02:09:00,53.8,50.6,29.96,ESE,112,1.0,2.0,89,0.00,,,0.00,VWS V14.01,2013-03-04 10:09:00,
2013-03-04 02:10:00,53.8,50.6,29.97,ESE,112,0.0,1.0,89,0.00,,,0.00,VWS V14.01,2013-03-04 10:10:00,
2013-03-04 02:11:00,53.8,50.6,29.96,SSE,158,1.0,1.0,89,0.00,,,0.00,VWS V14.01,2013-03-04 10:11:00,
2013-03-04 02:12:00,53.8,50.6,29.96,ESE,112,0.0,1.0,89,0.00,,,0.00,VWS V14.01,2013-03-04 10:12:00,
2013-03-04 02:13:00,53.8,50.6,29.96,East,90,1.0,2.0,89,0.00,,,0.00,VWS V14.01,2013-03-04 10:13:00,
2013-03-04 02:14:00,53.8,50.6,29.96,ESE,112,1.0,1.0,89,0.00,,,0.00,VWS V14.01,2013-03-04 10:14:00,
2013-03-04 02:15:00,53.8,50.6,29.96,ESE,112,0.0,1.0,89,0.00,,,0.00,VWS V14.01,2013-03-04 10:15:00,
2013-03-04 02:16:00,53.8,50.6,29.96,ESE,112,1.0,1.0,89,0.00,,,0.00,VWS V14.01,2013-03-04 10:16:00,
2013-03-04 02:17:00,53.8,50.6,29.96,SE,135,1.0,2.0,89,0.00,,,0.00,VWS V14.01,2013-03-04 10:17:00,
2013-03-04 02:18:00,53.8,50.6,29.96,SE,135,1.0,2.0,89,0.00,,,0.00,VWS V14.01,2013-03-04 10:18:00,
2013-03-04 02:19:00,53.8,50.6,29.96,SE,135,1.0,2.0,89,0.00,,,0.00,VWS V14.01,2013-03-04 10:19:00,
2013-03-04 02:20:00,53.8,50.6,29.96,SSE,158,1.0,1.0,89,0.00,,,0.00,VWS V14.01,2013-03-04 10:20:00,
2013-03-04 02:21:00,53.8,50.6,29.96,SSE,158,0.0,1.0,89,0.00,,,0.00,VWS V14.01,2013-03-04 10:21:00,
2013-03-04 02:22:00,53.7,50.5,29.97,SE,135,2.0,3.0,89,0.00,,,0.00,VWS V14.01,2013-03-04 10:22:00,
2013-03-04 02:23:00,53.8,50.6,29.97,SE,135,1.0,1.0,89,0.00,,,0.00,VWS V14.01,2013-03-04 10:23:00,
2013-03-04 02:24:00,53.7,50.5,29.97,ESE,112,1.0,2.0,89,0.00,,,0.00,VWS V14.01,2013-03-04 10:24:00,
2013-03-04 02:25:00,53.7,50.5,29.97,SE,135,2.0,3.0,89,0.00,,,0.00,VWS V14.01,2013-03-04 10:25:00,
2013-03-04 02:26:00,53.7,50.5,29.97,SE,135,1.0,2.0,89,0.00,,,0.00,VWS V14.01,2013-03-04 10:26:00,
2013-03-04 02:27:00,53.7,50.5,29.97,SE,135,2.0,3.0,89,0.00,,,0.00,VWS V14.01,2013-03-04 10:27:00,
2013-03-04 02:28:00,53.7,50.5,29.97,SE,135,2.0,3.0,89,0.00,,,0.00,VWS V14.01,2013-03-04 10:28:00,
2013-03-04 02:29:00,53.7,50.5,29.96,ESE,112,2.0,3.0,89,0.00,,,0.00,VWS V14.01,2013-03-04 10:29:00,
2013-03-04 02:30:00,53.7,50.2,29.97,ESE,112,2.0,3.0,88,0.00,,,0.00,VWS V14.01,2013-03-04 10:30:00,
2013-03-04 02:31:00,53.7,50.2,29.97,SE,135,2.0,3.0,88,0.00,,,0.00,VWS V14.01,2013-03-04 10:31:00,
2013-03-04 02:32:00,53.7,50.2,29.97,SE,135,1.0,2.0,88,0.00,,,0.00,VWS V14.01,2013-03-04 10:32:00,
2013-03-04 02:33:00,53.7,50.2,29.97,SE,135,0.0,1.0,88,0.00,,,0.00,VWS V14.01,2013-03-04 10:33:00,
2013-03-04 02:34:00,53.7,50.2,29.96,SE,135,1.0,2.0,88,0.00,,,0.00,VWS V14.01,2013-03-04 10:34:00,
2013-03-04 02:35:00,53.7,50.2,29.96,SE,135,1.0,3.0,88,0.00,,,0.00,VWS V14.01,2013-03-04 10:35:00,
2013-03-04 02:36:00,53.7,50.2,29.96,SE,135,1.0,2.0,88,0.00,,,0.00,VWS V14.01,2013-03-04 10:36:00,
2013-03-04 02:37:00,53.7,50.2,29.96,SE,135,1.0,1.0,88,0.00,,,0.00,VWS V14.01,2013-03-04 10:37:00,
2013-03-04 02:38:00,53.7,50.2,29.96,SE,135,1.0,2.0,88,0.00,,,0.00,VWS V14.01,2013-03-04 10:38:00,
2013-03-04 02:39:00,53.6,50.1,29.96,ESE,112,1.0,2.0,88,0.00,,,0.00,VWS V14.01,2013-03-04 10:39:00,
2013-03-04 02:40:00,53.6,50.1,29.96,SE,135,2.0,3.0,88,0.00,,,0.00,VWS V14.01,2013-03-04 10:40:00,
2013-03-04 02:41:00,53.6,50.1,29.96,ESE,112,2.0,3.0,88,0.00,,,0.00,VWS V14.01,2013-03-04 10:41:00,
2013-03-04 02:42:00,53.6,50.1,29.96,ESE,112,1.0,2.0,88,0.00,,,0.00,VWS V14.01,2013-03-04 10:42:00,
2013-03-04 02:43:00,53.6,50.1,29.96,East,90,2.0,5.0,88,0.00,,,0.00,VWS V14.01,2013-03-04 10:43:00,
2013-03-04 02:44:00,53.6,50.1,29.96,East,90,2.0,3.0,88,0.00,,,0.00,VWS V14.01,2013-03-04 10:44:00,
2013-03-04 02:45:00,53.6,50.1,29.96,ESE,112,3.0,3.0,88,0.00,,,0.00,VWS V14.01,2013-03-04 10:45:00,
2013-03-04 02:46:00,53.6,49.8,29.96,ESE,112,2.0,3.0,87,0.00,,,0.00,VWS V14.01,2013-03-04 10:46:00,
2013-03-04 02:47:00,53.5,49.7,29.96,ESE,112,2.0,3.0,87,0.00,,,0.00,VWS V14.01,2013-03-04 10:47:00,
2013-03-04 02:48:00,53.5,49.7,29.96,ESE,112,3.0,5.0,87,0.00,,,0.00,VWS V14.01,2013-03-04 10:48:00,
2013-03-04 02:49:00,53.5,49.7,29.96,ESE,112,2.0,4.0,87,0.00,,,0.00,VWS V14.01,2013-03-04 10:49:00,
2013-03-04 02:50:00,53.5,49.7,29.96,ESE,112,1.0,2.0,87,0.00,,,0.00,VWS V14.01,2013-03-04 10:50:00,
2013-03-04 02:51:00,53.5,49.7,29.96,ESE,112,1.0,2.0,87,0.00,,,0.00,VWS V14.01,2013-03-04 10:51:00,
2013-03-04 02:52:00,53.5,49.7,29.96,SE,135,1.0,1.0,87,0.00,,,0.00,VWS V14.01,2013-03-04 10:52:00,
2013-03-04 02:53:00,53.5,49.7,29.96,ESE,112,2.0,3.0,87,0.00,,,0.00,VWS V14.01,2013-03-04 10:53:00,
2013-03-04 02:54:00,53.5,49.7,29.96,ESE,112,2.0,3.0,87,0.00,,,0.00,VWS V14.01,2013-03-04 10:54:00,
2013-03-04 02:55:00,53.4,49.6,29.96,ESE,112,2.0,3.0,87,0.00,,,0.00,VWS V14.01,2013-03-04 10:55:00,
2013-03-04 02:56:00,53.4,49.6,29.97,East,90,1.0,2.0,87,0.00,,,0.00,VWS V14.01,2013-03-04 10:56:00,
2013-03-04 02:57:00,53.4,49.6,29.97,East,90,1.0,2.0,87,0.00,,,0.00,VWS V14.01,2013-03-04 10:57:00,
2013-03-04 02:58:00,53.4,49.6,29.97,East,90,2.0,3.0,87,0.00,,,0.00,VWS V14.01,2013-03-04 10:58:00,
2013-03-04 02:59:00,53.4,49.6,29.97,East,90,2.0,2.0,87,0.00,,,0.00,VWS V14.01,2013-03-04 10:59:00,
2013-03-04 03:00:00,53.4,49.6,29.97,East,90,2.0,2.0,87,0.00,,,0.00,VWS V14.01,2013-03-04 11:00:00,
2013-03-04 03:01:00,53.4,49.6,29.97,East,90,1.0,2.0,87,0.00,,,0.00,VWS V14.01,2013-03-04 11:01:00,
2013-03-04 03:02:00,53.4,49.6,29.97,East,90,2.0,2.0,87,0.00,,,0.00,VWS V14.01,2013-03-04 11:02:00,
2013-03-04 03:03:00,53.4,49.6,29.97,ENE,68,1.0,2.0,87,0.00,,,0.00,VWS V14.01,2013-03-04 11:03:00,
2013-03-04 03:04:00,53.4,49.6,29.97,East,90,1.0,1.0,87,0.00,,,0.00,VWS V14.01,2013-03-04 11:04:00,
2013-03-04 03:05:00,53.4,49.6,29.97,East,90,1.0,1.0,87,0.00,,,0.00,VWS V14.01,2013-03-04 11:05:00,
2013-03-04 03:06:00,53.4,49.6,29.97,East,90,1.0,1.0,87,0.00,,,0.00,VWS V14.01,2013-03-04 11:06:00,
2013-03-04 03:07:00,53.4,49.6,29.97,East,90,0.0,1.0,87,0.00,,,0.00,VWS V14.01,2013-03-04 11:07:00,
2013-03-04 03:08:00,53.4,49.6,29.97,East,90,1.0,2.0,87,0.00,,,0.00,VWS V14.01,2013-03-04 11:08:00,
2013-03-04 03:09:00,53.5,49.7,29.97,East,90,1.0,1.0,87,0.00,,,0.00,VWS V14.01,2013-03-04 11:09:00,
2013-03-04 03:10:00,53.5,49.7,29.97,East,90,1.0,1.0,87,0.00,,,0.00,VWS V14.01,2013-03-04 11:10:00,
2013-03-04 03:11:00,53.5,49.7,29.97,East,90,1.0,2.0,87,0.00,,,0.00,VWS V14.01,2013-03-04 11:11:00,
2013-03-04 03:12:00,53.5,49.7,29.97,East,90,1.0,2.0,87,0.00,,,0.00,VWS V14.01,2013-03-04 11:12:00,
2013-03-04 03:13:00,53.5,49.7,29.97,NE,45,1.0,2.0,87,0.00,,,0.00,VWS V14.01,2013-03-04 11:13:00,
2013-03-04 03:14:00,53.5,49.7,29.97,NNE,22,2.0,3.0,87,0.00,,,0.00,VWS V14.01,2013-03-04 11:14:00,
2013-03-04 03:15:00,53.5,49.7,29.97,East,90,2.0,3.0,87,0.00,,,0.00,VWS V14.01,2013-03-04 11:15:00,
2013-03-04 03:16:00,53.6,49.8,29.97,NE,45,2.0,3.0,87,0.00,,,0.00,VWS V14.01,2013-03-04 11:16:00,
2013-03-04 03:17:00,53.6,49.8,29.97,NE,45,1.0,2.0,87,0.00,,,0.00,VWS V14.01,2013-03-04 11:17:00,
2013-03-04 03:18:00,53.6,49.8,29.97,East,90,1.0,2.0,87,0.00,,,0.00,VWS V14.01,2013-03-04 11:18:00,
2013-03-04 03:19:00,53.6,49.8,29.97,ENE,68,1.0,2.0,87,0.00,,,0.00,VWS V14.01,2013-03-04 11:19:00,
2013-03-04 03:20:00,53.7,49.9,29.96,East,90,2.0,3.0,87,0.00,,,0.00,VWS V14.01,2013-03-04 11:20:00,
2013-03-04 03:21:00,53.7,49.9,29.97,ESE,112,1.0,1.0,87,0.00,,,0.00,VWS V14.01,2013-03-04 11:21:00,
2013-03-04 03:22:00,53.6,49.8,29.97,East,90,1.0,2.0,87,0.00,,,0.00,VWS V14.01,2013-03-04 11:22:00,
2013-03-04 03:23:00,53.7,49.6,29.97,East,90,1.0,1.0,86,0.00,,,0.00,VWS V14.01,2013-03-04 11:23:00,
2013-03-04 03:24:00,53.7,49.6,29.97,East,90,0.0,1.0,86,0.00,,,0.00,VWS V14.01,2013-03-04 11:24:00,
2013-03-04 03:25:00,53.7,49.6,29.97,East,90,1.0,1.0,86,0.00,,,0.00,VWS V14.01,2013-03-04 11:25:00,
2013-03-04 03:26:00,53.7,49.6,29.97,East,90,0.0,1.0,86,0.00,,,0.00,VWS V14.01,2013-03-04 11:26:00,
2013-03-04 03:27:00,53.7,49.6,29.97,East,90,0.0,1.0,86,0.00,,,0.00,VWS V14.01,2013-03-04 11:27:00,
2013-03-04 03:28:00,53.7,49.6,29.97,East,90,0.0,0.0,86,0.00,,,0.00,VWS V14.01,2013-03-04 11:28:00,
2013-03-04 03:29:00,53.7,49.6,29.97,East,90,0.0,1.0,86,0.00,,,0.00,VWS V14.01,2013-03-04 11:29:00,
2013-03-04 03:30:00,53.7,49.6,29.97,East,90,0.0,0.0,86,0.00,,,0.00,VWS V14.01,2013-03-04 11:30:00,
2013-03-04 03:31:00,53.8,49.7,29.97,East,90,0.0,0.0,86,0.00,,,0.00,VWS V14.01,2013-03-04 11:31:00,
2013-03-04 03:32:00,53.8,49.7,29.97,East,90,0.0,0.0,86,0.00,,,0.00,VWS V14.01,2013-03-04 11:32:00,
2013-03-04 03:33:00,53.8,49.7,29.96,East,90,0.0,0.0,86,0.00,,,0.00,VWS V14.01,2013-03-04 11:33:00,
2013-03-04 03:34:00,53.8,49.7,29.96,East,90,0.0,0.0,86,0.00,,,0.00,VWS V14.01,2013-03-04 11:34:00,
2013-03-04 03:35:00,53.8,49.7,29.96,East,90,0.0,0.0,86,0.00,,,0.00,VWS V14.01,2013-03-04 11:35:00,
2013-03-04 03:36:00,53.9,49.8,29.96,East,90,0.0,0.0,86,0.00,,,0.00,VWS V14.01,2013-03-04 11:36:00,
2013-03-04 03:37:00,53.8,49.7,29.97,East,90,0.0,0.0,86,0.00,,,0.00,VWS V14.01,2013-03-04 11:37:00,
2013-03-04 03:38:00,53.8,49.7,29.97,East,90,0.0,0.0,86,0.00,,,0.00,VWS V14.01,2013-03-04 11:38:00,
2013-03-04 03:39:00,53.9,49.8,29.97,East,90,0.0,0.0,86,0.00,,,0.00,VWS V14.01,2013-03-04 11:39:00,
2013-03-04 03:40:00,53.9,49.8,29.97,East,90,0.0,1.0,86,0.00,,,0.00,VWS V14.01,2013-03-04 11:40:00,
2013-03-04 03:41:00,53.9,49.8,29.97,East,90,0.0,1.0,86,0.00,,,0.00,VWS V14.01,2013-03-04 11:41:00,
2013-03-04 03:42:00,53.9,49.8,29.97,ESE,112,1.0,1.0,86,0.00,,,0.00,VWS V14.01,2013-03-04 11:42:00,
2013-03-04 03:43:00,53.9,49.8,29.97,ESE,112,0.0,1.0,86,0.00,,,0.00,VWS V14.01,2013-03-04 11:43:00,
2013-03-04 03:44:00,53.9,49.8,29.97,ESE,112,0.0,1.0,86,0.00,,,0.00,VWS V14.01,2013-03-04 11:44:00,
2013-03-04 03:45:00,53.9,49.8,29.97,ESE,112,0.0,1.0,86,0.00,,,0.00,VWS V14.01,2013-03-04 11:45:00,
2013-03-04 03:46:00,53.9,49.8,29.97,ESE,112,1.0,1.0,86,0.00,,,0.00,VWS V14.01,2013-03-04 11:46:00,
2013-03-04 03:47:00,53.9,49.8,29.97,ESE,112,0.0,0.0,86,0.00,,,0.00,VWS V14.01,2013-03-04 11:47:00,
2013-03-04 03:48:00,53.9,49.8,29.97,ESE,112,0.0,0.0,86,0.00,,,0.00,VWS V14.01,2013-03-04 11:48:00,
2013-03-04 03:49:00,54.0,49.9,29.97,ESE,112,0.0,1.0,86,0.00,,,0.00,VWS V14.01,2013-03-04 11:49:00,
2013-03-04 03:50:00,54.0,49.9,29.96,ESE,112,0.0,0.0,86,0.00,,,0.00,VWS V14.01,2013-03-04 11:50:00,
2013-03-04 03:51:00,54.0,49.9,29.97,NNE,22,1.0,3.0,86,0.00,,,0.00,VWS V14.01,2013-03-04 11:51:00,
2013-03-04 03:52:00,54.0,49.6,29.97,NNE,22,0.0,0.0,85,0.00,,,0.00,VWS V14.01,2013-03-04 11:52:00,
2013-03-04 03:53:00,54.0,49.6,29.96,NNE,22,0.0,1.0,85,0.00,,,0.00,VWS V14.01,2013-03-04 11:53:00,
2013-03-04 03:54:00,54.0,49.6,29.97,NNE,22,0.0,1.0,85,0.00,,,0.00,VWS V14.01,2013-03-04 11:54:00,
2013-03-04 03:55:00,54.0,49.6,29.97,NNE,22,0.0,1.0,85,0.00,,,0.00,VWS V14.01,2013-03-04 11:55:00,
2013-03-04 03:56:00,54.0,49.6,29.97,ENE,68,1.0,2.0,85,0.00,,,0.00,VWS V14.01,2013-03-04 11:56:00,
2013-03-04 03:57:00,54.0,49.6,29.96,ENE,68,1.0,1.0,85,0.00,,,0.00,VWS V14.01,2013-03-04 11:57:00,
2013-03-04 03:58:00,54.0,49.6,29.96,East,90,1.0,1.0,85,0.00,,,0.00,VWS V14.01,2013-03-04 11:58:00,
2013-03-04 03:59:00,54.0,49.6,29.96,ESE,112,1.0,1.0,85,0.00,,,0.00,VWS V14.01,2013-03-04 11:59:00,
2013-03-04 04:00:00,54.0,49.6,29.96,SE,135,1.0,1.0,85,0.00,,,0.00,VWS V14.01,2013-03-04 12:00:00,
2013-03-04 04:01:00,54.0,49.6,29.96,SE,135,1.0,1.0,85,0.00,,,0.00,VWS V14.01,2013-03-04 12:01:00,
2013-03-04 04:02:00,54.1,49.7,29.96,SE,135,0.0,1.0,85,0.00,,,0.00,VWS V14.01,2013-03-04 12:02:00,
2013-03-04 04:03:00,54.1,49.7,29.96,SE,135,0.0,1.0,85,0.00,,,0.00,VWS V14.01,2013-03-04 12:03:00,
2013-03-04 04:04:00,54.1,49.7,29.96,ESE,112,1.0,1.0,85,0.00,,,0.00,VWS V14.01,2013-03-04 12:04:00,
2013-03-04 04:05:00,54.1,49.7,29.96,East,90,0.0,1.0,85,0.00,,,0.00,VWS V14.01,2013-03-04 12:05:00,
2013-03-04 04:06:00,54.1,49.7,29.96,East,90,0.0,0.0,85,0.00,,,0.00,VWS V14.01,2013-03-04 12:06:00,
2013-03-04 04:07:00,54.1,49.7,29.96,ESE,112,1.0,2.0,85,0.00,,,0.00,VWS V14.01,2013-03-04 12:07:00,
2013-03-04 04:08:00,54.1,49.7,29.96,ESE,112,1.0,1.0,85,0.00,,,0.00,VWS V14.01,2013-03-04 12:08:00,
2013-03-04 04:09:00,54.1,49.7,29.96,ESE,112,0.0,1.0,85,0.00,,,0.00,VWS V14.01,2013-03-04 12:09:00,
2013-03-04 04:10:00,54.1,49.7,29.96,SE,135,1.0,2.0,85,0.00,,,0.00,VWS V14.01,2013-03-04 12:10:00,
2013-03-04 04:11:00,54.1,49.7,29.96,ESE,112,0.0,1.0,85,0.00,,,0.00,VWS V14.01,2013-03-04 12:11:00,
2013-03-04 04:12:00,54.1,49.7,29.96,ESE,112,0.0,1.0,85,0.00,,,0.00,VWS V14.01,2013-03-04 12:12:00,
2013-03-04 04:13:00,54.1,49.7,29.96,SE,135,1.0,1.0,85,0.00,,,0.00,VWS V14.01,2013-03-04 12:13:00,
2013-03-04 04:14:00,54.1,49.7,29.96,SE,135,0.0,0.0,85,0.00,,,0.00,VWS V14.01,2013-03-04 12:14:00,
2013-03-04 04:15:00,54.1,49.7,29.96,SE,135,0.0,0.0,85,0.00,,,0.00,VWS V14.01,2013-03-04 12:15:00,
2013-03-04 04:16:00,54.1,49.7,29.96,SE,135,0.0,0.0,85,0.00,,,0.00,VWS V14.01,2013-03-04 12:16:00,
2013-03-04 04:17:00,54.1,49.7,29.96,SE,135,0.0,0.0,85,0.00,,,0.00,VWS V14.01,2013-03-04 12:17:00,
2013-03-04 04:18:00,54.0,49.6,29.96,SE,135,0.0,1.0,85,0.00,,,0.00,VWS V14.01,2013-03-04 12:18:00,
2013-03-04 04:19:00,54.0,49.6,29.96,SE,135,1.0,1.0,85,0.00,,,0.00,VWS V14.01,2013-03-04 12:19:00,
2013-03-04 04:20:00,54.0,49.6,29.96,SE,135,1.0,1.0,85,0.00,,,0.00,VWS V14.01,2013-03-04 12:20:00,
2013-03-04 04:21:00,54.0,49.6,29.96,SE,135,1.0,1.0,85,0.00,,,0.00,VWS V14.01,2013-03-04 12:21:00,
2013-03-04 04:22:00,53.9,49.5,29.96,SE,135,0.0,1.0,85,0.00,,,0.00,VWS V14.01,2013-03-04 12:22:00,
2013-03-04 04:23:00,53.9,49.5,29.96,SE,135,0.0,1.0,85,0.00,,,0.00,VWS V14.01,2013-03-04 12:23:00,
2013-03-04 04:24:00,53.9,49.5,29.96,SE,135,1.0,1.0,85,0.00,,,0.00,VWS V14.01,2013-03-04 12:24:00,
2013-03-04 04:25:00,53.9,49.5,29.96,SE,135,0.0,0.0,85,0.00,,,0.00,VWS V14.01,2013-03-04 12:25:00,
2013-03-04 04:26:00,53.9,49.5,29.96,SE,135,0.0,1.0,85,0.00,,,0.00,VWS V14.01,2013-03-04 12:26:00,
2013-03-04 04:27:00,53.8,49.4,29.96,SE,135,1.0,1.0,85,0.00,,,0.00,VWS V14.01,2013-03-04 12:27:00,
2013-03-04 04:28:00,53.8,49.4,29.96,SE,135,0.0,0.0,85,0.00,,,0.00,VWS V14.01,2013-03-04 12:28:00,
2013-03-04 04:29:00,53.8,49.4,29.96,SE,135,1.0,1.0,85,0.00,,,0.00,VWS V14.01,2013-03-04 12:29:00,
2013-03-04 04:30:00,53.8,49.4,29.96,SE,135,1.0,1.0,85,0.00,,,0.00,VWS V14.01,2013-03-04 12:30:00,
2013-03-04 04:31:00,53.7,49.3,29.96,SE,135,1.0,1.0,85,0.00,,,0.00,VWS V14.01,2013-03-04 12:31:00,
2013-03-04 04:32:00,53.7,49.3,29.96,SE,135,1.0,1.0,85,0.00,,,0.00,VWS V14.01,2013-03-04 12:32:00,
2013-03-04 04:33:00,53.7,49.3,29.96,SE,135,1.0,1.0,85,0.00,,,0.00,VWS V14.01,2013-03-04 12:33:00,
2013-03-04 04:34:00,53.6,49.2,29.96,SE,135,0.0,1.0,85,0.00,,,0.00,VWS V14.01,2013-03-04 12:34:00,
2013-03-04 04:35:00,53.6,49.2,29.96,SE,135,0.0,1.0,85,0.00,,,0.00,VWS V14.01,2013-03-04 12:35:00,
2013-03-04 04:36:00,53.5,49.1,29.96,SE,135,1.0,1.0,85,0.00,,,0.00,VWS V14.01,2013-03-04 12:36:00,
2013-03-04 04:37:00,53.5,49.1,29.96,SE,135,1.0,1.0,85,0.00,,,0.00,VWS V14.01,2013-03-04 12:37:00,
2013-03-04 04:38:00,53.4,49.0,29.96,ESE,112,0.0,1.0,85,0.00,,,0.00,VWS V14.01,2013-03-04 12:38:00,
2013-03-04 04:39:00,53.4,49.0,29.96,ESE,112,1.0,2.0,85,0.00,,,0.00,VWS V14.01,2013-03-04 12:39:00,
2013-03-04 04:40:00,53.3,48.9,29.96,ESE,112,1.0,1.0,85,0.00,,,0.00,VWS V14.01,2013-03-04 12:40:00,
2013-03-04 04:41:00,53.3,48.9,29.96,ESE,112,0.0,1.0,85,0.00,,,0.00,VWS V14.01,2013-03-04 12:41:00,
2013-03-04 04:42:00,53.3,48.9,29.96,ESE,112,1.0,1.0,85,0.00,,,0.00,VWS V14.01,2013-03-04 12:42:00,
2013-03-04 04:43:00,53.3,48.9,29.96,ESE,112,1.0,2.0,85,0.00,,,0.00,VWS V14.01,2013-03-04 12:43:00,
2013-03-04 04:44:00,53.2,48.8,29.96,ESE,112,1.0,2.0,85,0.00,,,0.00,VWS V14.01,2013-03-04 12:44:00,
2013-03-04 04:45:00,53.2,48.8,29.96,SE,135,1.0,2.0,85,0.00,,,0.00,VWS V14.01,2013-03-04 12:45:00,
2013-03-04 04:46:00,53.2,48.8,29.96,ESE,112,1.0,1.0,85,0.00,,,0.00,VWS V14.01,2013-03-04 12:46:00,
2013-03-04 04:47:00,53.2,48.8,29.96,ESE,112,1.0,2.0,85,0.00,,,0.00,VWS V14.01,2013-03-04 12:47:00,
2013-03-04 04:48:00,53.1,48.7,29.96,ESE,112,1.0,1.0,85,0.00,,,0.00,VWS V14.01,2013-03-04 12:48:00,
2013-03-04 04:49:00,53.1,48.7,29.96,ESE,112,1.0,1.0,85,0.00,,,0.00,VWS V14.01,2013-03-04 12:49:00,
2013-03-04 04:50:00,53.1,49.0,29.96,ESE,112,1.0,1.0,86,0.00,,,0.00,VWS V14.01,2013-03-04 12:50:00,
2013-03-04 04:51:00,53.0,48.9,29.96,ESE,112,0.0,1.0,86,0.00,,,0.00,VWS V14.01,2013-03-04 12:51:00,
2013-03-04 04:52:00,53.0,48.9,29.96,ESE,112,1.0,2.0,86,0.00,,,0.00,VWS V14.01,2013-03-04 12:52:00,
2013-03-04 04:53:00,53.0,48.9,29.96,ESE,112,1.0,2.0,86,0.00,,,0.00,VWS V14.01,2013-03-04 12:53:00,
2013-03-04 04:54:00,53.0,48.6,29.96,SE,135,0.0,1.0,85,0.00,,,0.00,VWS V14.01,2013-03-04 12:54:00,
2013-03-04 04:55:00,52.9,48.5,29.96,SE,135,0.0,1.0,85,0.00,,,0.00,VWS V14.01,2013-03-04 12:55:00,
2013-03-04 04:56:00,52.9,48.5,29.96,SE,135,0.0,1.0,85,0.00,,,0.00,VWS V14.01,2013-03-04 12:56:00,
2013-03-04 04:57:00,52.9,48.5,29.96,SE,135,0.0,1.0,85,0.00,,,0.00,VWS V14.01,2013-03-04 12:57:00,
2013-03-04 04:58:00,52.8,48.4,29.96,SE,135,0.0,1.0,85,0.00,,,0.00,VWS V14.01,2013-03-04 12:58:00,
2013-03-04 04:59:00,52.8,48.7,29.96,SE,135,1.0,1.0,86,0.00,,,0.00,VWS V14.01,2013-03-04 12:59:00,
2013-03-04 05:00:00,52.8,48.7,29.96,SE,135,1.0,1.0,86,0.00,,,0.00,VWS V14.01,2013-03-04 13:00:00,
2013-03-04 05:01:00,52.8,48.7,29.96,ESE,112,1.0,1.0,86,0.00,,,0.00,VWS V14.01,2013-03-04 13:01:00,
2013-03-04 05:02:00,52.8,48.7,29.96,ESE,112,0.0,1.0,86,0.00,,,0.00,VWS V14.01,2013-03-04 13:02:00,
2013-03-04 05:03:00,52.7,48.6,29.96,ESE,112,0.0,0.0,86,0.00,,,0.00,VWS V14.01,2013-03-04 13:03:00,
2013-03-04 05:04:00,52.6,48.5,29.96,East,90,1.0,1.0,86,0.00,,,0.00,VWS V14.01,2013-03-04 13:04:00,
2013-03-04 05:05:00,52.6,48.5,29.96,East,90,1.0,1.0,86,0.00,,,0.00,VWS V14.01,2013-03-04 13:05:00,
2013-03-04 05:06:00,52.6,48.5,29.96,East,90,1.0,1.0,86,0.00,,,0.00,VWS V14.01,2013-03-04 13:06:00,
2013-03-04 05:07:00,52.5,48.4,29.96,East,90,1.0,1.0,86,0.00,,,0.00,VWS V14.01,2013-03-04 13:07:00,
2013-03-04 05:08:00,52.5,48.4,29.96,East,90,1.0,1.0,86,0.00,,,0.00,VWS V14.01,2013-03-04 13:08:00,
2013-03-04 05:09:00,52.5,48.4,29.96,ESE,112,0.0,1.0,86,0.00,,,0.00,VWS V14.01,2013-03-04 13:09:00,
2013-03-04 05:10:00,52.4,48.3,29.96,ESE,112,0.0,1.0,86,0.00,,,0.00,VWS V14.01,2013-03-04 13:10:00,
2013-03-04 05:11:00,52.4,48.3,29.96,ESE,112,0.0,1.0,86,0.00,,,0.00,VWS V14.01,2013-03-04 13:11:00,
2013-03-04 05:12:00,52.3,48.2,29.96,ESE,112,0.0,0.0,86,0.00,,,0.00,VWS V14.01,2013-03-04 13:12:00,
2013-03-04 05:13:00,52.2,48.2,29.96,ESE,112,0.0,0.0,86,0.00,,,0.00,VWS V14.01,2013-03-04 13:13:00,
2013-03-04 05:14:00,52.2,48.2,29.96,ESE,112,0.0,0.0,86,0.00,,,0.00,VWS V14.01,2013-03-04 13:14:00,
2013-03-04 05:15:00,52.2,48.2,29.96,ESE,112,0.0,0.0,86,0.00,,,0.00,VWS V14.01,2013-03-04 13:15:00,
2013-03-04 05:16:00,52.1,48.0,29.96,ESE,112,0.0,0.0,86,0.00,,,0.00,VWS V14.01,2013-03-04 13:16:00,
2013-03-04 05:17:00,52.1,48.0,29.97,ESE,112,0.0,0.0,86,0.00,,,0.00,VWS V14.01,2013-03-04 13:17:00,
2013-03-04 05:18:00,52.0,48.0,29.96,ESE,112,0.0,0.0,86,0.00,,,0.00,VWS V14.01,2013-03-04 13:18:00,
2013-03-04 05:19:00,52.0,48.0,29.97,ESE,112,0.0,0.0,86,0.00,,,0.00,VWS V14.01,2013-03-04 13:19:00,
2013-03-04 05:20:00,52.0,48.0,29.97,ESE,112,0.0,0.0,86,0.00,,,0.00,VWS V14.01,2013-03-04 13:20:00,
2013-03-04 05:21:00,52.0,48.0,29.97,ESE,112,0.0,0.0,86,0.00,,,0.00,VWS V14.01,2013-03-04 13:21:00,
2013-03-04 05:22:00,51.9,48.2,29.97,ESE,112,0.0,0.0,87,0.00,,,0.00,VWS V14.01,2013-03-04 13:22:00,
2013-03-04 05:23:00,51.8,48.1,29.97,ESE,112,0.0,0.0,87,0.00,,,0.00,VWS V14.01,2013-03-04 13:23:00,
2013-03-04 05:24:00,51.8,48.1,29.97,ESE,112,0.0,0.0,87,0.00,,,0.00,VWS V14.01,2013-03-04 13:24:00,
2013-03-04 05:25:00,51.8,48.1,29.97,ESE,112,0.0,0.0,87,0.00,,,0.00,VWS V14.01,2013-03-04 13:25:00,
2013-03-04 05:26:00,51.7,48.0,29.97,ESE,112,0.0,0.0,87,0.00,,,0.00,VWS V14.01,2013-03-04 13:26:00,
2013-03-04 05:27:00,51.7,48.0,29.97,ESE,112,0.0,0.0,87,0.00,,,0.00,VWS V14.01,2013-03-04 13:27:00,
2013-03-04 05:28:00,51.7,48.0,29.97,ESE,112,0.0,0.0,87,0.00,,,0.00,VWS V14.01,2013-03-04 13:28:00,
2013-03-04 05:29:00,51.6,47.9,29.97,ESE,112,0.0,0.0,87,0.00,,,0.00,VWS V14.01,2013-03-04 13:29:00,
2013-03-04 05:30:00,51.6,47.9,29.97,ESE,112,0.0,0.0,87,0.00,,,0.00,VWS V14.01,2013-03-04 13:30:00,
2013-03-04 05:31:00,51.6,47.9,29.97,ESE,112,0.0,0.0,87,0.00,,,0.00,VWS V14.01,2013-03-04 13:31:00,
2013-03-04 05:32:00,51.6,47.9,29.97,ESE,112,0.0,0.0,87,0.00,,,0.00,VWS V14.01,2013-03-04 13:32:00,
2013-03-04 05:33:00,51.5,47.8,29.97,ESE,112,0.0,0.0,87,0.00,,,0.00,VWS V14.01,2013-03-04 13:33:00,
2013-03-04 05:34:00,51.5,47.8,29.97,ESE,112,0.0,0.0,87,0.00,,,0.00,VWS V14.01,2013-03-04 13:34:00,
2013-03-04 05:35:00,51.5,47.8,29.97,ESE,112,0.0,0.0,87,0.00,,,0.00,VWS V14.01,2013-03-04 13:35:00,
2013-03-04 05:36:00,51.4,47.7,29.97,ESE,112,0.0,0.0,87,0.00,,,0.00,VWS V14.01,2013-03-04 13:36:00,
2013-03-04 05:37:00,51.4,47.7,29.97,ESE,112,0.0,0.0,87,0.00,,,0.00,VWS V14.01,2013-03-04 13:37:00,
2013-03-04 05:38:00,51.3,47.6,29.97,ESE,112,0.0,0.0,87,0.00,,,0.00,VWS V14.01,2013-03-04 13:38:00,
2013-03-04 05:39:00,51.3,47.6,29.97,ESE,112,0.0,0.0,87,0.00,,,0.00,VWS V14.01,2013-03-04 13:39:00,
2013-03-04 05:40:00,51.3,47.9,29.97,ESE,112,0.0,0.0,88,0.00,,,0.00,VWS V14.01,2013-03-04 13:40:00,
2013-03-04 05:41:00,51.3,47.9,29.97,ESE,112,0.0,0.0,88,0.00,,,0.00,VWS V14.01,2013-03-04 13:41:00,
2013-03-04 05:42:00,51.3,47.9,29.97,ESE,112,0.0,0.0,88,0.00,,,0.00,VWS V14.01,2013-03-04 13:42:00,
2013-03-04 05:43:00,51.3,47.9,29.97,ESE,112,0.0,0.0,88,0.00,,,0.00,VWS V14.01,2013-03-04 13:43:00,
2013-03-04 05:44:00,51.2,47.5,29.97,ESE,112,0.0,0.0,87,0.00,,,0.00,VWS V14.01,2013-03-04 13:44:00,
2013-03-04 05:45:00,51.2,47.5,29.97,ESE,112,0.0,0.0,87,0.00,,,0.00,VWS V14.01,2013-03-04 13:45:00,
2013-03-04 05:46:00,51.2,47.8,29.97,ESE,112,0.0,0.0,88,0.00,,,0.00,VWS V14.01,2013-03-04 13:46:00,
2013-03-04 05:47:00,51.2,47.8,29.97,ESE,112,0.0,0.0,88,0.00,,,0.00,VWS V14.01,2013-03-04 13:47:00,
2013-03-04 05:48:00,51.1,47.7,29.97,ESE,112,0.0,0.0,88,0.00,,,0.00,VWS V14.01,2013-03-04 13:48:00,
2013-03-04 05:49:00,51.1,47.7,29.98,ESE,112,0.0,0.0,88,0.00,,,0.00,VWS V14.01,2013-03-04 13:49:00,
2013-03-04 05:50:00,51.1,47.7,29.97,ESE,112,0.0,0.0,88,0.00,,,0.00,VWS V14.01,2013-03-04 13:50:00,
2013-03-04 05:51:00,51.0,47.6,29.97,ESE,112,0.0,0.0,88,0.00,,,0.00,VWS V14.01,2013-03-04 13:51:00,
2013-03-04 05:52:00,51.0,47.6,29.98,ESE,112,0.0,0.0,88,0.00,,,0.00,VWS V14.01,2013-03-04 13:52:00,
2013-03-04 05:53:00,51.0,47.6,29.98,ESE,112,0.0,0.0,88,0.00,,,0.00,VWS V14.01,2013-03-04 13:53:00,
2013-03-04 05:54:00,51.0,47.6,29.98,ESE,112,0.0,0.0,88,0.00,,,0.00,VWS V14.01,2013-03-04 13:54:00,
2013-03-04 05:55:00,51.0,47.6,29.98,ESE,112,0.0,0.0,88,0.00,,,0.00,VWS V14.01,2013-03-04 13:55:00,
2013-03-04 05:56:00,51.1,47.7,29.98,ESE,112,0.0,0.0,88,0.00,,,0.00,VWS V14.01,2013-03-04 13:56:00,
2013-03-04 05:57:00,51.1,47.7,29.98,ESE,112,0.0,0.0,88,0.00,,,0.00,VWS V14.01,2013-03-04 13:57:00,
2013-03-04 05:58:00,51.1,47.7,29.98,ESE,112,0.0,0.0,88,0.00,,,0.00,VWS V14.01,2013-03-04 13:58:00,
2013-03-04 05:59:00,51.2,47.8,29.98,ESE,112,0.0,0.0,88,0.00,,,0.00,VWS V14.01,2013-03-04 13:59:00,
2013-03-04 06:00:00,51.2,47.8,29.98,ESE,112,0.0,0.0,88,0.00,,,0.00,VWS V14.01,2013-03-04 14:00:00,
2013-03-04 06:01:00,51.3,47.9,29.98,ESE,112,0.0,0.0,88,0.00,,,0.00,VWS V14.01,2013-03-04 14:01:00,
2013-03-04 06:02:00,51.3,47.9,29.98,ESE,112,0.0,0.0,88,0.00,,,0.00,VWS V14.01,2013-03-04 14:02:00,
2013-03-04 06:03:00,51.4,48.0,29.98,ESE,112,0.0,0.0,88,0.00,,,0.00,VWS V14.01,2013-03-04 14:03:00,
2013-03-04 06:04:00,51.4,48.0,29.98,ESE,112,0.0,0.0,88,0.00,,,0.00,VWS V14.01,2013-03-04 14:04:00,
2013-03-04 06:05:00,51.5,48.1,29.98,ESE,112,0.0,0.0,88,0.00,,,0.00,VWS V14.01,2013-03-04 14:05:00,
2013-03-04 06:06:00,51.5,48.1,29.98,ESE,112,0.0,0.0,88,0.00,,,0.00,VWS V14.01,2013-03-04 14:06:00,
2013-03-04 06:07:00,51.6,48.2,29.98,ESE,112,0.0,0.0,88,0.00,,,0.00,VWS V14.01,2013-03-04 14:07:00,
2013-03-04 06:08:00,51.6,48.2,29.98,ESE,112,0.0,0.0,88,0.00,,,0.00,VWS V14.01,2013-03-04 14:08:00,
2013-03-04 06:09:00,51.6,48.2,29.98,ESE,112,0.0,0.0,88,0.00,,,0.00,VWS V14.01,2013-03-04 14:09:00,
2013-03-04 06:10:00,51.7,48.3,29.98,ESE,112,0.0,0.0,88,0.00,,,0.00,VWS V14.01,2013-03-04 14:10:00,
2013-03-04 06:11:00,51.7,48.3,29.98,ESE,112,0.0,0.0,88,0.00,,,0.00,VWS V14.01,2013-03-04 14:11:00,
2013-03-04 06:12:00,51.8,48.4,29.98,ESE,112,0.0,0.0,88,0.00,,,0.00,VWS V14.01,2013-03-04 14:12:00,
2013-03-04 06:13:00,51.8,48.4,29.98,ESE,112,0.0,0.0,88,0.00,,,0.00,VWS V14.01,2013-03-04 14:13:00,
2013-03-04 06:14:00,51.8,48.4,29.98,ESE,112,0.0,0.0,88,0.00,,,0.00,VWS V14.01,2013-03-04 14:14:00,
2013-03-04 06:15:00,51.9,48.5,29.98,ESE,112,0.0,0.0,88,0.00,,,0.00,VWS V14.01,2013-03-04 14:15:00,
2013-03-04 06:16:00,51.9,48.5,29.98,ESE,112,0.0,0.0,88,0.00,,,0.00,VWS V14.01,2013-03-04 14:16:00,
2013-03-04 06:17:00,51.9,48.2,29.98,ESE,112,0.0,0.0,87,0.00,,,0.00,VWS V14.01,2013-03-04 14:17:00,
2013-03-04 06:18:00,52.0,48.3,29.98,ESE,112,0.0,0.0,87,0.00,,,0.00,VWS V14.01,2013-03-04 14:18:00,
2013-03-04 06:19:00,52.0,48.3,29.98,ESE,112,0.0,0.0,87,0.00,,,0.00,VWS V14.01,2013-03-04 14:19:00,
2013-03-04 06:20:00,52.0,48.3,29.98,ESE,112,0.0,0.0,87,0.00,,,0.00,VWS V14.01,2013-03-04 14:20:00,
2013-03-04 06:21:00,52.0,48.3,29.98,ESE,112,0.0,0.0,87,0.00,,,0.00,VWS V14.01,2013-03-04 14:21:00,
2013-03-04 06:22:00,52.1,48.4,29.98,ESE,112,0.0,0.0,87,0.00,,,0.00,VWS V14.01,2013-03-04 14:22:00,
2013-03-04 06:23:00,52.1,48.4,29.98,ESE,112,0.0,0.0,87,0.00,,,0.00,VWS V14.01,2013-03-04 14:23:00,
2013-03-04 06:24:00,52.1,48.4,29.99,ESE,112,0.0,0.0,87,0.00,,,0.00,VWS V14.01,2013-03-04 14:24:00,
2013-03-04 06:25:00,52.1,48.4,29.99,ESE,112,0.0,0.0,87,0.00,,,0.00,VWS V14.01,2013-03-04 14:25:00,
2013-03-04 06:26:00,52.1,48.4,29.99,ESE,112,0.0,0.0,87,0.00,,,0.00,VWS V14.01,2013-03-04 14:26:00,
2013-03-04 06:27:00,52.2,48.2,29.98,ESE,112,0.0,0.0,86,0.00,,,0.00,VWS V14.01,2013-03-04 14:27:00,
2013-03-04 06:28:00,52.2,48.2,29.98,ESE,112,0.0,0.0,86,0.00,,,0.00,VWS V14.01,2013-03-04 14:28:00,
2013-03-04 06:29:00,52.2,48.2,29.98,ESE,112,0.0,0.0,86,0.00,,,0.00,VWS V14.01,2013-03-04 14:29:00,
2013-03-04 06:30:00,52.3,48.2,29.98,ESE,112,0.0,0.0,86,0.00,,,0.00,VWS V14.01,2013-03-04 14:30:00,
2013-03-04 06:31:00,52.4,48.3,29.98,ESE,112,0.0,0.0,86,0.00,,,0.00,VWS V14.01,2013-03-04 14:31:00,
2013-03-04 06:32:00,52.5,48.4,29.98,ESE,112,0.0,0.0,86,0.00,,,0.00,VWS V14.01,2013-03-04 14:32:00,
2013-03-04 06:33:00,52.6,48.5,29.99,ESE,112,0.0,0.0,86,0.00,,,0.00,VWS V14.01,2013-03-04 14:33:00,
2013-03-04 06:34:00,52.6,48.5,29.99,ESE,112,0.0,0.0,86,0.00,,,0.00,VWS V14.01,2013-03-04 14:34:00,
2013-03-04 06:35:00,52.7,48.3,29.99,ESE,112,0.0,0.0,85,0.00,,,0.00,VWS V14.01,2013-03-04 14:35:00,
2013-03-04 06:36:00,52.8,48.4,29.99,ESE,112,0.0,0.0,85,0.00,,,0.00,VWS V14.01,2013-03-04 14:36:00,
2013-03-04 06:37:00,52.9,48.5,29.99,ESE,112,0.0,0.0,85,0.00,,,0.00,VWS V14.01,2013-03-04 14:37:00,
2013-03-04 06:38:00,52.9,48.5,29.98,ESE,112,0.0,0.0,85,0.00,,,0.00,VWS V14.01,2013-03-04 14:38:00,
2013-03-04 06:39:00,53.0,48.6,29.98,ESE,112,0.0,0.0,85,0.00,,,0.00,VWS V14.01,2013-03-04 14:39:00,
2013-03-04 06:40:00,53.0,48.6,29.98,ESE,112,0.0,0.0,85,0.00,,,0.00,VWS V14.01,2013-03-04 14:40:00,
2013-03-04 06:41:00,53.1,48.7,29.98,ESE,112,0.0,0.0,85,0.00,,,0.00,VWS V14.01,2013-03-04 14:41:00,
2013-03-04 06:42:00,53.1,48.4,29.98,ESE,112,0.0,0.0,84,0.00,,,0.00,VWS V14.01,2013-03-04 14:42:00,
2013-03-04 06:43:00,53.2,48.5,29.99,ESE,112,0.0,0.0,84,0.00,,,0.00,VWS V14.01,2013-03-04 14:43:00,
2013-03-04 06:44:00,53.2,48.5,29.99,ESE,112,0.0,0.0,84,0.00,,,0.00,VWS V14.01,2013-03-04 14:44:00,
2013-03-04 06:45:00,53.2,48.5,29.99,ESE,112,0.0,0.0,84,0.00,,,0.00,VWS V14.01,2013-03-04 14:45:00,
2013-03-04 06:46:00,53.2,48.5,29.99,ESE,112,0.0,0.0,84,0.00,,,0.00,VWS V14.01,2013-03-04 14:46:00,
2013-03-04 06:47:00,53.3,48.6,29.99,ESE,112,0.0,0.0,84,0.00,,,0.00,VWS V14.01,2013-03-04 14:47:00,
2013-03-04 06:48:00,53.3,48.6,29.99,ESE,112,0.0,0.0,84,0.00,,,0.00,VWS V14.01,2013-03-04 14:48:00,
2013-03-04 06:49:00,53.3,48.6,29.99,ESE,112,0.0,0.0,84,0.00,,,0.00,VWS V14.01,2013-03-04 14:49:00,
2013-03-04 06:50:00,53.4,48.7,29.99,ESE,112,0.0,0.0,84,0.00,,,0.00,VWS V14.01,2013-03-04 14:50:00,
2013-03-04 06:51:00,53.4,48.7,29.99,ESE,112,0.0,0.0,84,0.00,,,0.00,VWS V14.01,2013-03-04 14:51:00,
2013-03-04 06:52:00,53.4,48.4,29.99,ESE,112,0.0,0.0,83,0.00,,,0.00,VWS V14.01,2013-03-04 14:52:00,
2013-03-04 06:53:00,53.4,48.4,29.99,ESE,112,0.0,0.0,83,0.00,,,0.00,VWS V14.01,2013-03-04 14:53:00,
2013-03-04 06:54:00,53.5,48.5,29.99,ESE,112,0.0,0.0,83,0.00,,,0.00,VWS V14.01,2013-03-04 14:54:00,
2013-03-04 06:55:00,53.5,48.5,30.00,ESE,112,0.0,0.0,83,0.00,,,0.00,VWS V14.01,2013-03-04 14:55:00,
2013-03-04 06:56:00,53.5,48.5,29.99,ESE,112,0.0,0.0,83,0.00,,,0.00,VWS V14.01,2013-03-04 14:56:00,
2013-03-04 06:57:00,53.6,48.6,29.99,ESE,112,0.0,0.0,83,0.00,,,0.00,VWS V14.01,2013-03-04 14:57:00,
2013-03-04 06:58:00,53.6,48.6,30.00,ESE,112,0.0,0.0,83,0.00,,,0.00,VWS V14.01,2013-03-04 14:58:00,
2013-03-04 06:59:00,53.6,48.6,30.00,ESE,112,0.0,0.0,83,0.00,,,0.00,VWS V14.01,2013-03-04 14:59:00,
2013-03-04 07:00:00,53.7,48.7,30.00,ESE,112,0.0,0.0,83,0.00,,,0.00,VWS V14.01,2013-03-04 15:00:00,
2013-03-04 07:01:00,53.7,48.7,30.00,ESE,112,0.0,0.0,83,0.00,,,0.00,VWS V14.01,2013-03-04 15:01:00,
2013-03-04 07:02:00,53.7,48.7,30.00,ESE,112,0.0,0.0,83,0.00,,,0.00,VWS V14.01,2013-03-04 15:02:00,
2013-03-04 07:03:00,53.7,48.7,30.00,ESE,112,0.0,0.0,83,0.00,,,0.00,VWS V14.01,2013-03-04 15:03:00,
2013-03-04 07:04:00,53.7,48.3,30.00,ESE,112,0.0,0.0,82,0.00,,,0.00,VWS V14.01,2013-03-04 15:04:00,
2013-03-04 07:05:00,53.8,48.4,30.00,ESE,112,0.0,0.0,82,0.00,,,0.00,VWS V14.01,2013-03-04 15:05:00,
2013-03-04 07:06:00,53.8,48.4,30.00,ESE,112,0.0,0.0,82,0.00,,,0.00,VWS V14.01,2013-03-04 15:06:00,
2013-03-04 07:07:00,53.8,48.4,30.00,ESE,112,0.0,0.0,82,0.00,,,0.00,VWS V14.01,2013-03-04 15:07:00,
2013-03-04 07:08:00,53.9,48.5,30.00,ESE,112,0.0,0.0,82,0.00,,,0.00,VWS V14.01,2013-03-04 15:08:00,
2013-03-04 07:09:00,53.9,48.5,30.00,SSE,158,1.0,2.0,82,0.00,,,0.00,VWS V14.01,2013-03-04 15:09:00,
2013-03-04 07:10:00,53.9,48.5,30.00,SSE,158,2.0,2.0,82,0.00,,,0.00,VWS V14.01,2013-03-04 15:10:00,
2013-03-04 07:11:00,53.9,48.5,30.00,SE,135,2.0,3.0,82,0.00,,,0.00,VWS V14.01,2013-03-04 15:11:00,
2013-03-04 07:12:00,54.0,48.6,30.00,SSE,158,1.0,2.0,82,0.00,,,0.00,VWS V14.01,2013-03-04 15:12:00,
2013-03-04 07:13:00,54.1,48.7,30.00,SE,135,2.0,3.0,82,0.00,,,0.00,VWS V14.01,2013-03-04 15:13:00,
2013-03-04 07:14:00,54.1,48.4,30.00,SE,135,1.0,2.0,81,0.00,,,0.00,VWS V14.01,2013-03-04 15:14:00,
2013-03-04 07:15:00,54.1,48.4,30.00,SE,135,2.0,2.0,81,0.00,,,0.00,VWS V14.01,2013-03-04 15:15:00,
2013-03-04 07:16:00,54.2,48.5,30.00,SSE,158,1.0,1.0,81,0.00,,,0.00,VWS V14.01,2013-03-04 15:16:00,
2013-03-04 07:17:00,54.2,48.5,30.00,East,90,1.0,2.0,81,0.00,,,0.00,VWS V14.01,2013-03-04 15:17:00,
2013-03-04 07:18:00,54.3,48.6,30.01,SE,135,1.0,2.0,81,0.00,,,0.00,VWS V14.01,2013-03-04 15:18:00,
2013-03-04 07:19:00,54.3,48.6,30.01,SE,135,1.0,2.0,81,0.00,,,0.00,VWS V14.01,2013-03-04 15:19:00,
2013-03-04 07:20:00,54.3,48.6,30.01,SE,135,2.0,3.0,81,0.00,,,0.00,VWS V14.01,2013-03-04 15:20:00,
2013-03-04 07:21:00,54.4,48.4,30.01,SE,135,2.0,4.0,80,0.00,,,0.00,VWS V14.01,2013-03-04 15:21:00,
2013-03-04 07:22:00,54.4,48.4,30.01,SE,135,2.0,4.0,80,0.00,,,0.00,VWS V14.01,2013-03-04 15:22:00,
2013-03-04 07:23:00,54.4,48.4,30.01,ESE,112,3.0,4.0,80,0.00,,,0.00,VWS V14.01,2013-03-04 15:23:00,
2013-03-04 07:24:00,54.5,48.5,30.01,SE,135,2.0,3.0,80,0.00,,,0.00,VWS V14.01,2013-03-04 15:24:00,
2013-03-04 07:25:00,54.5,48.5,30.01,SE,135,2.0,3.0,80,0.00,,,0.00,VWS V14.01,2013-03-04 15:25:00,
2013-03-04 07:26:00,54.5,48.5,30.01,SE,135,2.0,3.0,80,0.00,,,0.00,VWS V14.01,2013-03-04 15:26:00,
2013-03-04 07:27:00,54.5,48.5,30.01,SE,135,3.0,4.0,80,0.00,,,0.00,VWS V14.01,2013-03-04 15:27:00,
2013-03-04 07:28:00,54.5,48.5,30.01,SE,135,3.0,5.0,80,0.00,,,0.00,VWS V14.01,2013-03-04 15:28:00,
2013-03-04 07:29:00,54.6,48.6,30.01,SE,135,3.0,4.0,80,0.00,,,0.00,VWS V14.01,2013-03-04 15:29:00,
2013-03-04 07:30:00,54.6,48.6,30.01,SE,135,3.0,4.0,80,0.00,,,0.00,VWS V14.01,2013-03-04 15:30:00,
2013-03-04 07:31:00,54.6,48.6,30.01,SSE,158,4.0,5.0,80,0.00,,,0.00,VWS V14.01,2013-03-04 15:31:00,
2013-03-04 07:32:00,54.7,48.7,30.01,ESE,112,1.0,3.0,80,0.00,,,0.00,VWS V14.01,2013-03-04 15:32:00,
2013-03-04 07:33:00,54.7,48.3,30.01,SE,135,2.0,4.0,79,0.00,,,0.00,VWS V14.01,2013-03-04 15:33:00,
2013-03-04 07:34:00,54.7,48.3,30.01,ESE,112,2.0,4.0,79,0.00,,,0.00,VWS V14.01,2013-03-04 15:34:00,
2013-03-04 07:35:00,54.8,48.4,30.01,SSE,158,3.0,5.0,79,0.00,,,0.00,VWS V14.01,2013-03-04 15:35:00,
2013-03-04 07:36:00,54.8,48.4,30.01,SE,135,1.0,2.0,79,0.00,,,0.00,VWS V14.01,2013-03-04 15:36:00,
2013-03-04 07:37:00,54.9,48.5,30.01,SE,135,3.0,5.0,79,0.00,,,0.00,VWS V14.01,2013-03-04 15:37:00,
2013-03-04 07:38:00,54.9,48.5,30.01,SE,135,2.0,2.0,79,0.00,,,0.00,VWS V14.01,2013-03-04 15:38:00,
2013-03-04 07:39:00,54.9,48.5,30.01,SE,135,1.0,2.0,79,0.00,,,0.00,VWS V14.01,2013-03-04 15:39:00,
2013-03-04 07:40:00,55.0,48.6,30.01,ESE,112,3.0,4.0,79,0.00,,,0.00,VWS V14.01,2013-03-04 15:40:00,
2013-03-04 07:41:00,55.0,48.3,30.01,East,90,3.0,4.0,78,0.00,,,0.00,VWS V14.01,2013-03-04 15:41:00,
2013-03-04 07:42:00,55.0,48.3,30.01,East,90,2.0,3.0,78,0.00,,,0.00,VWS V14.01,2013-03-04 15:42:00,
2013-03-04 07:43:00,55.1,48.4,30.01,ESE,112,2.0,3.0,78,0.00,,,0.00,VWS V14.01,2013-03-04 15:43:00,
2013-03-04 07:44:00,55.1,48.4,30.01,East,90,2.0,3.0,78,0.00,,,0.00,VWS V14.01,2013-03-04 15:44:00,
2013-03-04 07:45:00,55.2,48.5,30.01,ESE,112,2.0,3.0,78,0.00,,,0.00,VWS V14.01,2013-03-04 15:45:00,
2013-03-04 07:46:00,55.2,48.5,30.01,SSE,158,2.0,2.0,78,0.00,,,0.00,VWS V14.01,2013-03-04 15:46:00,
2013-03-04 07:47:00,55.3,48.6,30.01,SE,135,2.0,5.0,78,0.00,,,0.00,VWS V14.01,2013-03-04 15:47:00,
2013-03-04 07:48:00,55.3,48.6,30.01,SE,135,3.0,4.0,78,0.00,,,0.00,VWS V14.01,2013-03-04 15:48:00,
2013-03-04 07:49:00,55.4,48.7,30.00,SE,135,2.0,3.0,78,0.00,,,0.00,VWS V14.01,2013-03-04 15:49:00,
2013-03-04 07:50:00,55.5,48.8,30.00,SE,135,3.0,5.0,78,0.00,,,0.00,VWS V14.01,2013-03-04 15:50:00,
2013-03-04 07:51:00,55.6,48.9,30.01,East,90,3.0,4.0,78,0.00,,,0.00,VWS V14.01,2013-03-04 15:51:00,
2013-03-04 07:52:00,55.8,49.0,30.01,SE,135,1.0,2.0,78,0.00,,,0.00,VWS V14.01,2013-03-04 15:52:00,
2013-03-04 07:53:00,56.0,49.2,30.01,ESE,112,3.0,4.0,78,0.00,,,0.00,VWS V14.01,2013-03-04 15:53:00,
2013-03-04 07:54:00,56.2,49.1,30.01,SE,135,3.0,5.0,77,0.00,,,0.00,VWS V14.01,2013-03-04 15:54:00,
2013-03-04 07:55:00,56.3,48.8,30.01,SSE,158,1.0,2.0,76,0.00,,,0.00,VWS V14.01,2013-03-04 15:55:00,
2013-03-04 07:56:00,56.6,49.1,30.01,SSE,158,1.0,3.0,76,0.00,,,0.00,VWS V14.01,2013-03-04 15:56:00,
2013-03-04 07:57:00,56.8,49.3,30.01,East,90,2.0,4.0,76,0.00,,,0.00,VWS V14.01,2013-03-04 15:57:00,
2013-03-04 07:58:00,57.0,49.2,30.01,ESE,112,3.0,4.0,75,0.00,,,0.00,VWS V14.01,2013-03-04 15:58:00,
2013-03-04 07:59:00,57.1,49.3,30.01,SE,135,2.0,4.0,75,0.00,,,0.00,VWS V14.01,2013-03-04 15:59:00,
2013-03-04 08:00:00,57.1,48.9,30.01,SE,135,2.0,5.0,74,0.00,,,0.00,VWS V14.01,2013-03-04 16:00:00,
2013-03-04 08:01:00,57.2,49.0,30.01,South,180,2.0,3.0,74,0.00,,,0.00,VWS V14.01,2013-03-04 16:01:00,
2013-03-04 08:04:00,57.5,48.9,30.00,East,100,6.0,6.0,73,0.00,,,0.00,VWS V14.01,2013-03-04 16:04:00,
2013-03-04 08:05:00,57.2,49.0,30.01,South,180,2.0,3.0,74,0.00,,,0.00,VWS V14.01,2013-03-04 16:05:00,
2013-03-04 08:06:00,57.5,48.9,30.00,East,98,4.0,4.0,73,0.00,,,0.00,VWS V14.01,2013-03-04 16:06:00,
2013-03-04 08:07:00,57.5,48.9,30.00,SSE,155,3.0,7.0,73,0.00,,,0.00,VWS V14.01,2013-03-04 16:07:00,
2013-03-04 08:08:00,57.6,49.0,30.00,SE,143,2.0,4.0,73,0.00,,,0.00,VWS V14.01,2013-03-04 16:08:00,
2013-03-04 08:09:00,57.7,49.1,30.00,ESE,117,1.0,4.0,73,0.00,,,0.00,VWS V14.01,2013-03-04 16:09:00,
2013-03-04 08:10:00,57.7,49.1,30.00,SE,127,2.0,2.0,73,0.00,,,0.00,VWS V14.01,2013-03-04 16:10:00,
2013-03-04 08:11:00,57.8,49.2,30.00,ESE,117,5.0,5.0,73,0.00,,,0.00,VWS V14.01,2013-03-04 16:11:00,
2013-03-04 08:12:00,58.1,49.1,30.01,East,98,2.0,2.0,72,0.00,,,0.00,VWS V14.01,2013-03-04 16:12:00,
2013-03-04 08:13:00,58.1,49.1,30.01,East,98,2.0,2.0,72,0.00,,,0.00,VWS V14.01,2013-03-04 16:13:00,
2013-03-04 08:14:00,58.4,49.4,30.01,SE,146,2.0,2.0,72,0.00,,,0.00,VWS V14.01,2013-03-04 16:14:00,
2013-03-04 08:15:00,58.4,49.4,30.01,SE,146,2.0,2.0,72,0.00,,,0.00,VWS V14.01,2013-03-04 16:15:00,
2013-03-04 08:16:00,58.6,49.2,30.01,SE,142,3.0,4.0,71,0.00,,,0.00,VWS V14.01,2013-03-04 16:16:00,
2013-03-04 08:17:00,58.7,49.0,30.01,SE,146,4.0,6.0,70,0.00,,,0.00,VWS V14.01,2013-03-04 16:17:00,
2013-03-04 08:18:00,58.7,49.0,30.01,SE,146,4.0,6.0,70,0.00,,,0.00,VWS V14.01,2013-03-04 16:18:00,
2013-03-04 08:19:00,58.8,49.0,30.01,SE,134,3.0,4.0,70,0.00,,,0.00,VWS V14.01,2013-03-04 16:19:00,
2013-03-04 08:20:00,58.8,49.0,30.01,SE,134,3.0,4.0,70,0.00,,,0.00,VWS V14.01,2013-03-04 16:20:00,
2013-03-04 08:21:00,58.9,49.2,30.01,ESE,103,5.0,5.0,70,0.00,,,0.00,VWS V14.01,2013-03-04 16:21:00,
2013-03-04 08:22:00,58.8,48.7,30.01,East,91,6.0,6.0,69,0.00,,,0.00,VWS V14.01,2013-03-04 16:22:00,
2013-03-04 08:23:00,58.7,48.6,30.01,ESE,122,2.0,8.0,69,0.00,,,0.00,VWS V14.01,2013-03-04 16:23:00,
2013-03-04 08:24:00,58.7,48.6,30.01,ESE,122,2.0,8.0,69,0.00,,,0.00,VWS V14.01,2013-03-04 16:24:00,
2013-03-04 08:25:00,58.7,48.6,30.01,East,89,5.0,5.0,69,0.00,,,0.00,VWS V14.01,2013-03-04 16:25:00,
2013-03-04 08:26:00,58.7,48.6,30.01,East,89,5.0,5.0,69,0.00,,,0.00,VWS V14.01,2013-03-04 16:26:00,
2013-03-04 08:27:00,58.7,48.6,30.01,ESE,102,3.0,6.0,69,0.00,,,0.00,VWS V14.01,2013-03-04 16:27:00,
2013-03-04 08:28:00,58.7,48.6,30.01,East,94,2.0,4.0,69,0.00,,,0.00,VWS V14.01,2013-03-04 16:28:00,
2013-03-04 08:29:00,58.7,48.6,30.02,ESE,107,5.0,6.0,69,0.00,,,0.00,VWS V14.01,2013-03-04 16:29:00,
2013-03-04 08:30:00,58.6,48.5,30.02,ESE,112,3.0,7.0,69,0.00,,,0.00,VWS V14.01,2013-03-04 16:30:00,
2013-03-04 08:31:00,58.6,48.5,30.02,ESE,112,3.0,7.0,69,0.00,,,0.00,VWS V14.01,2013-03-04 16:31:00,
2013-03-04 08:32:00,58.6,48.5,30.02,ESE,120,4.0,4.0,69,0.00,,,0.00,VWS V14.01,2013-03-04 16:32:00,
2013-03-04 08:33:00,58.7,48.6,30.02,SSE,164,3.0,6.0,69,0.00,,,0.00,VWS V14.01,2013-03-04 16:33:00,
2013-03-04 08:34:00,58.7,48.6,30.02,SSE,164,3.0,6.0,69,0.00,,,0.00,VWS V14.01,2013-03-04 16:34:00,
2013-03-04 08:35:00,58.7,48.6,30.02,SE,141,3.0,3.0,69,0.00,,,0.00,VWS V14.01,2013-03-04 16:35:00,
2013-03-04 08:36:00,58.7,48.6,30.02,SE,141,3.0,3.0,69,0.00,,,0.00,VWS V14.01,2013-03-04 16:36:00,
2013-03-04 08:37:00,58.8,48.7,30.02,East,98,2.0,7.0,69,0.00,,,0.00,VWS V14.01,2013-03-04 16:37:00,
2013-03-04 08:38:00,58.9,48.8,30.02,South,175,3.0,5.0,69,0.00,,,0.00,VWS V14.01,2013-03-04 16:38:00,
2013-03-04 08:39:00,58.9,48.8,30.02,South,186,5.0,7.0,69,0.00,,,0.00,VWS V14.01,2013-03-04 16:39:00,
2013-03-04 08:40:00,59.0,48.5,30.02,WSW,255,2.0,6.0,68,0.00,,,0.00,VWS V14.01,2013-03-04 16:40:00,
2013-03-04 08:41:00,59.0,48.5,30.02,ESE,115,1.0,3.0,68,0.00,,,0.00,VWS V14.01,2013-03-04 16:41:00,
2013-03-04 08:42:00,59.0,48.5,30.01,East,93,3.0,3.0,68,0.00,,,0.00,VWS V14.01,2013-03-04 16:42:00,
2013-03-04 08:43:00,59.0,48.5,30.01,ESE,107,3.0,3.0,68,0.00,,,0.00,VWS V14.01,2013-03-04 16:43:00,
2013-03-04 08:44:00,59.0,48.5,30.01,ENE,65,1.0,2.0,68,0.00,,,0.00,VWS V14.01,2013-03-04 16:44:00,
2013-03-04 08:45:00,59.0,48.5,30.02,NE,39,3.0,4.0,68,0.00,,,0.00,VWS V14.01,2013-03-04 16:45:00,
2013-03-04 08:46:00,59.0,48.5,30.02,ESE,105,1.0,3.0,68,0.00,,,0.00,VWS V14.01,2013-03-04 16:46:00,
2013-03-04 08:47:00,59.0,48.5,30.02,ESE,117,1.0,1.0,68,0.00,,,0.00,VWS V14.01,2013-03-04 16:47:00,
2013-03-04 08:48:00,59.0,48.9,30.02,South,188,2.0,2.0,69,0.00,,,0.00,VWS V14.01,2013-03-04 16:48:00,
2013-03-04 08:49:00,59.3,49.1,30.02,SW,232,1.0,3.0,69,0.00,,,0.00,VWS V14.01,2013-03-04 16:49:00,
2013-03-04 08:50:00,59.5,48.9,30.02,SW,215,1.0,1.0,68,0.00,,,0.00,VWS V14.01,2013-03-04 16:50:00,
2013-03-04 08:51:00,59.6,49.0,30.02,East,84,2.0,2.0,68,0.00,,,0.00,VWS V14.01,2013-03-04 16:51:00,
2013-03-04 08:52:00,59.8,48.8,30.02,South,173,3.0,4.0,67,0.00,,,0.00,VWS V14.01,2013-03-04 16:52:00,
2013-03-04 08:53:00,59.8,48.8,30.02,South,173,3.0,4.0,67,0.00,,,0.00,VWS V14.01,2013-03-04 16:53:00,
2013-03-04 08:54:00,59.7,48.7,30.02,SE,142,2.0,5.0,67,0.00,,,0.00,VWS V14.01,2013-03-04 16:54:00,
2013-03-04 08:55:00,59.5,48.5,30.02,SSE,148,2.0,4.0,67,0.00,,,0.00,VWS V14.01,2013-03-04 16:55:00,
2013-03-04 08:56:00,59.5,48.5,30.02,SSE,148,2.0,4.0,67,0.00,,,0.00,VWS V14.01,2013-03-04 16:56:00,
2013-03-04 08:57:00,59.6,49.0,30.02,SSW,200,2.0,3.0,68,0.00,,,0.00,VWS V14.01,2013-03-04 16:57:00,
2013-03-04 08:58:00,59.7,48.7,30.02,SSE,158,1.0,2.0,67,0.00,,,0.00,VWS V14.01,2013-03-04 16:58:00,
2013-03-04 08:59:00,59.7,48.3,30.02,WSW,243,3.0,4.0,66,0.00,,,0.00,VWS V14.01,2013-03-04 16:59:00,
2013-03-04 09:00:00,59.6,48.2,30.02,West,266,1.0,3.0,66,0.00,,,0.00,VWS V14.01,2013-03-04 17:00:00,
2013-03-04 09:01:00,59.6,48.2,30.02,West,266,1.0,3.0,66,0.00,,,0.00,VWS V14.01,2013-03-04 17:01:00,
2013-03-04 09:02:00,59.5,48.2,30.02,West,267,0.0,1.0,66,0.00,,,0.00,VWS V14.01,2013-03-04 17:02:00,
2013-03-04 09:03:00,59.4,48.5,30.02,SW,229,4.0,4.0,67,0.00,,,0.00,VWS V14.01,2013-03-04 17:03:00,
2013-03-04 09:04:00,59.5,48.9,30.02,SSW,201,1.0,4.0,68,0.00,,,0.00,VWS V14.01,2013-03-04 17:04:00,
2013-03-04 09:05:00,59.4,48.8,30.02,West,276,2.0,4.0,68,0.00,,,0.00,VWS V14.01,2013-03-04 17:05:00,
2013-03-04 09:06:00,59.6,49.0,30.02,WSW,244,1.0,2.0,68,0.00,,,0.00,VWS V14.01,2013-03-04 17:06:00,
2013-03-04 09:07:00,59.6,49.0,30.02,SW,214,3.0,3.0,68,0.00,,,0.00,VWS V14.01,2013-03-04 17:07:00,
2013-03-04 09:08:00,60.1,49.1,30.02,West,262,2.0,2.0,67,0.00,,,0.00,VWS V14.01,2013-03-04 17:08:00,
2013-03-04 09:09:00,60.2,49.2,30.02,WSW,250,3.0,3.0,67,0.00,,,0.00,VWS V14.01,2013-03-04 17:09:00,
2013-03-04 09:10:00,60.1,49.1,30.02,West,262,2.0,2.0,67,0.00,,,0.00,VWS V14.01,2013-03-04 17:10:00,
2013-03-04 09:11:00,60.3,48.9,30.02,West,275,1.0,3.0,66,0.00,,,0.00,VWS V14.01,2013-03-04 17:11:00,
2013-03-04 09:12:00,60.5,49.5,30.02,WSW,255,0.0,1.0,67,0.00,,,0.00,VWS V14.01,2013-03-04 17:12:00,
2013-03-04 09:13:00,60.9,49.9,30.02,North,349,2.0,3.0,67,0.00,,,0.00,VWS V14.01,2013-03-04 17:13:00,
2013-03-04 09:14:00,60.9,49.9,30.02,North,349,2.0,3.0,67,0.00,,,0.00,VWS V14.01,2013-03-04 17:14:00,
2013-03-04 09:15:00,61.3,49.9,30.02,West,266,3.0,3.0,66,0.00,,,0.00,VWS V14.01,2013-03-04 17:15:00,
2013-03-04 09:16:00,61.4,49.5,30.02,NW,319,1.0,3.0,65,0.00,,,0.00,VWS V14.01,2013-03-04 17:16:00,
2013-03-04 09:17:00,61.4,49.5,30.02,NW,319,1.0,3.0,65,0.00,,,0.00,VWS V14.01,2013-03-04 17:17:00,
2013-03-04 09:18:00,61.5,49.6,30.02,WSW,246,4.0,4.0,65,0.00,,,0.00,VWS V14.01,2013-03-04 17:18:00,
2013-03-04 09:19:00,61.6,49.7,30.02,SSE,151,1.0,3.0,65,0.00,,,0.00,VWS V14.01,2013-03-04 17:19:00,
2013-03-04 09:20:00,61.7,49.4,30.02,WSW,253,3.0,4.0,64,0.00,,,0.00,VWS V14.01,2013-03-04 17:20:00,
2013-03-04 09:21:00,61.7,49.4,30.02,SW,229,2.0,3.0,64,0.00,,,0.00,VWS V14.01,2013-03-04 17:21:00,
2013-03-04 09:22:00,61.6,48.9,30.02,WSW,243,3.0,8.0,63,0.00,,,0.00,VWS V14.01,2013-03-04 17:22:00,
2013-03-04 09:23:00,61.6,49.3,30.03,ESE,115,2.0,4.0,64,0.00,,,0.00,VWS V14.01,2013-03-04 17:23:00,
2013-03-04 09:24:00,61.6,48.9,30.02,West,276,1.0,4.0,63,0.00,,,0.00,VWS V14.01,2013-03-04 17:24:00,
2013-03-04 09:25:00,61.5,49.2,30.03,SE,127,3.0,4.0,64,0.00,,,0.00,VWS V14.01,2013-03-04 17:25:00,
2013-03-04 09:26:00,61.6,49.3,30.02,South,181,6.0,6.0,64,0.00,,,0.00,VWS V14.01,2013-03-04 17:26:00,
2013-03-04 09:27:00,61.6,49.3,30.02,SSW,207,3.0,6.0,64,0.00,,,0.00,VWS V14.01,2013-03-04 17:27:00,
2013-03-04 09:28:00,61.5,49.2,30.02,SSW,197,3.0,7.0,64,0.00,,,0.00,VWS V14.01,2013-03-04 17:28:00,
2013-03-04 09:29:00,61.5,49.2,30.02,SSW,197,3.0,7.0,64,0.00,,,0.00,VWS V14.01,2013-03-04 17:29:00,
2013-03-04 09:30:00,61.5,49.2,30.02,WSW,241,2.0,3.0,64,0.00,,,0.00,VWS V14.01,2013-03-04 17:30:00,
2013-03-04 09:31:00,61.5,49.2,30.02,West,260,4.0,4.0,64,0.00,,,0.00,VWS V14.01,2013-03-04 17:31:00,
2013-03-04 09:32:00,61.5,49.2,30.02,SW,221,4.0,4.0,64,0.00,,,0.00,VWS V14.01,2013-03-04 17:32:00,
2013-03-04 09:33:00,61.3,49.0,30.02,WSW,239,2.0,5.0,64,0.00,,,0.00,VWS V14.01,2013-03-04 17:33:00,
2013-03-04 09:34:00,61.4,49.5,30.02,West,273,2.0,3.0,65,0.00,,,0.00,VWS V14.01,2013-03-04 17:34:00,
2013-03-04 09:35:00,61.4,49.5,30.02,SE,124,2.0,2.0,65,0.00,,,0.00,VWS V14.01,2013-03-04 17:35:00,
2013-03-04 09:36:00,61.4,49.1,30.02,WSW,240,4.0,5.0,64,0.00,,,0.00,VWS V14.01,2013-03-04 17:36:00,
2013-03-04 09:37:00,61.4,49.1,30.02,WSW,248,3.0,4.0,64,0.00,,,0.00,VWS V14.01,2013-03-04 17:37:00,
2013-03-04 09:38:00,61.2,48.9,30.02,WSW,243,2.0,4.0,64,0.00,,,0.00,VWS V14.01,2013-03-04 17:38:00,
2013-03-04 09:39:00,61.3,49.0,30.02,WSW,245,3.0,4.0,64,0.00,,,0.00,VWS V14.01,2013-03-04 17:39:00,
2013-03-04 09:40:00,61.2,48.9,30.02,West,273,2.0,3.0,64,0.00,,,0.00,VWS V14.01,2013-03-04 17:40:00,
2013-03-04 09:41:00,61.2,49.3,30.02,WSW,258,2.0,2.0,65,0.00,,,0.00,VWS V14.01,2013-03-04 17:41:00,
2013-03-04 09:42:00,61.2,49.3,30.02,WSW,258,2.0,2.0,65,0.00,,,0.00,VWS V14.01,2013-03-04 17:42:00,
2013-03-04 09:43:00,61.3,49.5,30.02,West,274,1.0,2.0,65,0.00,,,0.00,VWS V14.01,2013-03-04 17:43:00,
2013-03-04 09:44:00,61.5,49.6,30.02,SSE,163,2.0,2.0,65,0.00,,,0.00,VWS V14.01,2013-03-04 17:44:00,
2013-03-04 09:45:00,61.5,49.6,30.02,SSE,155,2.0,2.0,65,0.00,,,0.00,VWS V14.01,2013-03-04 17:45:00,
2013-03-04 09:46:00,61.7,49.8,30.02,SW,236,1.0,2.0,65,0.00,,,0.00,VWS V14.01,2013-03-04 17:46:00,
2013-03-04 09:47:00,61.9,49.6,30.02,SW,222,4.0,4.0,64,0.00,,,0.00,VWS V14.01,2013-03-04 17:47:00,
2013-03-04 09:48:00,62.0,49.3,30.02,WSW,255,1.0,4.0,63,0.00,,,0.00,VWS V14.01,2013-03-04 17:48:00,
2013-03-04 09:49:00,62.1,49.8,30.02,SW,224,3.0,3.0,64,0.00,,,0.00,VWS V14.01,2013-03-04 17:49:00,
2013-03-04 09:50:00,62.0,49.7,30.02,SW,231,2.0,2.0,64,0.00,,,0.00,VWS V14.01,2013-03-04 17:50:00,
2013-03-04 09:51:00,62.2,49.9,30.02,West,280,2.0,3.0,64,0.00,,,0.00,VWS V14.01,2013-03-04 17:51:00,
2013-03-04 09:52:00,62.3,50.0,30.02,West,262,5.0,5.0,64,0.00,,,0.00,VWS V14.01,2013-03-04 17:52:00,
2013-03-04 09:53:00,62.3,49.6,30.02,WSW,240,4.0,4.0,63,0.00,,,0.00,VWS V14.01,2013-03-04 17:53:00,
2013-03-04 09:54:00,62.2,49.5,30.02,SW,229,2.0,4.0,63,0.00,,,0.00,VWS V14.01,2013-03-04 17:54:00,
2013-03-04 09:55:00,62.2,49.5,30.02,SSW,210,2.0,4.0,63,0.00,,,0.00,VWS V14.01,2013-03-04 17:55:00,
2013-03-04 09:56:00,62.2,49.5,30.02,SSW,210,2.0,4.0,63,0.00,,,0.00,VWS V14.01,2013-03-04 17:56:00,
2013-03-04 09:57:00,62.3,49.6,30.02,South,169,2.0,3.0,63,0.00,,,0.00,VWS V14.01,2013-03-04 17:57:00,
2013-03-04 09:58:00,62.1,49.4,30.02,WSW,254,6.0,6.0,63,0.00,,,0.00,VWS V14.01,2013-03-04 17:58:00,
2013-03-04 09:59:00,61.9,49.2,30.02,West,281,2.0,6.0,63,0.00,,,0.00,VWS V14.01,2013-03-04 17:59:00,
2013-03-04 10:00:00,61.8,49.1,30.02,West,259,2.0,4.0,63,0.00,,,0.00,VWS V14.01,2013-03-04 18:00:00,
2013-03-04 10:01:00,61.7,49.4,30.02,West,264,2.0,4.0,64,0.00,,,0.00,VWS V14.01,2013-03-04 18:01:00,
2013-03-04 10:02:00,61.7,49.4,30.02,West,264,2.0,4.0,64,0.00,,,0.00,VWS V14.01,2013-03-04 18:02:00,
2013-03-04 10:03:00,61.7,49.4,30.02,SW,229,3.0,3.0,64,0.00,,,0.00,VWS V14.01,2013-03-04 18:03:00,
2013-03-04 10:04:00,61.7,49.4,30.02,SW,229,3.0,3.0,64,0.00,,,0.00,VWS V14.01,2013-03-04 18:04:00,
2013-03-04 10:05:00,61.7,49.0,30.02,SW,221,3.0,9.0,63,0.00,,,0.00,VWS V14.01,2013-03-04 18:05:00,
2013-03-04 10:06:00,61.6,48.9,30.02,West,266,3.0,3.0,63,0.00,,,0.00,VWS V14.01,2013-03-04 18:06:00,
2013-03-04 10:07:00,61.6,48.9,30.02,West,276,3.0,3.0,63,0.00,,,0.00,VWS V14.01,2013-03-04 18:07:00,
2013-03-04 10:08:00,61.5,49.2,30.02,WSW,250,0.0,3.0,64,0.00,,,0.00,VWS V14.01,2013-03-04 18:08:00,
2013-03-04 10:09:00,61.4,49.1,30.02,WSW,245,1.0,2.0,64,0.00,,,0.00,VWS V14.01,2013-03-04 18:09:00,
2013-03-04 10:10:00,61.5,49.6,30.02,SSE,158,3.0,3.0,65,0.00,,,0.00,VWS V14.01,2013-03-04 18:10:00,
2013-03-04 10:11:00,61.6,49.7,30.02,SE,136,3.0,4.0,65,0.00,,,0.00,VWS V14.01,2013-03-04 18:11:00,
2013-03-04 10:12:00,61.8,49.9,30.02,SW,215,5.0,5.0,65,0.00,,,0.00,VWS V14.01,2013-03-04 18:12:00,
2013-03-04 10:13:00,61.7,49.8,30.02,SW,215,4.0,5.0,65,0.00,,,0.00,VWS V14.01,2013-03-04 18:13:00,
2013-03-04 10:14:00,61.8,49.5,30.02,WSW,246,3.0,5.0,64,0.00,,,0.00,VWS V14.01,2013-03-04 18:14:00,
2013-03-04 10:15:00,61.8,49.5,30.02,North,356,2.0,5.0,64,0.00,,,0.00,VWS V14.01,2013-03-04 18:15:00,
2013-03-04 10:16:00,61.8,49.5,30.02,South,176,1.0,3.0,64,0.00,,,0.00,VWS V14.01,2013-03-04 18:16:00,
2013-03-04 10:17:00,61.8,49.5,30.02,SE,131,2.0,3.0,64,0.00,,,0.00,VWS V14.01,2013-03-04 18:17:00,
2013-03-04 10:18:00,61.9,49.6,30.02,South,191,0.0,4.0,64,0.00,,,0.00,VWS V14.01,2013-03-04 18:18:00,
2013-03-04 10:19:00,62.1,49.8,30.02,ESE,114,4.0,6.0,64,0.00,,,0.00,VWS V14.01,2013-03-04 18:19:00,
2013-03-04 10:20:00,62.1,49.8,30.02,ESE,114,4.0,6.0,64,0.00,,,0.00,VWS V14.01,2013-03-04 18:20:00,
2013-03-04 10:21:00,62.1,49.4,30.02,SSE,156,5.0,5.0,63,0.00,,,0.00,VWS V14.01,2013-03-04 18:21:00,
2013-03-04 10:22:00,62.0,49.7,30.02,SW,236,2.0,4.0,64,0.00,,,0.00,VWS V14.01,2013-03-04 18:22:00,
2013-03-04 10:23:00,62.2,49.9,30.02,SSE,167,2.0,5.0,64,0.00,,,0.00,VWS V14.01,2013-03-04 18:23:00,
2013-03-04 10:24:00,62.3,50.0,30.02,WSW,250,2.0,3.0,64,0.00,,,0.00,VWS V14.01,2013-03-04 18:24:00,
2013-03-04 10:25:00,62.6,50.3,30.02,WSW,239,2.0,2.0,64,0.00,,,0.00,VWS V14.01,2013-03-04 18:25:00,
2013-03-04 10:26:00,62.5,50.2,30.02,WSW,239,2.0,2.0,64,0.00,,,0.00,VWS V14.01,2013-03-04 18:26:00,
2013-03-04 10:27:00,62.8,50.5,30.02,SSE,149,3.0,4.0,64,0.00,,,0.00,VWS V14.01,2013-03-04 18:27:00,
2013-03-04 10:28:00,63.1,49.9,30.02,SE,140,1.0,2.0,62,0.00,,,0.00,VWS V14.01,2013-03-04 18:28:00,
2013-03-04 10:29:00,63.1,49.9,30.02,SE,140,1.0,2.0,62,0.00,,,0.00,VWS V14.01,2013-03-04 18:29:00,
2013-03-04 10:30:00,63.2,50.0,30.02,East,96,2.0,2.0,62,0.00,,,0.00,VWS V14.01,2013-03-04 18:30:00,
2013-03-04 10:31:00,63.2,49.5,30.02,NE,49,2.0,2.0,61,0.00,,,0.00,VWS V14.01,2013-03-04 18:31:00,
2013-03-04 10:32:00,63.2,49.5,30.02,ENE,75,0.0,2.0,61,0.00,,,0.00,VWS V14.01,2013-03-04 18:32:00,
2013-03-04 10:33:00,63.2,50.0,30.02,WSW,256,1.0,1.0,62,0.00,,,0.00,VWS V14.01,2013-03-04 18:33:00,
2013-03-04 10:34:00,63.3,50.1,30.02,SE,142,1.0,1.0,62,0.00,,,0.00,VWS V14.01,2013-03-04 18:34:00,
2013-03-04 10:35:00,63.3,50.1,30.02,SE,142,1.0,1.0,62,0.00,,,0.00,VWS V14.01,2013-03-04 18:35:00,
2013-03-04 10:36:00,63.5,50.3,30.02,NNE,25,2.0,3.0,62,0.00,,,0.00,VWS V14.01,2013-03-04 18:36:00,
2013-03-04 10:37:00,63.8,50.1,30.02,NW,324,2.0,4.0,61,0.00,,,0.00,VWS V14.01,2013-03-04 18:37:00,
2013-03-04 10:38:00,63.8,49.7,30.02,SW,233,1.0,4.0,60,0.00,,,0.00,VWS V14.01,2013-03-04 18:38:00,
2013-03-04 10:39:00,63.6,49.5,30.02,WSW,246,1.0,2.0,60,0.00,,,0.00,VWS V14.01,2013-03-04 18:39:00,
2013-03-04 10:40:00,63.6,49.5,30.02,WSW,246,1.0,2.0,60,0.00,,,0.00,VWS V14.01,2013-03-04 18:40:00,
2013-03-04 10:41:00,63.3,50.1,30.02,SSW,206,4.0,9.0,62,0.00,,,0.00,VWS V14.01,2013-03-04 18:41:00,
2013-03-04 10:42:00,63.3,50.1,30.02,SW,217,4.0,4.0,62,0.00,,,0.00,VWS V14.01,2013-03-04 18:42:00,
2013-03-04 10:43:00,62.6,50.3,30.02,West,259,6.0,7.0,64,0.00,,,0.00,VWS V14.01,2013-03-04 18:43:00,
2013-03-04 10:44:00,62.3,50.4,30.02,SW,236,4.0,8.0,65,0.00,,,0.00,VWS V14.01,2013-03-04 18:44:00,
2013-03-04 10:45:00,62.3,50.4,30.02,SW,236,4.0,8.0,65,0.00,,,0.00,VWS V14.01,2013-03-04 18:45:00,
2013-03-04 10:46:00,62.1,50.6,30.02,SW,236,7.0,7.0,66,0.00,,,0.00,VWS V14.01,2013-03-04 18:46:00,
2013-03-04 10:47:00,62.1,50.6,30.02,West,267,7.0,8.0,66,0.00,,,0.00,VWS V14.01,2013-03-04 18:47:00,
2013-03-04 10:48:00,62.0,50.9,30.02,WSW,246,7.0,8.0,67,0.00,,,0.00,VWS V14.01,2013-03-04 18:48:00,
2013-03-04 10:49:00,61.9,50.8,30.02,WSW,256,6.0,11.0,67,0.00,,,0.00,VWS V14.01,2013-03-04 18:49:00,
2013-03-04 10:50:00,61.8,51.1,30.02,West,269,8.0,8.0,68,0.00,,,0.00,VWS V14.01,2013-03-04 18:50:00,
2013-03-04 10:51:00,61.8,51.1,30.02,West,269,8.0,8.0,68,0.00,,,0.00,VWS V14.01,2013-03-04 18:51:00,
2013-03-04 10:52:00,61.6,50.5,30.02,WSW,250,5.0,7.0,67,0.00,,,0.00,VWS V14.01,2013-03-04 18:52:00,
2013-03-04 10:53:00,61.6,50.5,30.02,West,274,4.0,5.0,67,0.00,,,0.00,VWS V14.01,2013-03-04 18:53:00,
2013-03-04 10:54:00,61.4,50.8,30.02,West,279,4.0,6.0,68,0.00,,,0.00,VWS V14.01,2013-03-04 18:54:00,
2013-03-04 10:55:00,61.4,50.8,30.02,West,270,5.0,8.0,68,0.00,,,0.00,VWS V14.01,2013-03-04 18:55:00,
2013-03-04 10:56:00,61.3,50.7,30.02,NW,308,2.0,7.0,68,0.00,,,0.00,VWS V14.01,2013-03-04 18:56:00,
2013-03-04 10:57:00,61.3,50.7,30.02,NW,308,2.0,7.0,68,0.00,,,0.00,VWS V14.01,2013-03-04 18:57:00,
2013-03-04 10:58:00,61.3,51.1,30.01,West,272,7.0,8.0,69,0.00,,,0.00,VWS V14.01,2013-03-04 18:58:00,
2013-03-04 10:59:00,61.2,50.6,30.02,West,273,4.0,8.0,68,0.00,,,0.00,VWS V14.01,2013-03-04 18:59:00,
2013-03-04 11:00:00,61.2,50.6,30.01,West,261,4.0,7.0,68,0.00,,,0.00,VWS V14.01,2013-03-04 19:00:00,
2013-03-04 11:01:00,61.2,50.6,30.01,West,261,4.0,7.0,68,0.00,,,0.00,VWS V14.01,2013-03-04 19:01:00,
2013-03-04 11:02:00,61.3,50.7,30.01,WNW,288,1.0,5.0,68,0.00,,,0.00,VWS V14.01,2013-03-04 19:02:00,
2013-03-04 11:03:00,61.3,50.7,30.01,WNW,288,1.0,5.0,68,0.00,,,0.00,VWS V14.01,2013-03-04 19:03:00,
2013-03-04 11:04:00,61.6,51.0,30.01,WSW,252,4.0,5.0,68,0.00,,,0.00,VWS V14.01,2013-03-04 19:04:00,
2013-03-04 11:05:00,61.8,51.1,30.01,SW,221,6.0,8.0,68,0.00,,,0.00,VWS V14.01,2013-03-04 19:05:00,
2013-03-04 11:06:00,61.8,51.1,30.01,SW,222,6.0,6.0,68,0.00,,,0.00,VWS V14.01,2013-03-04 19:06:00,
2013-03-04 11:07:00,61.8,50.7,30.01,SSW,203,3.0,5.0,67,0.00,,,0.00,VWS V14.01,2013-03-04 19:07:00,
2013-03-04 11:08:00,61.9,51.2,30.01,WSW,257,3.0,5.0,68,0.00,,,0.00,VWS V14.01,2013-03-04 19:08:00,
2013-03-04 11:09:00,61.9,51.2,30.01,WSW,256,4.0,4.0,68,0.00,,,0.00,VWS V14.01,2013-03-04 19:09:00,
2013-03-04 11:10:00,62.1,51.8,30.01,WSW,250,7.0,7.0,69,0.00,,,0.00,VWS V14.01,2013-03-04 19:10:00,
2013-03-04 11:11:00,62.3,51.6,30.01,West,269,2.0,7.0,68,0.00,,,0.00,VWS V14.01,2013-03-04 19:11:00,
2013-03-04 11:12:00,62.6,51.9,30.01,West,277,7.0,9.0,68,0.00,,,0.00,VWS V14.01,2013-03-04 19:12:00,
2013-03-04 11:13:00,62.7,51.6,30.01,West,261,4.0,5.0,67,0.00,,,0.00,VWS V14.01,2013-03-04 19:13:00,
2013-03-04 11:14:00,62.7,51.6,30.01,West,263,5.0,5.0,67,0.00,,,0.00,VWS V14.01,2013-03-04 19:14:00,
2013-03-04 11:15:00,62.8,52.1,30.01,West,266,4.0,5.0,68,0.00,,,0.00,VWS V14.01,2013-03-04 19:15:00,
2013-03-04 11:16:00,62.8,52.1,30.01,West,266,4.0,5.0,68,0.00,,,0.00,VWS V14.01,2013-03-04 19:16:00,
2013-03-04 11:17:00,63.1,52.4,30.01,SW,235,5.0,5.0,68,0.00,,,0.00,VWS V14.01,2013-03-04 19:17:00,
2013-03-04 11:18:00,63.6,52.5,30.01,NW,318,3.0,3.0,67,0.00,,,0.00,VWS V14.01,2013-03-04 19:18:00,
2013-03-04 11:19:00,63.9,52.3,30.01,WNW,284,4.0,7.0,66,0.00,,,0.00,VWS V14.01,2013-03-04 19:19:00,
2013-03-04 11:20:00,63.9,52.3,30.01,WNW,284,4.0,7.0,66,0.00,,,0.00,VWS V14.01,2013-03-04 19:20:00,
2013-03-04 11:21:00,63.9,51.5,30.01,WSW,243,3.0,5.0,64,0.00,,,0.00,VWS V14.01,2013-03-04 19:21:00,
2013-03-04 11:22:00,63.9,51.9,30.01,West,278,2.0,2.0,65,0.00,,,0.00,VWS V14.01,2013-03-04 19:22:00,
2013-03-04 11:23:00,64.0,52.0,30.01,West,260,7.0,7.0,65,0.00,,,0.00,VWS V14.01,2013-03-04 19:23:00,
2013-03-04 11:24:00,64.1,52.1,30.01,West,264,2.0,5.0,65,0.00,,,0.00,VWS V14.01,2013-03-04 19:24:00,
2013-03-04 11:25:00,64.1,52.1,30.01,West,264,2.0,5.0,65,0.00,,,0.00,VWS V14.01,2013-03-04 19:25:00,
2013-03-04 11:26:00,64.2,52.2,30.01,West,278,6.0,6.0,65,0.00,,,0.00,VWS V14.01,2013-03-04 19:26:00,
2013-03-04 11:27:00,64.3,52.3,30.01,West,260,4.0,4.0,65,0.00,,,0.00,VWS V14.01,2013-03-04 19:27:00,
2013-03-04 11:28:00,64.1,51.7,30.01,WSW,250,3.0,6.0,64,0.00,,,0.00,VWS V14.01,2013-03-04 19:28:00,
2013-03-04 11:29:00,64.0,51.6,30.01,SSW,210,0.0,4.0,64,0.00,,,0.00,VWS V14.01,2013-03-04 19:29:00,
2013-03-04 11:30:00,64.0,51.6,30.01,SSW,210,0.0,4.0,64,0.00,,,0.00,VWS V14.01,2013-03-04 19:30:00,
2013-03-04 11:31:00,64.0,52.0,30.01,West,261,1.0,4.0,65,0.00,,,0.00,VWS V14.01,2013-03-04 19:31:00,
2013-03-04 11:32:00,64.0,52.0,30.01,NNE,28,2.0,2.0,65,0.00,,,0.00,VWS V14.01,2013-03-04 19:32:00,
2013-03-04 11:33:00,64.0,51.6,30.00,NNE,27,0.0,2.0,64,0.00,,,0.00,VWS V14.01,2013-03-04 19:33:00,
2013-03-04 11:34:00,64.2,51.8,30.01,South,185,3.0,4.0,64,0.00,,,0.00,VWS V14.01,2013-03-04 19:34:00,
2013-03-04 11:35:00,64.2,51.8,30.01,South,185,3.0,4.0,64,0.00,,,0.00,VWS V14.01,2013-03-04 19:35:00,
2013-03-04 11:36:00,64.2,51.8,30.01,SSW,199,6.0,7.0,64,0.00,,,0.00,VWS V14.01,2013-03-04 19:36:00,
2013-03-04 11:37:00,64.2,51.8,30.01,SW,234,5.0,6.0,64,0.00,,,0.00,VWS V14.01,2013-03-04 19:37:00,
2013-03-04 11:38:00,64.1,51.3,30.01,West,267,6.0,8.0,63,0.00,,,0.00,VWS V14.01,2013-03-04 19:38:00,
2013-03-04 11:39:00,64.0,51.2,30.00,SW,221,2.0,6.0,63,0.00,,,0.00,VWS V14.01,2013-03-04 19:39:00,
2013-03-04 11:40:00,63.8,51.0,30.00,SW,225,4.0,4.0,63,0.00,,,0.00,VWS V14.01,2013-03-04 19:40:00,
2013-03-04 11:42:00,63.7,51.3,30.00,WSW,256,0.0,4.0,64,0.00,,,0.00,VWS V14.01,2013-03-04 19:42:00,
2013-03-04 11:43:00,63.9,51.9,30.00,SE,125,2.0,2.0,65,0.00,,,0.00,VWS V14.01,2013-03-04 19:43:00,
2013-03-04 11:44:00,63.9,51.9,30.00,ESE,111,2.0,2.0,65,0.00,,,0.00,VWS V14.01,2013-03-04 19:44:00,
2013-03-04 11:45:00,64.2,51.8,30.00,SW,226,2.0,3.0,64,0.00,,,0.00,VWS V14.01,2013-03-04 19:45:00,
2013-03-04 11:46:00,64.2,51.8,30.00,SW,226,2.0,3.0,64,0.00,,,0.00,VWS V14.01,2013-03-04 19:46:00,
2013-03-04 11:47:00,64.3,51.9,30.00,WNW,288,2.0,2.0,64,0.00,,,0.00,VWS V14.01,2013-03-04 19:47:00,
2013-03-04 11:48:00,64.5,52.1,30.00,East,101,4.0,4.0,64,0.00,,,0.00,VWS V14.01,2013-03-04 19:48:00,
2013-03-04 11:50:00,64.4,51.1,30.00,East,101,1.0,5.0,62,0.00,,,0.00,VWS V14.01,2013-03-04 19:50:00,
2013-03-04 11:51:00,64.5,51.2,30.00,East,85,3.0,5.0,62,0.00,,,0.00,VWS V14.01,2013-03-04 19:51:00,
2013-03-04 11:52:00,64.4,51.5,30.00,SSW,212,0.0,2.0,63,0.00,,,0.00,VWS V14.01,2013-03-04 19:52:00,
2013-03-04 11:53:00,64.5,52.1,30.00,SSE,150,2.0,3.0,64,0.00,,,0.00,VWS V14.01,2013-03-04 19:53:00,
2013-03-04 11:54:00,64.9,52.0,30.00,SW,232,4.0,4.0,63,0.00,,,0.00,VWS V14.01,2013-03-04 19:54:00,
2013-03-04 11:55:00,64.8,51.9,30.00,SW,227,2.0,3.0,63,0.00,,,0.00,VWS V14.01,2013-03-04 19:55:00,
2013-03-04 11:56:00,65.0,52.1,30.00,SE,139,1.0,4.0,63,0.00,,,0.00,VWS V14.01,2013-03-04 19:56:00,
2013-03-04 11:57:00,65.3,51.5,30.00,SSW,197,6.0,6.0,61,0.00,,,0.00,VWS V14.01,2013-03-04 19:57:00,
2013-03-04 11:58:00,65.2,51.9,30.00,West,261,5.0,8.0,62,0.00,,,0.00,VWS V14.01,2013-03-04 19:58:00,
2013-03-04 11:59:00,65.1,51.8,30.00,West,265,6.0,6.0,62,0.00,,,0.00,VWS V14.01,2013-03-04 19:59:00,
2013-03-04 12:00:00,65.0,51.7,30.00,WSW,248,5.0,6.0,62,0.00,,,0.00,VWS V14.01,2013-03-04 20:00:00,
2013-03-04 12:01:00,65.0,51.7,30.00,West,260,4.0,6.0,62,0.00,,,0.00,VWS V14.01,2013-03-04 20:01:00,
2013-03-04 12:02:00,64.9,51.6,30.00,SW,219,4.0,6.0,62,0.00,,,0.00,VWS V14.01,2013-03-04 20:02:00,
2013-03-04 12:03:00,64.8,51.9,30.00,WNW,293,5.0,5.0,63,0.00,,,0.00,VWS V14.01,2013-03-04 20:03:00,
2013-03-04 12:06:00,64.5,51.6,30.00,SSW,210,2.0,4.0,63,0.00,,,0.00,VWS V14.01,2013-03-04 20:06:00,
2013-03-04 12:07:00,64.4,51.5,30.00,SSW,207,2.0,5.0,63,0.00,,,0.00,VWS V14.01,2013-03-04 20:07:00,
2013-03-04 12:08:00,64.4,51.5,30.00,SSW,193,3.0,5.0,63,0.00,,,0.00,VWS V14.01,2013-03-04 20:08:00,
2013-03-04 12:09:00,64.4,51.5,30.00,South,176,4.0,4.0,63,0.00,,,0.00,VWS V14.01,2013-03-04 20:09:00,
2013-03-04 12:10:00,64.4,51.5,30.00,ESE,108,3.0,4.0,63,0.00,,,0.00,VWS V14.01,2013-03-04 20:10:00,
2013-03-04 12:11:00,64.4,51.5,30.00,SE,134,3.0,4.0,63,0.00,,,0.00,VWS V14.01,2013-03-04 20:11:00,
2013-03-04 12:13:00,64.7,52.3,30.00,SSE,150,3.0,4.0,64,0.00,,,0.00,VWS V14.01,2013-03-04 20:13:00,
2013-03-04 12:15:00,64.8,51.9,30.00,SSE,155,4.0,7.0,63,0.00,,,0.00,VWS V14.01,2013-03-04 20:15:00,
2013-03-04 12:16:00,65.0,52.1,30.00,South,175,3.0,5.0,63,0.00,,,0.00,VWS V14.01,2013-03-04 20:16:00,
2013-03-04 12:17:00,65.0,52.1,30.00,South,175,3.0,5.0,63,0.00,,,0.00,VWS V14.01,2013-03-04 20:17:00,
2013-03-04 12:18:00,65.0,51.7,30.00,ESE,113,5.0,8.0,62,0.00,,,0.00,VWS V14.01,2013-03-04 20:18:00,
2013-03-04 12:19:00,64.9,51.6,30.00,SW,218,6.0,6.0,62,0.00,,,0.00,VWS V14.01,2013-03-04 20:19:00,
2013-03-04 12:20:00,64.6,51.7,30.00,West,267,3.0,7.0,63,0.00,,,0.00,VWS V14.01,2013-03-04 20:20:00,
2013-03-04 12:22:00,64.6,51.7,30.00,SW,217,1.0,3.0,63,0.00,,,0.00,VWS V14.01,2013-03-04 20:22:00,
2013-03-04 12:23:00,64.7,52.3,30.00,SW,218,4.0,5.0,64,0.00,,,0.00,VWS V14.01,2013-03-04 20:23:00,
2013-03-04 12:24:00,64.7,51.8,30.00,West,269,6.0,6.0,63,0.00,,,0.00,VWS V14.01,2013-03-04 20:24:00,
2013-03-04 12:25:00,64.7,51.8,30.00,WSW,256,5.0,6.0,63,0.00,,,0.00,VWS V14.01,2013-03-04 20:25:00,
2013-03-04 12:26:00,64.5,51.6,30.00,West,270,8.0,8.0,63,0.00,,,0.00,VWS V14.01,2013-03-04 20:26:00,
2013-03-04 12:27:00,64.5,51.6,30.00,West,270,8.0,8.0,63,0.00,,,0.00,VWS V14.01,2013-03-04 20:27:00,
2013-03-04 12:28:00,64.3,51.5,30.00,WSW,248,7.0,8.0,63,0.00,,,0.00,VWS V14.01,2013-03-04 20:28:00,
2013-03-04 12:30:00,64.0,52.0,30.00,West,276,4.0,4.0,65,0.00,,,0.00,VWS V14.01,2013-03-04 20:30:00,
2013-03-04 12:31:00,64.1,52.1,30.00,SW,218,2.0,5.0,65,0.00,,,0.00,VWS V14.01,2013-03-04 20:31:00,
2013-03-04 12:32:00,64.1,52.1,30.00,SW,218,2.0,5.0,65,0.00,,,0.00,VWS V14.01,2013-03-04 20:32:00,
2013-03-04 12:33:00,64.2,52.2,30.00,SSW,205,5.0,5.0,65,0.00,,,0.00,VWS V14.01,2013-03-04 20:33:00,
2013-03-04 12:34:00,64.2,52.2,30.00,South,185,4.0,5.0,65,0.00,,,0.00,VWS V14.01,2013-03-04 20:34:00,
2013-03-04 12:35:00,64.3,51.9,30.00,SSW,195,3.0,4.0,64,0.00,,,0.00,VWS V14.01,2013-03-04 20:35:00,
2013-03-04 12:36:00,64.4,52.4,30.00,SE,128,2.0,3.0,65,0.00,,,0.00,VWS V14.01,2013-03-04 20:36:00,
2013-03-04 12:37:00,64.4,52.4,30.00,SE,128,2.0,3.0,65,0.00,,,0.00,VWS V14.01,2013-03-04 20:37:00,
2013-03-04 12:38:00,64.7,52.7,29.99,SSW,195,2.0,3.0,65,0.00,,,0.00,VWS V14.01,2013-03-04 20:38:00,
2013-03-04 12:39:00,64.7,52.7,29.99,SW,215,2.0,3.0,65,0.00,,,0.00,VWS V14.01,2013-03-04 20:39:00,
2013-03-04 12:40:00,65.2,52.7,29.99,SSW,207,7.0,7.0,64,0.00,,,0.00,VWS V14.01,2013-03-04 20:40:00,
2013-03-04 12:41:00,65.1,52.6,29.99,South,185,6.0,6.0,64,0.00,,,0.00,VWS V14.01,2013-03-04 20:41:00,
2013-03-04 12:42:00,65.1,52.2,29.99,SSW,205,5.0,9.0,63,0.00,,,0.00,VWS V14.01,2013-03-04 20:42:00,
2013-03-04 12:43:00,65.2,52.3,29.99,SSW,197,8.0,8.0,63,0.00,,,0.00,VWS V14.01,2013-03-04 20:43:00,
2013-03-04 12:44:00,65.0,52.1,29.99,WSW,249,5.0,9.0,63,0.00,,,0.00,VWS V14.01,2013-03-04 20:44:00,
2013-03-04 12:45:00,64.6,51.7,29.99,SW,221,5.0,6.0,63,0.00,,,0.00,VWS V14.01,2013-03-04 20:45:00,
2013-03-04 12:46:00,64.6,51.7,29.99,WSW,242,5.0,6.0,63,0.00,,,0.00,VWS V14.01,2013-03-04 20:46:00,
2013-03-04 12:47:00,64.6,52.2,29.99,SSW,203,6.0,7.0,64,0.00,,,0.00,VWS V14.01,2013-03-04 20:47:00,
2013-03-04 12:48:00,64.6,52.2,29.99,SSE,155,3.0,6.0,64,0.00,,,0.00,VWS V14.01,2013-03-04 20:48:00,
2013-03-04 12:49:00,64.6,52.2,29.99,SSE,155,3.0,6.0,64,0.00,,,0.00,VWS V14.01,2013-03-04 20:49:00,
2013-03-04 12:50:00,64.6,52.2,29.99,WSW,239,4.0,4.0,64,0.00,,,0.00,VWS V14.01,2013-03-04 20:50:00,
2013-03-04 12:51:00,64.7,52.3,29.99,SSW,203,4.0,5.0,64,0.00,,,0.00,VWS V14.01,2013-03-04 20:51:00,
2013-03-04 12:52:00,64.7,52.3,29.99,WSW,255,4.0,4.0,64,0.00,,,0.00,VWS V14.01,2013-03-04 20:52:00,
2013-03-04 12:53:00,64.6,51.7,29.99,SSW,203,4.0,5.0,63,0.00,,,0.00,VWS V14.01,2013-03-04 20:53:00,
2013-03-04 12:54:00,64.6,51.7,29.99,SSW,203,4.0,5.0,63,0.00,,,0.00,VWS V14.01,2013-03-04 20:54:00,
2013-03-04 12:55:00,64.6,52.2,29.99,SSW,211,3.0,4.0,64,0.00,,,0.00,VWS V14.01,2013-03-04 20:55:00,
2013-03-04 12:56:00,64.6,52.2,29.99,South,185,4.0,6.0,64,0.00,,,0.00,VWS V14.01,2013-03-04 20:56:00,
2013-03-04 12:57:00,64.6,52.2,29.99,SSW,213,5.0,5.0,64,0.00,,,0.00,VWS V14.01,2013-03-04 20:57:00,
2013-03-04 12:58:00,64.5,52.1,29.99,ESE,111,5.0,7.0,64,0.00,,,0.00,VWS V14.01,2013-03-04 20:58:00,
2013-03-04 12:59:00,64.5,52.1,29.99,WSW,252,4.0,6.0,64,0.00,,,0.00,VWS V14.01,2013-03-04 20:59:00,
2013-03-04 13:00:00,64.5,52.1,29.99,WSW,252,4.0,6.0,64,0.00,,,0.00,VWS V14.01,2013-03-04 21:00:00,
2013-03-04 13:01:00,64.5,52.1,29.98,WSW,241,3.0,6.0,64,0.00,,,0.00,VWS V14.01,2013-03-04 21:01:00,
2013-03-04 13:02:00,64.7,52.3,29.98,WSW,252,2.0,6.0,64,0.00,,,0.00,VWS V14.01,2013-03-04 21:02:00,
2013-03-04 13:03:00,64.7,52.3,29.98,SE,131,2.0,2.0,64,0.00,,,0.00,VWS V14.01,2013-03-04 21:03:00,
2013-03-04 13:04:00,64.7,52.3,29.98,SSW,200,5.0,9.0,64,0.00,,,0.00,VWS V14.01,2013-03-04 21:04:00,
2013-03-04 13:05:00,64.7,52.3,29.98,SSW,200,5.0,9.0,64,0.00,,,0.00,VWS V14.01,2013-03-04 21:05:00,
2013-03-04 13:06:00,64.5,52.1,29.98,SW,236,4.0,6.0,64,0.00,,,0.00,VWS V14.01,2013-03-04 21:06:00,
2013-03-04 13:07:00,64.5,52.1,29.98,SW,236,4.0,6.0,64,0.00,,,0.00,VWS V14.01,2013-03-04 21:07:00,
2013-03-04 13:08:00,64.3,51.9,29.98,West,270,2.0,5.0,64,0.00,,,0.00,VWS V14.01,2013-03-04 21:08:00,
2013-03-04 13:09:00,64.1,52.1,29.98,SSW,207,5.0,8.0,65,0.00,,,0.00,VWS V14.01,2013-03-04 21:09:00,
2013-03-04 13:10:00,64.1,51.7,29.98,WSW,240,3.0,8.0,64,0.00,,,0.00,VWS V14.01,2013-03-04 21:10:00,
2013-03-04 13:11:00,64.1,51.7,29.98,WSW,240,3.0,8.0,64,0.00,,,0.00,VWS V14.01,2013-03-04 21:11:00,
2013-03-04 13:12:00,64.0,51.6,29.98,WSW,239,4.0,4.0,64,0.00,,,0.00,VWS V14.01,2013-03-04 21:12:00,
2013-03-04 13:13:00,64.0,52.0,29.98,SW,220,0.0,4.0,65,0.00,,,0.00,VWS V14.01,2013-03-04 21:13:00,
2013-03-04 13:14:00,64.1,52.1,29.98,SW,225,6.0,8.0,65,0.00,,,0.00,VWS V14.01,2013-03-04 21:14:00,
2013-03-04 13:15:00,64.1,52.1,29.98,SW,235,4.0,6.0,65,0.00,,,0.00,VWS V14.01,2013-03-04 21:15:00,
2013-03-04 13:16:00,64.0,52.0,29.98,West,274,2.0,6.0,65,0.00,,,0.00,VWS V14.01,2013-03-04 21:16:00,
2013-03-04 13:17:00,64.1,52.1,29.98,West,273,2.0,3.0,65,0.00,,,0.00,VWS V14.01,2013-03-04 21:17:00,
2013-03-04 13:18:00,64.3,52.3,29.98,South,183,2.0,3.0,65,0.00,,,0.00,VWS V14.01,2013-03-04 21:18:00,
2013-03-04 13:19:00,64.3,52.3,29.98,South,183,2.0,3.0,65,0.00,,,0.00,VWS V14.01,2013-03-04 21:19:00,
2013-03-04 13:20:00,64.7,52.3,29.97,SSW,211,2.0,5.0,64,0.00,,,0.00,VWS V14.01,2013-03-04 21:20:00,
2013-03-04 13:21:00,64.8,52.3,29.97,SW,217,4.0,9.0,64,0.00,,,0.00,VWS V14.01,2013-03-04 21:21:00,
2013-03-04 13:22:00,65.0,52.5,29.97,West,273,3.0,4.0,64,0.00,,,0.00,VWS V14.01,2013-03-04 21:22:00,
2013-03-04 13:23:00,65.0,52.5,29.97,SW,231,3.0,3.0,64,0.00,,,0.00,VWS V14.01,2013-03-04 21:23:00,
2013-03-04 13:24:00,65.1,52.2,29.97,SW,221,4.0,6.0,63,0.00,,,0.00,VWS V14.01,2013-03-04 21:24:00,
2013-03-04 13:25:00,65.1,52.2,29.97,South,174,3.0,4.0,63,0.00,,,0.00,VWS V14.01,2013-03-04 21:25:00,
2013-03-04 13:26:00,65.2,52.7,29.97,SSW,204,4.0,5.0,64,0.00,,,0.00,VWS V14.01,2013-03-04 21:26:00,
2013-03-04 13:27:00,65.4,52.5,29.97,SE,135,3.0,5.0,63,0.00,,,0.00,VWS V14.01,2013-03-04 21:27:00,
2013-03-04 13:28:00,65.4,52.5,29.97,SE,124,5.0,5.0,63,0.00,,,0.00,VWS V14.01,2013-03-04 21:28:00,
2013-03-04 13:29:00,65.4,52.5,29.97,SE,124,5.0,5.0,63,0.00,,,0.00,VWS V14.01,2013-03-04 21:29:00,
2013-03-04 13:30:00,65.4,52.5,29.97,SE,136,3.0,6.0,63,0.00,,,0.00,VWS V14.01,2013-03-04 21:30:00,
2013-03-04 13:31:00,65.4,52.5,29.97,SE,127,4.0,4.0,63,0.00,,,0.00,VWS V14.01,2013-03-04 21:31:00,
2013-03-04 13:32:00,65.5,52.6,29.97,SSE,166,4.0,7.0,63,0.00,,,0.00,VWS V14.01,2013-03-04 21:32:00,
2013-03-04 13:34:00,65.2,51.9,29.97,SE,139,1.0,4.0,62,0.00,,,0.00,VWS V14.01,2013-03-04 21:34:00,
2013-03-04 13:35:00,65.2,51.9,29.97,SE,139,1.0,4.0,62,0.00,,,0.00,VWS V14.01,2013-03-04 21:35:00,
2013-03-04 13:36:00,65.2,52.7,29.97,WSW,258,2.0,3.0,64,0.00,,,0.00,VWS V14.01,2013-03-04 21:36:00,
2013-03-04 13:37:00,65.6,53.1,29.97,WSW,244,4.0,5.0,64,0.00,,,0.00,VWS V14.01,2013-03-04 21:37:00,
2013-03-04 13:38:00,65.6,53.1,29.97,WSW,244,4.0,5.0,64,0.00,,,0.00,VWS V14.01,2013-03-04 21:38:00,
2013-03-04 13:39:00,66.0,53.1,29.97,West,277,1.0,3.0,63,0.00,,,0.00,VWS V14.01,2013-03-04 21:39:00,
2013-03-04 13:40:00,66.2,52.8,29.97,West,277,2.0,5.0,62,0.00,,,0.00,VWS V14.01,2013-03-04 21:40:00,
2013-03-04 13:41:00,66.2,52.8,29.97,West,277,2.0,5.0,62,0.00,,,0.00,VWS V14.01,2013-03-04 21:41:00,
2013-03-04 13:42:00,66.4,53.0,29.97,West,276,3.0,5.0,62,0.00,,,0.00,VWS V14.01,2013-03-04 21:42:00,
2013-03-04 13:43:00,66.4,53.0,29.97,West,276,3.0,5.0,62,0.00,,,0.00,VWS V14.01,2013-03-04 21:43:00,
2013-03-04 13:44:00,66.4,52.6,29.97,SW,215,2.0,2.0,61,0.00,,,0.00,VWS V14.01,2013-03-04 21:44:00,
2013-03-04 13:45:00,66.4,53.0,29.97,NNE,20,1.0,2.0,62,0.00,,,0.00,VWS V14.01,2013-03-04 21:45:00,
2013-03-04 13:46:00,66.5,52.7,29.97,ENE,70,0.0,1.0,61,0.00,,,0.00,VWS V14.01,2013-03-04 21:46:00,
2013-03-04 13:47:00,66.4,52.6,29.97,ENE,72,1.0,1.0,61,0.00,,,0.00,VWS V14.01,2013-03-04 21:47:00,
2013-03-04 13:48:00,66.5,52.7,29.97,NNE,30,1.0,4.0,61,0.00,,,0.00,VWS V14.01,2013-03-04 21:48:00,
2013-03-04 13:49:00,66.5,52.7,29.97,WSW,243,2.0,2.0,61,0.00,,,0.00,VWS V14.01,2013-03-04 21:49:00,
2013-03-04 13:50:00,66.5,52.7,29.97,WSW,254,1.0,3.0,61,0.00,,,0.00,VWS V14.01,2013-03-04 21:50:00,
2013-03-04 13:51:00,66.5,52.7,29.97,South,172,2.0,2.0,61,0.00,,,0.00,VWS V14.01,2013-03-04 21:51:00,
2013-03-04 13:52:00,66.4,52.6,29.97,SSW,205,1.0,1.0,61,0.00,,,0.00,VWS V14.01,2013-03-04 21:52:00,
2013-03-04 13:53:00,66.5,52.7,29.97,South,184,3.0,3.0,61,0.00,,,0.00,VWS V14.01,2013-03-04 21:53:00,
2013-03-04 13:54:00,66.5,52.7,29.97,ESE,113,2.0,3.0,61,0.00,,,0.00,VWS V14.01,2013-03-04 21:54:00,
2013-03-04 13:55:00,66.5,52.7,29.97,ESE,113,2.0,3.0,61,0.00,,,0.00,VWS V14.01,2013-03-04 21:55:00,
2013-03-04 13:56:00,66.4,52.6,29.97,ESE,113,1.0,3.0,61,0.00,,,0.00,VWS V14.01,2013-03-04 21:56:00,
2013-03-04 13:57:00,66.4,52.6,29.97,ESE,104,2.0,3.0,61,0.00,,,0.00,VWS V14.01,2013-03-04 21:57:00,
2013-03-04 13:58:00,66.5,53.1,29.97,WNW,301,2.0,4.0,62,0.00,,,0.00,VWS V14.01,2013-03-04 21:58:00,
2013-03-04 13:59:00,66.5,52.7,29.97,WSW,255,4.0,4.0,61,0.00,,,0.00,VWS V14.01,2013-03-04 21:59:00,
2013-03-04 14:00:00,66.9,53.5,29.96,West,264,5.0,7.0,62,0.00,,,0.00,VWS V14.01,2013-03-04 22:00:00,
2013-03-04 14:01:00,66.9,53.5,29.96,West,264,5.0,7.0,62,0.00,,,0.00,VWS V14.01,2013-03-04 22:01:00,
2013-03-04 14:02:00,66.9,53.0,29.96,West,270,3.0,6.0,61,0.00,,,0.00,VWS V14.01,2013-03-04 22:02:00,
2013-03-04 14:03:00,66.8,52.5,29.96,WSW,254,5.0,6.0,60,0.00,,,0.00,VWS V14.01,2013-03-04 22:03:00,
2013-03-04 14:04:00,66.6,52.8,29.96,SSW,212,4.0,6.0,61,0.00,,,0.00,VWS V14.01,2013-03-04 22:04:00,
2013-03-04 14:05:00,66.6,52.8,29.96,SSW,212,4.0,6.0,61,0.00,,,0.00,VWS V14.01,2013-03-04 22:05:00,
2013-03-04 14:06:00,66.6,53.2,29.96,West,271,4.0,4.0,62,0.00,,,0.00,VWS V14.01,2013-03-04 22:06:00,
2013-03-04 14:07:00,66.6,53.2,29.96,West,273,2.0,3.0,62,0.00,,,0.00,VWS V14.01,2013-03-04 22:07:00,
2013-03-04 14:08:00,66.7,52.8,29.96,WSW,255,2.0,6.0,61,0.00,,,0.00,VWS V14.01,2013-03-04 22:08:00,
2013-03-04 14:09:00,66.7,53.3,29.96,WSW,241,2.0,4.0,62,0.00,,,0.00,VWS V14.01,2013-03-04 22:09:00,
2013-03-04 14:10:00,66.8,53.4,29.96,NNW,333,3.0,3.0,62,0.00,,,0.00,VWS V14.01,2013-03-04 22:10:00,
2013-03-04 14:11:00,66.8,53.4,29.96,West,270,2.0,3.0,62,0.00,,,0.00,VWS V14.01,2013-03-04 22:11:00,
2013-03-04 14:12:00,67.1,53.2,29.96,WSW,255,3.0,6.0,61,0.00,,,0.00,VWS V14.01,2013-03-04 22:12:00,
2013-03-04 14:13:00,67.3,53.4,29.96,West,264,3.0,7.0,61,0.00,,,0.00,VWS V14.01,2013-03-04 22:13:00,
2013-03-04 14:14:00,67.3,53.0,29.96,WSW,244,1.0,5.0,60,0.00,,,0.00,VWS V14.01,2013-03-04 22:14:00,
2013-03-04 14:15:00,67.3,53.0,29.96,West,278,6.0,6.0,60,0.00,,,0.00,VWS V14.01,2013-03-04 22:15:00,
2013-03-04 14:16:00,67.3,53.0,29.96,WSW,258,5.0,7.0,60,0.00,,,0.00,VWS V14.01,2013-03-04 22:16:00,
2013-03-04 14:17:00,67.2,52.9,29.96,West,259,3.0,6.0,60,0.00,,,0.00,VWS V14.01,2013-03-04 22:17:00,
2013-03-04 14:18:00,67.2,52.9,29.96,West,262,4.0,6.0,60,0.00,,,0.00,VWS V14.01,2013-03-04 22:18:00,
2013-03-04 14:19:00,67.0,52.7,29.96,West,264,4.0,4.0,60,0.00,,,0.00,VWS V14.01,2013-03-04 22:19:00,
2013-03-04 14:20:00,67.0,52.7,29.96,West,264,4.0,4.0,60,0.00,,,0.00,VWS V14.01,2013-03-04 22:20:00,
2013-03-04 14:21:00,66.8,52.9,29.96,NW,308,2.0,2.0,61,0.00,,,0.00,VWS V14.01,2013-03-04 22:21:00,
2013-03-04 14:22:00,66.8,52.5,29.96,SW,235,3.0,4.0,60,0.00,,,0.00,VWS V14.01,2013-03-04 22:22:00,
2013-03-04 14:23:00,66.8,52.5,29.96,WSW,248,3.0,4.0,60,0.00,,,0.00,VWS V14.01,2013-03-04 22:23:00,
2013-03-04 14:24:00,66.7,52.4,29.96,ENE,76,1.0,3.0,60,0.00,,,0.00,VWS V14.01,2013-03-04 22:24:00,
2013-03-04 14:25:00,66.7,52.4,29.96,ENE,76,1.0,3.0,60,0.00,,,0.00,VWS V14.01,2013-03-04 22:25:00,
2013-03-04 14:26:00,66.7,52.8,29.96,West,271,2.0,6.0,61,0.00,,,0.00,VWS V14.01,2013-03-04 22:26:00,
2013-03-04 14:28:00,66.7,52.4,29.96,SSW,198,3.0,6.0,60,0.00,,,0.00,VWS V14.01,2013-03-04 22:28:00,
2013-03-04 14:29:00,66.6,52.8,29.96,SE,137,0.0,5.0,61,0.00,,,0.00,VWS V14.01,2013-03-04 22:29:00,
2013-03-04 14:30:00,66.6,52.8,29.96,SE,137,0.0,5.0,61,0.00,,,0.00,VWS V14.01,2013-03-04 22:30:00,
2013-03-04 14:31:00,66.8,52.9,29.96,SSW,200,3.0,7.0,61,0.00,,,0.00,VWS V14.01,2013-03-04 22:31:00,
2013-03-04 14:32:00,66.9,53.0,29.96,WSW,239,4.0,6.0,61,0.00,,,0.00,VWS V14.01,2013-03-04 22:32:00,
2013-03-04 14:33:00,66.9,53.0,29.96,SW,221,4.0,6.0,61,0.00,,,0.00,VWS V14.01,2013-03-04 22:33:00,
2013-03-04 14:34:00,67.0,52.7,29.96,SW,221,3.0,5.0,60,0.00,,,0.00,VWS V14.01,2013-03-04 22:34:00,
2013-03-04 14:35:00,67.0,52.7,29.96,SW,229,3.0,7.0,60,0.00,,,0.00,VWS V14.01,2013-03-04 22:35:00,
2013-03-04 14:36:00,67.0,52.7,29.95,SW,229,11.0,12.0,60,0.00,,,0.00,VWS V14.01,2013-03-04 22:36:00,
2013-03-04 14:37:00,66.7,52.8,29.95,SW,233,7.0,7.0,61,0.00,,,0.00,VWS V14.01,2013-03-04 22:37:00,
2013-03-04 14:38:00,66.8,52.9,29.95,WSW,240,7.0,7.0,61,0.00,,,0.00,VWS V14.01,2013-03-04 22:38:00,
2013-03-04 14:39:00,66.7,52.8,29.95,SW,232,7.0,10.0,61,0.00,,,0.00,VWS V14.01,2013-03-04 22:39:00,
2013-03-04 14:40:00,66.5,52.7,29.95,South,191,4.0,6.0,61,0.00,,,0.00,VWS V14.01,2013-03-04 22:40:00,
2013-03-04 14:41:00,66.4,52.6,29.95,SW,221,6.0,7.0,61,0.00,,,0.00,VWS V14.01,2013-03-04 22:41:00,
2013-03-04 14:42:00,66.4,52.6,29.95,SW,222,4.0,7.0,61,0.00,,,0.00,VWS V14.01,2013-03-04 22:42:00,
2013-03-04 14:43:00,66.4,53.0,29.95,SSW,205,2.0,7.0,62,0.00,,,0.00,VWS V14.01,2013-03-04 22:43:00,
2013-03-04 14:44:00,66.5,53.1,29.95,SSW,201,3.0,5.0,62,0.00,,,0.00,VWS V14.01,2013-03-04 22:44:00,
2013-03-04 14:45:00,66.7,52.8,29.95,South,190,6.0,7.0,61,0.00,,,0.00,VWS V14.01,2013-03-04 22:45:00,
2013-03-04 14:46:00,66.8,52.9,29.95,SW,235,6.0,8.0,61,0.00,,,0.00,VWS V14.01,2013-03-04 22:46:00,
2013-03-04 14:47:00,66.8,52.9,29.95,SW,235,6.0,8.0,61,0.00,,,0.00,VWS V14.01,2013-03-04 22:47:00,
2013-03-04 14:48:00,66.4,52.6,29.95,SW,229,6.0,7.0,61,0.00,,,0.00,VWS V14.01,2013-03-04 22:48:00,
2013-03-04 14:49:00,66.2,52.8,29.95,SW,226,6.0,10.0,62,0.00,,,0.00,VWS V14.01,2013-03-04 22:49:00,
2013-03-04 14:50:00,66.2,52.8,29.95,SW,226,6.0,10.0,62,0.00,,,0.00,VWS V14.01,2013-03-04 22:50:00,
2013-03-04 14:51:00,66.0,53.1,29.95,West,271,5.0,5.0,63,0.00,,,0.00,VWS V14.01,2013-03-04 22:51:00,
2013-03-04 14:52:00,66.1,52.7,29.95,SW,233,3.0,8.0,62,0.00,,,0.00,VWS V14.01,2013-03-04 22:52:00,
2013-03-04 14:53:00,66.0,52.6,29.95,WSW,250,5.0,5.0,62,0.00,,,0.00,VWS V14.01,2013-03-04 22:53:00,
2013-03-04 14:54:00,66.0,52.6,29.95,SW,235,3.0,8.0,62,0.00,,,0.00,VWS V14.01,2013-03-04 22:54:00,
2013-03-04 14:55:00,66.0,52.6,29.95,SW,225,3.0,3.0,62,0.00,,,0.00,VWS V14.01,2013-03-04 22:55:00,
2013-03-04 14:56:00,65.8,52.4,29.95,WNW,284,3.0,7.0,62,0.00,,,0.00,VWS V14.01,2013-03-04 22:56:00,
2013-03-04 14:57:00,65.8,52.4,29.95,WNW,284,3.0,7.0,62,0.00,,,0.00,VWS V14.01,2013-03-04 22:57:00,
2013-03-04 14:58:00,65.7,52.8,29.95,SW,217,3.0,5.0,63,0.00,,,0.00,VWS V14.01,2013-03-04 22:58:00,
2013-03-04 14:59:00,66.0,53.1,29.95,WSW,244,6.0,6.0,63,0.00,,,0.00,VWS V14.01,2013-03-04 22:59:00,
2013-03-04 15:00:00,66.0,53.1,29.95,WNW,284,5.0,6.0,63,0.00,,,0.00,VWS V14.01,2013-03-04 23:00:00,
2013-03-04 15:01:00,65.8,52.4,29.95,SSW,203,5.0,9.0,62,0.00,,,0.00,VWS V14.01,2013-03-04 23:01:00,
2013-03-04 15:02:00,65.8,52.4,29.95,SW,229,5.0,5.0,62,0.00,,,0.00,VWS V14.01,2013-03-04 23:02:00,
2013-03-04 15:03:00,65.8,52.9,29.95,SSE,160,3.0,5.0,63,0.00,,,0.00,VWS V14.01,2013-03-04 23:03:00,
2013-03-04 15:04:00,65.8,52.9,29.95,SW,229,5.0,6.0,63,0.00,,,0.00,VWS V14.01,2013-03-04 23:04:00,
2013-03-04 15:05:00,65.9,53.0,29.95,SSW,197,4.0,6.0,63,0.00,,,0.00,VWS V14.01,2013-03-04 23:05:00,
2013-03-04 15:06:00,66.0,52.6,29.95,South,191,4.0,5.0,62,0.00,,,0.00,VWS V14.01,2013-03-04 23:06:00,
2013-03-04 15:07:00,66.0,52.6,29.95,SW,216,6.0,9.0,62,0.00,,,0.00,VWS V14.01,2013-03-04 23:07:00,
2013-03-04 15:08:00,66.0,52.6,29.95,SW,216,6.0,9.0,62,0.00,,,0.00,VWS V14.01,2013-03-04 23:08:00,
2013-03-04 15:09:00,65.7,52.3,29.95,SSW,207,5.0,5.0,62,0.00,,,0.00,VWS V14.01,2013-03-04 23:09:00,
2013-03-04 15:10:00,65.6,52.7,29.95,West,266,6.0,6.0,63,0.00,,,0.00,VWS V14.01,2013-03-04 23:10:00,
2013-03-04 15:11:00,65.6,52.7,29.95,West,266,6.0,6.0,63,0.00,,,0.00,VWS V14.01,2013-03-04 23:11:00,
2013-03-04 15:12:00,65.7,52.8,29.95,WSW,250,4.0,8.0,63,0.00,,,0.00,VWS V14.01,2013-03-04 23:12:00,
2013-03-04 15:13:00,65.7,52.8,29.95,SW,224,8.0,8.0,63,0.00,,,0.00,VWS V14.01,2013-03-04 23:13:00,
2013-03-04 15:14:00,65.6,52.7,29.95,West,273,5.0,8.0,63,0.00,,,0.00,VWS V14.01,2013-03-04 23:14:00,
2013-03-04 15:15:00,65.6,52.7,29.95,WSW,258,5.0,6.0,63,0.00,,,0.00,VWS V14.01,2013-03-04 23:15:00,
2013-03-04 15:16:00,65.6,52.7,29.95,WSW,256,4.0,5.0,63,0.00,,,0.00,VWS V14.01,2013-03-04 23:16:00,
2013-03-04 15:17:00,65.5,52.6,29.95,SW,216,4.0,5.0,63,0.00,,,0.00,VWS V14.01,2013-03-04 23:17:00,
2013-03-04 15:18:00,65.8,52.9,29.95,SW,229,3.0,5.0,63,0.00,,,0.00,VWS V14.01,2013-03-04 23:18:00,
2013-03-04 15:19:00,65.8,52.9,29.95,SW,229,3.0,5.0,63,0.00,,,0.00,VWS V14.01,2013-03-04 23:19:00,
2013-03-04 15:20:00,66.1,53.2,29.95,SW,236,8.0,8.0,63,0.00,,,0.00,VWS V14.01,2013-03-04 23:20:00,
2013-03-04 15:21:00,66.2,52.8,29.95,SSW,203,4.0,8.0,62,0.00,,,0.00,VWS V14.01,2013-03-04 23:21:00,
2013-03-04 15:22:00,66.2,52.8,29.95,WSW,239,3.0,4.0,62,0.00,,,0.00,VWS V14.01,2013-03-04 23:22:00,
2013-03-04 15:23:00,66.1,52.7,29.95,SW,233,4.0,8.0,62,0.00,,,0.00,VWS V14.01,2013-03-04 23:23:00,
2013-03-04 15:24:00,66.1,52.7,29.95,SW,233,4.0,8.0,62,0.00,,,0.00,VWS V14.01,2013-03-04 23:24:00,
2013-03-04 15:25:00,66.0,52.6,29.95,SW,222,5.0,7.0,62,0.00,,,0.00,VWS V14.01,2013-03-04 23:25:00,
2013-03-04 15:26:00,66.0,53.1,29.95,WSW,241,3.0,7.0,63,0.00,,,0.00,VWS V14.01,2013-03-04 23:26:00,
2013-03-04 15:27:00,66.1,52.7,29.95,SW,225,4.0,8.0,62,0.00,,,0.00,VWS V14.01,2013-03-04 23:27:00,
2013-03-04 15:28:00,66.0,52.6,29.95,SW,235,7.0,8.0,62,0.00,,,0.00,VWS V14.01,2013-03-04 23:28:00,
2013-03-04 15:29:00,66.0,52.6,29.95,SW,235,7.0,8.0,62,0.00,,,0.00,VWS V14.01,2013-03-04 23:29:00,
2013-03-04 15:30:00,65.8,52.4,29.95,West,266,3.0,10.0,62,0.00,,,0.00,VWS V14.01,2013-03-04 23:30:00,
2013-03-04 15:31:00,65.7,52.8,29.95,SW,229,6.0,8.0,63,0.00,,,0.00,VWS V14.01,2013-03-04 23:31:00,
2013-03-04 15:32:00,65.7,52.3,29.95,SSW,201,4.0,8.0,62,0.00,,,0.00,VWS V14.01,2013-03-04 23:32:00,
2013-03-04 15:33:00,65.7,52.3,29.95,WSW,255,4.0,5.0,62,0.00,,,0.00,VWS V14.01,2013-03-04 23:33:00,
2013-03-04 15:34:00,65.6,52.2,29.95,WSW,242,6.0,8.0,62,0.00,,,0.00,VWS V14.01,2013-03-04 23:34:00,
2013-03-04 15:35:00,65.4,52.1,29.95,WSW,240,5.0,7.0,62,0.00,,,0.00,VWS V14.01,2013-03-04 23:35:00,
2013-03-04 15:36:00,65.2,52.3,29.95,SSW,197,3.0,4.0,63,0.00,,,0.00,VWS V14.01,2013-03-04 23:36:00,
2013-03-04 15:37:00,65.2,52.7,29.95,SSW,199,3.0,7.0,64,0.00,,,0.00,VWS V14.01,2013-03-04 23:37:00,
2013-03-04 15:38:00,65.2,52.7,29.95,SSW,207,4.0,4.0,64,0.00,,,0.00,VWS V14.01,2013-03-04 23:38:00,
2013-03-04 15:39:00,65.2,52.3,29.95,SSW,207,5.0,8.0,63,0.00,,,0.00,VWS V14.01,2013-03-04 23:39:00,
2013-03-04 15:40:00,65.2,52.3,29.95,WSW,238,4.0,6.0,63,0.00,,,0.00,VWS V14.01,2013-03-04 23:40:00,
2013-03-04 15:41:00,65.2,52.3,29.95,SSW,205,2.0,4.0,63,0.00,,,0.00,VWS V14.01,2013-03-04 23:41:00,
2013-03-04 15:42:00,65.3,52.8,29.95,SW,218,9.0,9.0,64,0.00,,,0.00,VWS V14.01,2013-03-04 23:42:00,
2013-03-04 15:43:00,65.3,52.8,29.95,South,190,8.0,9.0,64,0.00,,,0.00,VWS V14.01,2013-03-04 23:43:00,
2013-03-04 15:44:00,65.2,52.3,29.95,SW,215,7.0,10.0,63,0.00,,,0.00,VWS V14.01,2013-03-04 23:44:00,
2013-03-04 15:45:00,65.0,52.1,29.95,SSW,200,7.0,9.0,63,0.00,,,0.00,VWS V14.01,2013-03-04 23:45:00,
2013-03-04 15:46:00,64.6,51.7,29.95,SSW,211,4.0,7.0,63,0.00,,,0.00,VWS V14.01,2013-03-04 23:46:00,
2013-03-04 15:47:00,64.2,51.8,29.95,South,184,5.0,8.0,64,0.00,,,0.00,VWS V14.01,2013-03-04 23:47:00,
2013-03-04 15:48:00,64.1,52.1,29.95,South,179,8.0,9.0,65,0.00,,,0.00,VWS V14.01,2013-03-04 23:48:00,
2013-03-04 15:49:00,64.0,52.0,29.95,South,177,7.0,9.0,65,0.00,,,0.00,VWS V14.01,2013-03-04 23:49:00,
2013-03-04 15:50:00,63.9,51.9,29.95,WSW,258,5.0,9.0,65,0.00,,,0.00,VWS V14.01,2013-03-04 23:50:00,
2013-03-04 15:51:00,63.7,51.7,29.95,South,180,5.0,7.0,65,0.00,,,0.00,VWS V14.01,2013-03-04 23:51:00,
2013-03-04 15:52:00,63.7,52.1,29.95,SSW,210,6.0,8.0,66,0.00,,,0.00,VWS V14.01,2013-03-04 23:52:00,
2013-03-04 15:53:00,63.7,52.1,29.95,SW,236,6.0,6.0,66,0.00,,,0.00,VWS V14.01,2013-03-04 23:53:00,
2013-03-04 15:54:00,63.7,52.1,29.95,WSW,244,10.0,10.0,66,0.00,,,0.00,VWS V14.01,2013-03-04 23:54:00,
2013-03-04 15:55:00,63.6,51.6,29.95,SSW,210,7.0,7.0,65,0.00,,,0.00,VWS V14.01,2013-03-04 23:55:00,
2013-03-04 15:56:00,63.5,52.0,29.95,South,177,3.0,6.0,66,0.00,,,0.00,VWS V14.01,2013-03-04 23:56:00,
2013-03-04 15:57:00,63.4,51.9,29.95,SSW,198,8.0,8.0,66,0.00,,,0.00,VWS V14.01,2013-03-04 23:57:00,
2013-03-04 15:58:00,63.4,51.9,29.95,WSW,257,5.0,8.0,66,0.00,,,0.00,VWS V14.01,2013-03-04 23:58:00,
2013-03-04 15:59:00,63.3,51.8,29.95,SSW,210,6.0,8.0,66,0.00,,,0.00,VWS V14.01,2013-03-04 23:59:00,
2013-03-04 16:00:00,63.3,51.8,29.95,SSW,210,6.0,8.0,66,0.00,,,0.00,VWS V14.01,2013-03-05 00:00:00,
2013-03-04 16:01:00,63.2,52.1,29.95,SW,214,4.0,6.0,67,0.00,,,0.00,VWS V14.01,2013-03-05 00:01:00,
2013-03-04 16:02:00,63.1,52.0,29.95,SW,226,7.0,8.0,67,0.00,,,0.00,VWS V14.01,2013-03-05 00:02:00,
2013-03-04 16:03:00,63.0,51.9,29.95,SW,236,7.0,10.0,67,0.00,,,0.00,VWS V14.01,2013-03-05 00:03:00,
2013-03-04 16:04:00,62.9,51.8,29.95,SW,233,10.0,10.0,67,0.00,,,0.00,VWS V14.01,2013-03-05 00:04:00,
2013-03-04 16:05:00,62.9,51.8,29.95,SW,233,10.0,10.0,67,0.00,,,0.00,VWS V14.01,2013-03-05 00:05:00,
2013-03-04 16:06:00,62.7,51.6,29.95,SW,221,8.0,10.0,67,0.00,,,0.00,VWS V14.01,2013-03-05 00:06:00,
2013-03-04 16:07:00,62.4,51.3,29.95,SW,221,5.0,9.0,67,0.00,,,0.00,VWS V14.01,2013-03-05 00:07:00,
2013-03-04 16:08:00,62.2,51.5,29.96,SSW,210,4.0,8.0,68,0.00,,,0.00,VWS V14.01,2013-03-05 00:08:00,
2013-03-04 16:09:00,62.2,51.9,29.96,SSW,210,8.0,8.0,69,0.00,,,0.00,VWS V14.01,2013-03-05 00:09:00,
2013-03-04 16:10:00,62.2,51.9,29.96,South,173,4.0,8.0,69,0.00,,,0.00,VWS V14.01,2013-03-05 00:10:00,
2013-03-04 16:11:00,62.1,51.8,29.96,SW,219,4.0,8.0,69,0.00,,,0.00,VWS V14.01,2013-03-05 00:11:00,
2013-03-04 16:12:00,62.0,51.7,29.96,WSW,241,5.0,7.0,69,0.00,,,0.00,VWS V14.01,2013-03-05 00:12:00,
2013-03-04 16:13:00,61.9,51.6,29.96,SW,234,5.0,12.0,69,0.00,,,0.00,VWS V14.01,2013-03-05 00:13:00,
2013-03-04 16:14:00,61.7,51.4,29.96,SW,229,6.0,8.0,69,0.00,,,0.00,VWS V14.01,2013-03-05 00:14:00,
2013-03-04 16:15:00,61.6,51.7,29.96,SW,236,5.0,10.0,70,0.00,,,0.00,VWS V14.01,2013-03-05 00:15:00,
2013-03-04 16:16:00,61.7,51.4,29.96,WSW,251,7.0,10.0,69,0.00,,,0.00,VWS V14.01,2013-03-05 00:16:00,
2013-03-04 16:17:00,61.5,51.6,29.96,SSW,207,6.0,10.0,70,0.00,,,0.00,VWS V14.01,2013-03-05 00:17:00,
2013-03-04 16:18:00,61.4,51.9,29.96,SW,229,4.0,7.0,71,0.00,,,0.00,VWS V14.01,2013-03-05 00:18:00,
2013-03-04 16:19:00,61.3,51.8,29.96,SW,236,6.0,6.0,71,0.00,,,0.00,VWS V14.01,2013-03-05 00:19:00,
2013-03-04 16:20:00,61.3,51.8,29.96,WSW,257,4.0,8.0,71,0.00,,,0.00,VWS V14.01,2013-03-05 00:20:00,
2013-03-04 16:21:00,61.3,51.8,29.96,SSW,195,2.0,7.0,71,0.00,,,0.00,VWS V14.01,2013-03-05 00:21:00,
2013-03-04 16:22:00,61.2,51.7,29.96,SW,221,8.0,8.0,71,0.00,,,0.00,VWS V14.01,2013-03-05 00:22:00,
2013-03-04 16:23:00,61.2,51.7,29.96,SW,229,8.0,8.0,71,0.00,,,0.00,VWS V14.01,2013-03-05 00:23:00,
2013-03-04 16:24:00,61.1,51.6,29.96,SW,222,8.0,10.0,71,0.00,,,0.00,VWS V14.01,2013-03-05 00:24:00,
2013-03-04 16:25:00,60.7,51.6,29.96,SSW,201,6.0,9.0,72,0.00,,,0.00,VWS V14.01,2013-03-05 00:25:00,
2013-03-04 16:26:00,60.7,51.6,29.96,SSW,197,3.0,9.0,72,0.00,,,0.00,VWS V14.01,2013-03-05 00:26:00,
2013-03-04 16:27:00,60.7,51.6,29.96,South,172,4.0,9.0,72,0.00,,,0.00,VWS V14.01,2013-03-05 00:27:00,
2013-03-04 16:28:00,60.6,51.5,29.96,South,179,6.0,10.0,72,0.00,,,0.00,VWS V14.01,2013-03-05 00:28:00,
2013-03-04 16:29:00,60.6,51.5,29.96,South,179,6.0,10.0,72,0.00,,,0.00,VWS V14.01,2013-03-05 00:29:00,
2013-03-04 16:30:00,60.4,51.3,29.96,South,183,5.0,7.0,72,0.00,,,0.00,VWS V14.01,2013-03-05 00:30:00,
2013-03-04 16:31:00,60.3,51.6,29.96,SSW,204,3.0,7.0,73,0.00,,,0.00,VWS V14.01,2013-03-05 00:31:00,
2013-03-04 16:32:00,60.3,51.6,29.96,SW,233,3.0,7.0,73,0.00,,,0.00,VWS V14.01,2013-03-05 00:32:00,
2013-03-04 16:33:00,60.3,51.6,29.96,SW,236,6.0,8.0,73,0.00,,,0.00,VWS V14.01,2013-03-05 00:33:00,
2013-03-04 16:34:00,60.3,51.6,29.96,SW,236,6.0,8.0,73,0.00,,,0.00,VWS V14.01,2013-03-05 00:34:00,
2013-03-04 16:35:00,60.3,51.2,29.96,SSW,198,3.0,7.0,72,0.00,,,0.00,VWS V14.01,2013-03-05 00:35:00,
2013-03-04 16:36:00,60.3,51.2,29.96,SSW,208,4.0,7.0,72,0.00,,,0.00,VWS V14.01,2013-03-05 00:36:00,
2013-03-04 16:37:00,60.3,51.2,29.96,SW,218,4.0,7.0,72,0.00,,,0.00,VWS V14.01,2013-03-05 00:37:00,
2013-03-04 16:38:00,60.3,51.2,29.96,WSW,243,3.0,7.0,72,0.00,,,0.00,VWS V14.01,2013-03-05 00:38:00,
2013-03-04 16:39:00,60.3,51.6,29.96,SSW,201,5.0,6.0,73,0.00,,,0.00,VWS V14.01,2013-03-05 00:39:00,
2013-03-04 16:40:00,60.3,51.6,29.96,SW,232,4.0,8.0,73,0.00,,,0.00,VWS V14.01,2013-03-05 00:40:00,
2013-03-04 16:41:00,60.1,51.4,29.97,SSE,165,1.0,3.0,73,0.00,,,0.00,VWS V14.01,2013-03-05 00:41:00,
2013-03-04 16:42:00,60.2,51.9,29.97,SSW,210,2.0,2.0,74,0.00,,,0.00,VWS V14.01,2013-03-05 00:42:00,
2013-03-04 16:43:00,60.2,51.9,29.97,SSW,195,2.0,2.0,74,0.00,,,0.00,VWS V14.01,2013-03-05 00:43:00,
2013-03-04 16:44:00,60.3,52.0,29.97,SSE,159,2.0,2.0,74,0.00,,,0.00,VWS V14.01,2013-03-05 00:44:00,
2013-03-04 16:45:00,60.3,51.6,29.97,SW,229,3.0,5.0,73,0.00,,,0.00,VWS V14.01,2013-03-05 00:45:00,
2013-03-04 16:46:00,60.5,51.8,29.97,SE,127,2.0,4.0,73,0.00,,,0.00,VWS V14.01,2013-03-05 00:46:00,
2013-03-04 16:47:00,60.5,51.4,29.97,SSW,200,3.0,5.0,72,0.00,,,0.00,VWS V14.01,2013-03-05 00:47:00,
2013-03-04 16:48:00,60.5,51.4,29.97,SSW,198,3.0,3.0,72,0.00,,,0.00,VWS V14.01,2013-03-05 00:48:00,
2013-03-04 16:49:00,60.5,51.8,29.97,South,169,2.0,2.0,73,0.00,,,0.00,VWS V14.01,2013-03-05 00:49:00,
2013-03-04 16:50:00,60.5,51.8,29.97,SSE,155,2.0,2.0,73,0.00,,,0.00,VWS V14.01,2013-03-05 00:50:00,
2013-03-04 16:51:00,60.5,51.8,29.97,SSE,155,3.0,4.0,73,0.00,,,0.00,VWS V14.01,2013-03-05 00:51:00,
2013-03-04 16:52:00,60.5,51.4,29.97,South,187,3.0,4.0,72,0.00,,,0.00,VWS V14.01,2013-03-05 00:52:00,
2013-03-04 16:53:00,60.4,51.3,29.97,SSE,149,2.0,4.0,72,0.00,,,0.00,VWS V14.01,2013-03-05 00:53:00,
2013-03-04 16:54:00,60.3,51.2,29.97,WSW,248,2.0,2.0,72,0.00,,,0.00,VWS V14.01,2013-03-05 00:54:00,
2013-03-04 16:55:00,60.3,51.6,29.97,West,271,1.0,3.0,73,0.00,,,0.00,VWS V14.01,2013-03-05 00:55:00,
2013-03-04 16:56:00,60.3,51.6,29.97,SW,233,2.0,2.0,73,0.00,,,0.00,VWS V14.01,2013-03-05 00:56:00,
2013-03-04 16:57:00,60.3,51.2,29.97,WSW,252,1.0,2.0,72,0.00,,,0.00,VWS V14.01,2013-03-05 00:57:00,
2013-03-04 16:58:00,60.3,51.2,29.97,WSW,252,1.0,2.0,72,0.00,,,0.00,VWS V14.01,2013-03-05 00:58:00,
2013-03-04 16:59:00,60.3,51.2,29.97,WSW,251,0.0,1.0,72,0.00,,,0.00,VWS V14.01,2013-03-05 00:59:00,
2013-03-04 17:00:00,60.4,51.3,29.97,SE,134,1.0,1.0,72,0.00,,,0.00,VWS V14.01,2013-03-05 01:00:00,
2013-03-04 17:01:00,60.4,51.3,29.97,SE,134,1.0,1.0,72,0.00,,,0.00,VWS V14.01,2013-03-05 01:01:00,
2013-03-04 17:02:00,60.4,51.7,29.97,SE,134,1.0,2.0,73,0.00,,,0.00,VWS V14.01,2013-03-05 01:02:00,
2013-03-04 17:03:00,60.5,51.8,29.97,SE,134,0.0,1.0,73,0.00,,,0.00,VWS V14.01,2013-03-05 01:03:00,
2013-03-04 17:04:00,60.5,51.8,29.97,SE,134,0.0,1.0,73,0.00,,,0.00,VWS V14.01,2013-03-05 01:04:00,
2013-03-04 17:05:00,60.5,51.8,29.97,SSW,205,3.0,3.0,73,0.00,,,0.00,VWS V14.01,2013-03-05 01:05:00,
2013-03-04 17:06:00,60.6,51.9,29.97,SSE,160,1.0,1.0,73,0.00,,,0.00,VWS V14.01,2013-03-05 01:06:00,
2013-03-04 17:07:00,60.6,51.5,29.98,South,176,1.0,2.0,72,0.00,,,0.00,VWS V14.01,2013-03-05 01:07:00,
2013-03-04 17:08:00,60.6,51.9,29.98,South,177,0.0,1.0,73,0.00,,,0.00,VWS V14.01,2013-03-05 01:08:00,
2013-03-04 17:09:00,60.6,51.9,29.98,SSW,195,0.0,1.0,73,0.00,,,0.00,VWS V14.01,2013-03-05 01:09:00,
2013-03-04 17:10:00,60.7,52.0,29.98,SSW,195,1.0,1.0,73,0.00,,,0.00,VWS V14.01,2013-03-05 01:10:00,
2013-03-04 17:11:00,60.7,52.0,29.98,South,172,0.0,0.0,73,0.00,,,0.00,VWS V14.01,2013-03-05 01:11:00,
2013-03-04 17:12:00,60.7,52.0,29.98,South,172,0.0,0.0,73,0.00,,,0.00,VWS V14.01,2013-03-05 01:12:00,
2013-03-04 17:13:00,60.7,52.0,29.98,South,172,0.0,0.0,73,0.00,,,0.00,VWS V14.01,2013-03-05 01:13:00,
2013-03-04 17:14:00,60.8,51.7,29.98,South,172,0.0,0.0,72,0.00,,,0.00,VWS V14.01,2013-03-05 01:14:00,
2013-03-04 17:15:00,60.8,51.7,29.98,South,172,0.0,0.0,72,0.00,,,0.00,VWS V14.01,2013-03-05 01:15:00,
2013-03-04 17:16:00,60.9,52.2,29.98,SSW,206,0.0,0.0,73,0.00,,,0.00,VWS V14.01,2013-03-05 01:16:00,
2013-03-04 17:17:00,60.9,51.8,29.98,WSW,243,0.0,0.0,72,0.00,,,0.00,VWS V14.01,2013-03-05 01:17:00,
2013-03-04 17:18:00,61.0,51.9,29.98,SSW,200,2.0,2.0,72,0.00,,,0.00,VWS V14.01,2013-03-05 01:18:00,
2013-03-04 17:19:00,60.9,51.8,29.98,SW,221,2.0,2.0,72,0.00,,,0.00,VWS V14.01,2013-03-05 01:19:00,
2013-03-04 17:20:00,60.8,51.7,29.98,SW,217,1.0,2.0,72,0.00,,,0.00,VWS V14.01,2013-03-05 01:20:00,
2013-03-04 17:21:00,60.8,51.7,29.98,SSW,200,1.0,1.0,72,0.00,,,0.00,VWS V14.01,2013-03-05 01:21:00,
2013-03-04 17:22:00,60.6,51.5,29.98,SSW,204,2.0,2.0,72,0.00,,,0.00,VWS V14.01,2013-03-05 01:22:00,
2013-03-04 17:23:00,60.6,51.5,29.98,SW,217,1.0,2.0,72,0.00,,,0.00,VWS V14.01,2013-03-05 01:23:00,
2013-03-04 17:24:00,60.6,51.5,29.98,SW,217,1.0,2.0,72,0.00,,,0.00,VWS V14.01,2013-03-05 01:24:00,
2013-03-04 17:25:00,60.3,51.6,29.98,South,188,3.0,3.0,73,0.00,,,0.00,VWS V14.01,2013-03-05 01:25:00,
2013-03-04 17:26:00,60.3,51.6,29.98,South,188,3.0,3.0,73,0.00,,,0.00,VWS V14.01,2013-03-05 01:26:00,
2013-03-04 17:27:00,60.1,51.4,29.98,SW,231,3.0,3.0,73,0.00,,,0.00,VWS V14.01,2013-03-05 01:27:00,
2013-03-04 17:28:00,60.0,51.7,29.98,WSW,257,2.0,3.0,74,0.00,,,0.00,VWS V14.01,2013-03-05 01:28:00,
2013-03-04 17:29:00,60.0,51.7,29.98,SW,229,3.0,3.0,74,0.00,,,0.00,VWS V14.01,2013-03-05 01:29:00,
2013-03-04 17:30:00,59.9,51.6,29.98,WSW,239,4.0,4.0,74,0.00,,,0.00,VWS V14.01,2013-03-05 01:30:00,
2013-03-04 17:31:00,59.6,51.3,29.98,SW,221,5.0,5.0,74,0.00,,,0.00,VWS V14.01,2013-03-05 01:31:00,
2013-03-04 17:32:00,59.6,51.3,29.98,SW,226,3.0,5.0,74,0.00,,,0.00,VWS V14.01,2013-03-05 01:32:00,
2013-03-04 17:33:00,59.5,51.6,29.98,SW,229,4.0,5.0,75,0.00,,,0.00,VWS V14.01,2013-03-05 01:33:00,
2013-03-04 17:34:00,59.3,51.4,29.98,SW,215,2.0,2.0,75,0.00,,,0.00,VWS V14.01,2013-03-05 01:34:00,
2013-03-04 17:35:00,59.2,51.7,29.98,SSW,212,2.0,2.0,76,0.00,,,0.00,VWS V14.01,2013-03-05 01:35:00,
2013-03-04 17:36:00,59.2,51.7,29.98,SW,218,3.0,3.0,76,0.00,,,0.00,VWS V14.01,2013-03-05 01:36:00,
2013-03-04 17:37:00,59.1,51.5,29.98,SSW,204,1.0,3.0,76,0.00,,,0.00,VWS V14.01,2013-03-05 01:37:00,
2013-03-04 17:38:00,59.1,51.5,29.98,SSW,204,1.0,3.0,76,0.00,,,0.00,VWS V14.01,2013-03-05 01:38:00,
2013-03-04 17:39:00,59.0,51.5,29.98,West,274,1.0,2.0,76,0.00,,,0.00,VWS V14.01,2013-03-05 01:39:00,
2013-03-04 17:40:00,59.0,51.5,29.98,WSW,258,1.0,2.0,76,0.00,,,0.00,VWS V14.01,2013-03-05 01:40:00,
2013-03-04 17:41:00,58.9,51.4,29.98,West,259,1.0,1.0,76,0.00,,,0.00,VWS V14.01,2013-03-05 01:41:00,
2013-03-04 17:42:00,58.9,51.4,29.98,WSW,257,0.0,2.0,76,0.00,,,0.00,VWS V14.01,2013-03-05 01:42:00,
2013-03-04 17:43:00,58.9,51.4,29.98,WSW,257,0.0,2.0,76,0.00,,,0.00,VWS V14.01,2013-03-05 01:43:00,
2013-03-04 17:44:00,58.9,51.7,29.98,WSW,257,1.0,1.0,77,0.00,,,0.00,VWS V14.01,2013-03-05 01:44:00,
2013-03-04 17:45:00,58.8,51.6,29.98,SW,218,1.0,1.0,77,0.00,,,0.00,VWS V14.01,2013-03-05 01:45:00,
2013-03-04 17:46:00,58.8,51.6,29.98,SW,217,1.0,1.0,77,0.00,,,0.00,VWS V14.01,2013-03-05 01:46:00,
2013-03-04 17:47:00,58.7,51.5,29.98,SW,216,0.0,1.0,77,0.00,,,0.00,VWS V14.01,2013-03-05 01:47:00,
2013-03-04 17:48:00,58.7,51.5,29.98,SW,217,1.0,1.0,77,0.00,,,0.00,VWS V14.01,2013-03-05 01:48:00,
2013-03-04 17:49:00,58.6,51.4,29.98,SW,217,1.0,1.0,77,0.00,,,0.00,VWS V14.01,2013-03-05 01:49:00,
2013-03-04 17:50:00,58.6,51.4,29.98,SW,217,1.0,1.0,77,0.00,,,0.00,VWS V14.01,2013-03-05 01:50:00,
2013-03-04 17:51:00,58.6,51.4,29.98,SW,217,1.0,1.0,77,0.00,,,0.00,VWS V14.01,2013-03-05 01:51:00,
2013-03-04 17:52:00,58.5,51.3,29.98,SSW,195,1.0,1.0,77,0.00,,,0.00,VWS V14.01,2013-03-05 01:52:00,
2013-03-04 17:53:00,58.5,51.3,29.98,SSW,197,1.0,1.0,77,0.00,,,0.00,VWS V14.01,2013-03-05 01:53:00,
2013-03-04 17:54:00,58.4,51.2,29.98,SSW,210,2.0,2.0,77,0.00,,,0.00,VWS V14.01,2013-03-05 01:54:00,
2013-03-04 17:55:00,58.3,51.1,29.98,SW,233,1.0,2.0,77,0.00,,,0.00,VWS V14.01,2013-03-05 01:55:00,
2013-03-04 17:56:00,58.3,51.5,29.98,SW,235,0.0,2.0,78,0.00,,,0.00,VWS V14.01,2013-03-05 01:56:00,
2013-03-04 17:57:00,58.2,51.4,29.98,SSW,193,1.0,2.0,78,0.00,,,0.00,VWS V14.01,2013-03-05 01:57:00,
2013-03-04 17:58:00,58.2,51.4,29.98,SW,229,1.0,2.0,78,0.00,,,0.00,VWS V14.01,2013-03-05 01:58:00,
2013-03-04 17:59:00,58.2,51.4,29.98,SW,229,1.0,2.0,78,0.00,,,0.00,VWS V14.01,2013-03-05 01:59:00,
2013-03-04 18:00:00,58.2,51.4,29.98,SSW,207,2.0,3.0,78,0.00,,,0.00,VWS V14.01,2013-03-05 02:00:00,
2013-03-04 18:01:00,58.1,51.3,29.98,SW,217,2.0,2.0,78,0.00,,,0.00,VWS V14.01,2013-03-05 02:01:00,
2013-03-04 18:02:00,58.0,51.2,29.98,SSW,208,1.0,2.0,78,0.00,,,0.00,VWS V14.01,2013-03-05 02:02:00,
2013-03-04 18:03:00,58.0,51.2,29.98,SW,217,1.0,2.0,78,0.00,,,0.00,VWS V14.01,2013-03-05 02:03:00,
2013-03-04 18:04:00,58.0,51.2,29.98,SW,217,1.0,2.0,78,0.00,,,0.00,VWS V14.01,2013-03-05 02:04:00,
2013-03-04 18:05:00,58.0,51.2,29.98,SSW,197,2.0,2.0,78,0.00,,,0.00,VWS V14.01,2013-03-05 02:05:00,
2013-03-04 18:06:00,57.9,51.1,29.98,SSW,198,1.0,1.0,78,0.00,,,0.00,VWS V14.01,2013-03-05 02:06:00,
2013-03-04 18:07:00,57.9,51.1,29.98,SW,224,1.0,2.0,78,0.00,,,0.00,VWS V14.01,2013-03-05 02:07:00,
2013-03-04 18:08:00,57.8,51.0,29.98,SSW,205,0.0,1.0,78,0.00,,,0.00,VWS V14.01,2013-03-05 02:08:00,
2013-03-04 18:09:00,57.8,51.0,29.98,SW,214,1.0,2.0,78,0.00,,,0.00,VWS V14.01,2013-03-05 02:09:00,
2013-03-04 18:10:00,57.8,51.0,29.98,South,183,1.0,1.0,78,0.00,,,0.00,VWS V14.01,2013-03-05 02:10:00,
2013-03-04 18:11:00,57.7,51.2,29.98,South,187,1.0,2.0,79,0.00,,,0.00,VWS V14.01,2013-03-05 02:11:00,
2013-03-04 18:12:00,57.8,51.0,29.98,South,187,2.0,2.0,78,0.00,,,0.00,VWS V14.01,2013-03-05 02:12:00,
2013-03-04 18:13:00,57.7,51.2,29.98,SW,215,1.0,1.0,79,0.00,,,0.00,VWS V14.01,2013-03-05 02:13:00,
2013-03-04 18:14:00,57.7,51.2,29.98,SW,232,2.0,2.0,79,0.00,,,0.00,VWS V14.01,2013-03-05 02:14:00,
2013-03-04 18:15:00,57.7,51.2,29.98,WSW,251,1.0,2.0,79,0.00,,,0.00,VWS V14.01,2013-03-05 02:15:00,
2013-03-04 18:16:00,57.6,51.1,29.98,SW,221,2.0,2.0,79,0.00,,,0.00,VWS V14.01,2013-03-05 02:16:00,
2013-03-04 18:17:00,57.7,51.2,29.98,SSW,208,1.0,2.0,79,0.00,,,0.00,VWS V14.01,2013-03-05 02:17:00,
2013-03-04 18:18:00,57.6,51.1,29.99,WSW,241,1.0,2.0,79,0.00,,,0.00,VWS V14.01,2013-03-05 02:18:00,
2013-03-04 18:19:00,57.6,51.1,29.99,WSW,257,2.0,3.0,79,0.00,,,0.00,VWS V14.01,2013-03-05 02:19:00,
2013-03-04 18:20:00,57.6,51.1,29.99,WSW,250,1.0,2.0,79,0.00,,,0.00,VWS V14.01,2013-03-05 02:20:00,
2013-03-04 18:21:00,57.6,51.1,29.99,WSW,241,1.0,1.0,79,0.00,,,0.00,VWS V14.01,2013-03-05 02:21:00,
2013-03-04 18:22:00,57.6,51.1,29.99,WSW,238,1.0,1.0,79,0.00,,,0.00,VWS V14.01,2013-03-05 02:22:00,
2013-03-04 18:23:00,57.6,51.1,29.99,SW,217,1.0,1.0,79,0.00,,,0.00,VWS V14.01,2013-03-05 02:23:00,
2013-03-04 18:24:00,57.6,51.1,29.99,SW,217,2.0,3.0,79,0.00,,,0.00,VWS V14.01,2013-03-05 02:24:00,
2013-03-04 18:25:00,57.6,51.1,29.99,SW,232,2.0,3.0,79,0.00,,,0.00,VWS V14.01,2013-03-05 02:25:00,
2013-03-04 18:26:00,57.6,51.1,29.99,WSW,255,3.0,3.0,79,0.00,,,0.00,VWS V14.01,2013-03-05 02:26:00,
2013-03-04 18:27:00,57.6,51.5,29.99,SW,231,2.0,4.0,80,0.00,,,0.00,VWS V14.01,2013-03-05 02:27:00,
2013-03-04 18:28:00,57.6,51.5,29.99,SW,231,2.0,4.0,80,0.00,,,0.00,VWS V14.01,2013-03-05 02:28:00,
2013-03-04 18:29:00,57.5,51.4,29.99,SW,226,2.0,3.0,80,0.00,,,0.00,VWS V14.01,2013-03-05 02:29:00,
2013-03-04 18:30:00,57.5,51.4,29.99,WSW,239,3.0,3.0,80,0.00,,,0.00,VWS V14.01,2013-03-05 02:30:00,
2013-03-04 18:31:00,57.5,51.4,29.99,SSW,203,2.0,2.0,80,0.00,,,0.00,VWS V14.01,2013-03-05 02:31:00,
2013-03-04 18:32:00,57.5,51.4,29.99,West,263,1.0,2.0,80,0.00,,,0.00,VWS V14.01,2013-03-05 02:32:00,
2013-03-04 18:33:00,57.5,51.4,29.99,West,263,1.0,2.0,80,0.00,,,0.00,VWS V14.01,2013-03-05 02:33:00,
2013-03-04 18:34:00,57.4,51.3,29.99,SSW,207,2.0,2.0,80,0.00,,,0.00,VWS V14.01,2013-03-05 02:34:00,
2013-03-04 18:35:00,57.4,51.3,29.99,SW,232,3.0,3.0,80,0.00,,,0.00,VWS V14.01,2013-03-05 02:35:00,
2013-03-04 18:36:00,57.4,51.3,29.99,SW,217,2.0,2.0,80,0.00,,,0.00,VWS V14.01,2013-03-05 02:36:00,
2013-03-04 18:37:00,57.4,51.3,29.99,South,176,2.0,2.0,80,0.00,,,0.00,VWS V14.01,2013-03-05 02:37:00,
2013-03-04 18:38:00,57.4,51.3,29.99,SW,233,3.0,4.0,80,0.00,,,0.00,VWS V14.01,2013-03-05 02:38:00,
2013-03-04 18:39:00,57.3,51.2,29.99,SW,225,3.0,4.0,80,0.00,,,0.00,VWS V14.01,2013-03-05 02:39:00,
2013-03-04 18:40:00,57.2,51.1,30.00,SSW,198,2.0,2.0,80,0.00,,,0.00,VWS V14.01,2013-03-05 02:40:00,
2013-03-04 18:41:00,57.3,51.2,30.00,SSW,194,1.0,2.0,80,0.00,,,0.00,VWS V14.01,2013-03-05 02:41:00,
2013-03-04 18:42:00,57.2,51.1,30.00,SSW,202,2.0,3.0,80,0.00,,,0.00,VWS V14.01,2013-03-05 02:42:00,
2013-03-04 18:43:00,57.2,51.1,30.00,SSW,202,3.0,4.0,80,0.00,,,0.00,VWS V14.01,2013-03-05 02:43:00,
2013-03-04 18:44:00,57.1,51.0,30.00,WSW,248,1.0,2.0,80,0.00,,,0.00,VWS V14.01,2013-03-05 02:44:00,
2013-03-04 18:45:00,57.1,51.0,30.00,SSW,202,2.0,3.0,80,0.00,,,0.00,VWS V14.01,2013-03-05 02:45:00,
2013-03-04 18:46:00,57.0,50.9,30.00,SW,225,1.0,2.0,80,0.00,,,0.00,VWS V14.01,2013-03-05 02:46:00,
2013-03-04 18:47:00,57.0,50.9,30.00,WSW,248,2.0,4.0,80,0.00,,,0.00,VWS V14.01,2013-03-05 02:47:00,
2013-03-04 18:48:00,56.9,50.8,30.00,SW,225,3.0,4.0,80,0.00,,,0.00,VWS V14.01,2013-03-05 02:48:00,
2013-03-04 18:49:00,56.9,50.8,30.00,SW,225,2.0,3.0,80,0.00,,,0.00,VWS V14.01,2013-03-05 02:49:00,
2013-03-04 18:50:00,56.8,50.7,30.00,SSW,202,3.0,4.0,80,0.00,,,0.00,VWS V14.01,2013-03-05 02:50:00,
2013-03-04 18:51:00,56.8,51.0,30.00,SSW,202,2.0,3.0,81,0.00,,,0.00,VWS V14.01,2013-03-05 02:51:00,
2013-03-04 18:52:00,56.7,50.9,30.00,SSW,202,2.0,3.0,81,0.00,,,0.00,VWS V14.01,2013-03-05 02:52:00,
2013-03-04 18:53:00,56.7,50.9,30.00,SSW,202,2.0,3.0,81,0.00,,,0.00,VWS V14.01,2013-03-05 02:53:00,
2013-03-04 18:54:00,56.7,50.9,30.00,SW,225,1.0,2.0,81,0.00,,,0.00,VWS V14.01,2013-03-05 02:54:00,
2013-03-04 18:55:00,56.6,50.8,30.00,SSW,202,0.0,1.0,81,0.00,,,0.00,VWS V14.01,2013-03-05 02:55:00,
2013-03-04 18:56:00,56.6,50.8,30.00,SSE,158,1.0,3.0,81,0.00,,,0.00,VWS V14.01,2013-03-05 02:56:00,
2013-03-04 18:57:00,56.5,50.8,30.00,SSW,202,1.0,2.0,81,0.00,,,0.00,VWS V14.01,2013-03-05 02:57:00,
2013-03-04 18:58:00,56.5,50.8,30.00,SSE,158,1.0,2.0,81,0.00,,,0.00,VWS V14.01,2013-03-05 02:58:00,
2013-03-04 18:59:00,56.5,50.8,30.00,WSW,248,2.0,4.0,81,0.00,,,0.00,VWS V14.01,2013-03-05 02:59:00,
2013-03-04 19:00:00,56.4,50.7,30.00,WSW,248,2.0,3.0,81,0.00,,,0.00,VWS V14.01,2013-03-05 03:00:00,
2013-03-04 19:01:00,56.3,50.5,30.00,SW,225,2.0,2.0,81,0.00,,,0.00,VWS V14.01,2013-03-05 03:01:00,
2013-03-04 19:02:00,56.2,50.5,30.00,SW,225,2.0,3.0,81,0.00,,,0.00,VWS V14.01,2013-03-05 03:02:00,
2013-03-04 19:03:00,56.1,50.4,30.00,SW,225,2.0,3.0,81,0.00,,,0.00,VWS V14.01,2013-03-05 03:03:00,
2013-03-04 19:04:00,56.1,50.4,30.00,WSW,248,2.0,4.0,81,0.00,,,0.00,VWS V14.01,2013-03-05 03:04:00,
2013-03-04 19:05:00,56.0,50.3,30.00,SW,225,3.0,3.0,81,0.00,,,0.00,VWS V14.01,2013-03-05 03:05:00,
2013-03-04 19:06:00,55.9,50.2,30.00,SW,225,2.0,3.0,81,0.00,,,0.00,VWS V14.01,2013-03-05 03:06:00,
2013-03-04 19:07:00,55.8,50.4,30.00,SW,225,2.0,4.0,82,0.00,,,0.00,VWS V14.01,2013-03-05 03:07:00,
2013-03-04 19:08:00,55.8,50.4,30.00,SW,225,2.0,4.0,82,0.00,,,0.00,VWS V14.01,2013-03-05 03:08:00,
2013-03-04 19:09:00,55.7,50.3,30.00,WSW,248,2.0,3.0,82,0.00,,,0.00,VWS V14.01,2013-03-05 03:09:00,
2013-03-04 19:10:00,55.7,50.3,30.00,SW,225,2.0,3.0,82,0.00,,,0.00,VWS V14.01,2013-03-05 03:10:00,
2013-03-04 19:11:00,55.6,50.2,30.00,SW,225,2.0,3.0,82,0.00,,,0.00,VWS V14.01,2013-03-05 03:11:00,
2013-03-04 19:12:00,55.5,50.1,30.00,SW,225,2.0,3.0,82,0.00,,,0.00,VWS V14.01,2013-03-05 03:12:00,
2013-03-04 19:13:00,55.5,50.4,30.00,SW,225,2.0,3.0,83,0.00,,,0.00,VWS V14.01,2013-03-05 03:13:00,
2013-03-04 19:14:00,55.5,50.4,30.00,SSW,202,2.0,3.0,83,0.00,,,0.00,VWS V14.01,2013-03-05 03:14:00,
2013-03-04 19:15:00,55.4,50.3,30.00,WSW,248,3.0,4.0,83,0.00,,,0.00,VWS V14.01,2013-03-05 03:15:00,
2013-03-04 19:16:00,55.4,50.3,30.00,WSW,248,2.0,3.0,83,0.00,,,0.00,VWS V14.01,2013-03-05 03:16:00,
2013-03-04 19:17:00,55.4,50.3,30.00,SW,225,1.0,2.0,83,0.00,,,0.00,VWS V14.01,2013-03-05 03:17:00,
2013-03-04 19:18:00,55.3,50.2,30.01,SSW,202,2.0,3.0,83,0.00,,,0.00,VWS V14.01,2013-03-05 03:18:00,
2013-03-04 19:19:00,55.3,50.6,30.01,South,180,3.0,4.0,84,0.00,,,0.00,VWS V14.01,2013-03-05 03:19:00,
2013-03-04 19:20:00,55.3,50.6,30.01,South,180,2.0,3.0,84,0.00,,,0.00,VWS V14.01,2013-03-05 03:20:00,
2013-03-04 19:21:00,55.3,50.6,30.01,SW,225,2.0,3.0,84,0.00,,,0.00,VWS V14.01,2013-03-05 03:21:00,
2013-03-04 19:22:00,55.3,50.6,30.01,SSE,158,2.0,3.0,84,0.00,,,0.00,VWS V14.01,2013-03-05 03:22:00,
2013-03-04 19:23:00,55.2,50.5,30.01,SW,225,1.0,2.0,84,0.00,,,0.00,VWS V14.01,2013-03-05 03:23:00,
2013-03-04 19:24:00,55.2,50.5,30.01,South,180,1.0,2.0,84,0.00,,,0.00,VWS V14.01,2013-03-05 03:24:00,
2013-03-04 19:25:00,55.2,50.5,30.01,SSE,158,2.0,4.0,84,0.00,,,0.00,VWS V14.01,2013-03-05 03:25:00,
2013-03-04 19:26:00,55.1,50.7,30.01,South,180,2.0,3.0,85,0.00,,,0.00,VWS V14.01,2013-03-05 03:26:00,
2013-03-04 19:27:00,55.1,50.7,30.01,SSE,158,1.0,2.0,85,0.00,,,0.00,VWS V14.01,2013-03-05 03:27:00,
2013-03-04 19:28:00,55.1,50.7,30.01,SSE,158,1.0,2.0,85,0.00,,,0.00,VWS V14.01,2013-03-05 03:28:00,
2013-03-04 19:29:00,55.1,50.7,30.01,SW,225,1.0,2.0,85,0.00,,,0.00,VWS V14.01,2013-03-05 03:29:00,
2013-03-04 19:30:00,55.0,50.6,30.01,SE,135,2.0,5.0,85,0.00,,,0.00,VWS V14.01,2013-03-05 03:30:00,
2013-03-04 19:31:00,55.0,50.6,30.01,South,180,1.0,2.0,85,0.00,,,0.00,VWS V14.01,2013-03-05 03:31:00,
2013-03-04 19:32:00,55.0,50.9,30.01,SW,225,2.0,2.0,86,0.00,,,0.00,VWS V14.01,2013-03-05 03:32:00,
2013-03-04 19:33:00,55.0,50.9,30.01,SW,225,2.0,3.0,86,0.00,,,0.00,VWS V14.01,2013-03-05 03:33:00,
2013-03-04 19:34:00,54.9,50.8,30.01,SSE,158,1.0,2.0,86,0.00,,,0.00,VWS V14.01,2013-03-05 03:34:00,
2013-03-04 19:35:00,54.9,50.8,30.01,SW,225,3.0,4.0,86,0.00,,,0.00,VWS V14.01,2013-03-05 03:35:00,
2013-03-04 19:36:00,54.9,50.8,30.01,SSW,202,3.0,4.0,86,0.00,,,0.00,VWS V14.01,2013-03-05 03:36:00,
2013-03-04 19:37:00,54.9,50.8,30.01,SSW,202,3.0,4.0,86,0.00,,,0.00,VWS V14.01,2013-03-05 03:37:00,
2013-03-04 19:38:00,54.8,50.7,30.01,ESE,112,2.0,4.0,86,0.00,,,0.00,VWS V14.01,2013-03-05 03:38:00,
2013-03-04 19:39:00,54.8,50.7,30.01,SSE,158,2.0,4.0,86,0.00,,,0.00,VWS V14.01,2013-03-05 03:39:00,
2013-03-04 19:40:00,54.8,51.0,30.01,SSE,158,2.0,4.0,87,0.00,,,0.00,VWS V14.01,2013-03-05 03:40:00,
2013-03-04 19:41:00,54.7,50.9,30.01,ESE,112,2.0,3.0,87,0.00,,,0.00,VWS V14.01,2013-03-05 03:41:00,
2013-03-04 19:42:00,54.7,50.9,30.01,SSE,158,1.0,2.0,87,0.00,,,0.00,VWS V14.01,2013-03-05 03:42:00,
2013-03-04 19:43:00,54.7,50.9,30.01,SE,135,1.0,2.0,87,0.00,,,0.00,VWS V14.01,2013-03-05 03:43:00,
2013-03-04 19:44:00,54.7,50.9,30.01,SE,135,2.0,2.0,87,0.00,,,0.00,VWS V14.01,2013-03-05 03:44:00,
2013-03-04 19:45:00,54.7,50.9,30.01,SE,135,2.0,3.0,87,0.00,,,0.00,VWS V14.01,2013-03-05 03:45:00,
2013-03-04 19:46:00,54.7,50.9,30.01,SE,135,1.0,2.0,87,0.00,,,0.00,VWS V14.01,2013-03-05 03:46:00,
2013-03-04 19:47:00,54.7,50.9,30.01,SSE,158,1.0,2.0,87,0.00,,,0.00,VWS V14.01,2013-03-05 03:47:00,
2013-03-04 19:48:00,54.7,50.9,30.01,SSE,158,1.0,2.0,87,0.00,,,0.00,VWS V14.01,2013-03-05 03:48:00,
2013-03-04 19:49:00,54.6,50.8,30.01,ESE,112,1.0,2.0,87,0.00,,,0.00,VWS V14.01,2013-03-05 03:49:00,
2013-03-04 19:50:00,54.6,50.8,30.01,SE,135,1.0,2.0,87,0.00,,,0.00,VWS V14.01,2013-03-05 03:50:00,
2013-03-04 19:51:00,54.6,50.8,30.01,SE,135,0.0,2.0,87,0.00,,,0.00,VWS V14.01,2013-03-05 03:51:00,
2013-03-04 19:52:00,54.6,50.8,30.01,SSE,158,1.0,2.0,87,0.00,,,0.00,VWS V14.01,2013-03-05 03:52:00,
2013-03-04 19:53:00,54.6,50.8,30.01,SE,135,2.0,3.0,87,0.00,,,0.00,VWS V14.01,2013-03-05 03:53:00,
2013-03-04 19:54:00,54.5,50.7,30.01,ESE,112,1.0,2.0,87,0.00,,,0.00,VWS V14.01,2013-03-05 03:54:00,
2013-03-04 19:55:00,54.5,50.7,30.02,South,180,1.0,1.0,87,0.00,,,0.00,VWS V14.01,2013-03-05 03:55:00,
2013-03-04 19:56:00,54.5,50.7,30.02,SSW,202,1.0,1.0,87,0.00,,,0.00,VWS V14.01,2013-03-05 03:56:00,
2013-03-04 19:57:00,54.5,50.7,30.02,SW,225,0.0,1.0,87,0.00,,,0.00,VWS V14.01,2013-03-05 03:57:00,
2013-03-04 19:58:00,54.5,51.0,30.01,WSW,248,1.0,2.0,88,0.00,,,0.00,VWS V14.01,2013-03-05 03:58:00,
2013-03-04 19:59:00,54.5,51.0,30.02,SW,225,0.0,1.0,88,0.00,,,0.00,VWS V14.01,2013-03-05 03:59:00,
2013-03-04 20:00:00,54.5,51.0,30.02,SW,225,0.0,0.0,88,0.00,,,0.00,VWS V14.01,2013-03-05 04:00:00,
2013-03-04 20:01:00,54.4,50.9,30.02,SW,225,0.0,1.0,88,0.00,,,0.00,VWS V14.01,2013-03-05 04:01:00,
2013-03-04 20:02:00,54.4,50.9,30.02,SW,225,0.0,1.0,88,0.00,,,0.00,VWS V14.01,2013-03-05 04:02:00,
2013-03-04 20:03:00,54.4,50.9,30.02,SSW,202,0.0,1.0,88,0.00,,,0.00,VWS V14.01,2013-03-05 04:03:00,
2013-03-04 20:04:00,54.4,50.9,30.02,South,180,1.0,2.0,88,0.00,,,0.00,VWS V14.01,2013-03-05 04:04:00,
2013-03-04 20:05:00,54.4,50.9,30.02,SW,225,1.0,2.0,88,0.00,,,0.00,VWS V14.01,2013-03-05 04:05:00,
2013-03-04 20:06:00,54.4,50.9,30.02,SE,135,1.0,2.0,88,0.00,,,0.00,VWS V14.01,2013-03-05 04:06:00,
2013-03-04 20:07:00,54.4,50.9,30.02,SE,135,2.0,3.0,88,0.00,,,0.00,VWS V14.01,2013-03-05 04:07:00,
2013-03-04 20:08:00,54.4,50.9,30.02,SSW,202,1.0,1.0,88,0.00,,,0.00,VWS V14.01,2013-03-05 04:08:00,
2013-03-04 20:09:00,54.4,50.9,30.02,South,180,1.0,2.0,88,0.00,,,0.00,VWS V14.01,2013-03-05 04:09:00,
2013-03-04 20:10:00,54.4,50.9,30.02,SSW,202,0.0,1.0,88,0.00,,,0.00,VWS V14.01,2013-03-05 04:10:00,
2013-03-04 20:11:00,54.4,50.9,30.02,SE,135,1.0,1.0,88,0.00,,,0.00,VWS V14.01,2013-03-05 04:11:00,
2013-03-04 20:12:00,54.5,51.0,30.02,SE,135,1.0,2.0,88,0.00,,,0.00,VWS V14.01,2013-03-05 04:12:00,
2013-03-04 20:13:00,54.5,51.0,30.02,SSW,202,1.0,1.0,88,0.00,,,0.00,VWS V14.01,2013-03-05 04:13:00,
2013-03-04 20:14:00,54.5,51.0,30.02,SSW,202,0.0,1.0,88,0.00,,,0.00,VWS V14.01,2013-03-05 04:14:00,
2013-03-04 20:15:00,54.5,51.0,30.02,SSW,202,0.0,0.0,88,0.00,,,0.00,VWS V14.01,2013-03-05 04:15:00,
2013-03-04 20:16:00,54.5,51.0,30.02,SSW,202,0.0,0.0,88,0.00,,,0.00,VWS V14.01,2013-03-05 04:16:00,
2013-03-04 20:17:00,54.5,51.0,30.02,SSW,202,0.0,0.0,88,0.00,,,0.00,VWS V14.01,2013-03-05 04:17:00,
2013-03-04 20:18:00,54.5,51.0,30.02,SSW,202,0.0,0.0,88,0.00,,,0.00,VWS V14.01,2013-03-05 04:18:00,
2013-03-04 20:19:00,54.6,51.1,30.02,SSW,202,0.0,0.0,88,0.00,,,0.00,VWS V14.01,2013-03-05 04:19:00,
2013-03-04 20:20:00,54.6,51.1,30.02,SSW,202,0.0,1.0,88,0.00,,,0.00,VWS V14.01,2013-03-05 04:20:00,
2013-03-04 20:21:00,54.6,51.1,30.02,SSW,202,1.0,2.0,88,0.00,,,0.00,VWS V14.01,2013-03-05 04:21:00,
2013-03-04 20:22:00,54.6,51.1,30.02,SSW,202,0.0,1.0,88,0.00,,,0.00,VWS V14.01,2013-03-05 04:22:00,
2013-03-04 20:23:00,54.7,51.2,30.02,SSW,202,2.0,2.0,88,0.00,,,0.00,VWS V14.01,2013-03-05 04:23:00,
2013-03-04 20:24:00,54.7,51.2,30.03,SW,225,0.0,1.0,88,0.00,,,0.00,VWS V14.01,2013-03-05 04:24:00,
2013-03-04 20:25:00,54.7,51.2,30.03,SW,225,0.0,0.0,88,0.00,,,0.00,VWS V14.01,2013-03-05 04:25:00,
2013-03-04 20:26:00,54.7,51.2,30.03,WSW,248,1.0,1.0,88,0.00,,,0.00,VWS V14.01,2013-03-05 04:26:00,
2013-03-04 20:27:00,54.7,51.2,30.03,SW,225,2.0,4.0,88,0.00,,,0.00,VWS V14.01,2013-03-05 04:27:00,
2013-03-04 20:28:00,54.8,51.3,30.03,West,270,3.0,4.0,88,0.00,,,0.00,VWS V14.01,2013-03-05 04:28:00,
2013-03-04 20:29:00,54.8,51.3,30.03,West,270,3.0,4.0,88,0.00,,,0.00,VWS V14.01,2013-03-05 04:29:00,
2013-03-04 20:30:00,54.8,51.3,30.03,WSW,248,2.0,3.0,88,0.00,,,0.00,VWS V14.01,2013-03-05 04:30:00,
2013-03-04 20:31:00,54.9,51.4,30.03,SW,225,2.0,4.0,88,0.00,,,0.00,VWS V14.01,2013-03-05 04:31:00,
2013-03-04 20:32:00,54.9,51.4,30.03,WSW,248,2.0,3.0,88,0.00,,,0.00,VWS V14.01,2013-03-05 04:32:00,
2013-03-04 20:33:00,54.9,51.4,30.03,WSW,248,2.0,3.0,88,0.00,,,0.00,VWS V14.01,2013-03-05 04:33:00,
2013-03-04 20:34:00,54.9,51.4,30.03,WSW,248,3.0,5.0,88,0.00,,,0.00,VWS V14.01,2013-03-05 04:34:00,
2013-03-04 20:35:00,55.0,51.5,30.03,WSW,248,3.0,4.0,88,0.00,,,0.00,VWS V14.01,2013-03-05 04:35:00,
2013-03-04 20:36:00,54.9,51.4,30.03,WSW,248,2.0,3.0,88,0.00,,,0.00,VWS V14.01,2013-03-05 04:36:00,
2013-03-04 20:37:00,55.0,51.5,30.03,SW,225,2.0,3.0,88,0.00,,,0.00,VWS V14.01,2013-03-05 04:37:00,
2013-03-04 20:38:00,55.0,51.5,30.03,SW,225,2.0,3.0,88,0.00,,,0.00,VWS V14.01,2013-03-05 04:38:00,
2013-03-04 20:39:00,55.0,51.5,30.03,WSW,248,3.0,4.0,88,0.00,,,0.00,VWS V14.01,2013-03-05 04:39:00,
2013-03-04 20:40:00,55.0,51.5,30.03,West,270,2.0,3.0,88,0.00,,,0.00,VWS V14.01,2013-03-05 04:40:00,
2013-03-04 20:41:00,55.0,51.5,30.03,SW,225,3.0,4.0,88,0.00,,,0.00,VWS V14.01,2013-03-05 04:41:00,
2013-03-04 20:42:00,54.9,51.4,30.03,SW,225,2.0,2.0,88,0.00,,,0.00,VWS V14.01,2013-03-05 04:42:00,
2013-03-04 20:43:00,55.0,51.5,30.03,SSW,202,1.0,2.0,88,0.00,,,0.00,VWS V14.01,2013-03-05 04:43:00,
2013-03-04 20:44:00,55.0,51.5,30.03,SW,225,2.0,3.0,88,0.00,,,0.00,VWS V14.01,2013-03-05 04:44:00,
2013-03-04 20:45:00,55.0,51.5,30.03,SW,225,2.0,4.0,88,0.00,,,0.00,VWS V14.01,2013-03-05 04:45:00,
2013-03-04 20:46:00,55.0,51.5,30.03,SW,225,2.0,2.0,88,0.00,,,0.00,VWS V14.01,2013-03-05 04:46:00,
2013-03-04 20:47:00,55.0,51.5,30.03,SSW,202,2.0,4.0,88,0.00,,,0.00,VWS V14.01,2013-03-05 04:47:00,
2013-03-04 20:48:00,55.0,51.5,30.03,SW,225,1.0,2.0,88,0.00,,,0.00,VWS V14.01,2013-03-05 04:48:00,
2013-03-04 20:49:00,55.0,51.5,30.04,WSW,248,4.0,5.0,88,0.00,,,0.00,VWS V14.01,2013-03-05 04:49:00,
2013-03-04 20:50:00,55.0,51.5,30.04,SW,225,2.0,3.0,88,0.00,,,0.00,VWS V14.01,2013-03-05 04:50:00,
2013-03-04 20:51:00,55.0,51.5,30.04,WSW,248,2.0,3.0,88,0.00,,,0.00,VWS V14.01,2013-03-05 04:51:00,
2013-03-04 20:52:00,55.0,51.5,30.04,SW,225,2.0,3.0,88,0.00,,,0.00,VWS V14.01,2013-03-05 04:52:00,
2013-03-04 20:53:00,55.0,51.5,30.03,SW,225,0.0,1.0,88,0.00,,,0.00,VWS V14.01,2013-03-05 04:53:00,
2013-03-04 20:54:00,54.9,51.4,30.03,SSW,202,1.0,2.0,88,0.00,,,0.00,VWS V14.01,2013-03-05 04:54:00,
2013-03-04 20:55:00,55.0,51.5,30.03,SSW,202,1.0,2.0,88,0.00,,,0.00,VWS V14.01,2013-03-05 04:55:00,
2013-03-04 20:56:00,54.9,51.4,30.03,SSW,202,1.0,2.0,88,0.00,,,0.00,VWS V14.01,2013-03-05 04:56:00,
2013-03-04 20:57:00,54.9,51.4,30.03,SSW,202,2.0,2.0,88,0.00,,,0.00,VWS V14.01,2013-03-05 04:57:00,
2013-03-04 20:58:00,54.9,51.4,30.03,WSW,248,1.0,2.0,88,0.00,,,0.00,VWS V14.01,2013-03-05 04:58:00,
2013-03-04 20:59:00,54.9,51.4,30.04,WSW,248,0.0,1.0,88,0.00,,,0.00,VWS V14.01,2013-03-05 04:59:00,
2013-03-04 21:00:00,54.9,51.4,30.04,WSW,248,0.0,1.0,88,0.00,,,0.00,VWS V14.01,2013-03-05 05:00:00,
2013-03-04 21:01:00,55.0,51.5,30.03,WSW,248,0.0,1.0,88,0.00,,,0.00,VWS V14.01,2013-03-05 05:01:00,
2013-03-04 21:02:00,55.0,51.5,30.04,WSW,248,0.0,0.0,88,0.00,,,0.00,VWS V14.01,2013-03-05 05:02:00,
2013-03-04 21:03:00,55.0,51.5,30.04,WSW,248,0.0,0.0,88,0.00,,,0.00,VWS V14.01,2013-03-05 05:03:00,
2013-03-04 21:04:00,55.0,51.5,30.04,WSW,248,0.0,1.0,88,0.00,,,0.00,VWS V14.01,2013-03-05 05:04:00,
2013-03-04 21:05:00,55.0,51.5,30.04,WSW,248,0.0,0.0,88,0.00,,,0.00,VWS V14.01,2013-03-05 05:05:00,
2013-03-04 21:06:00,54.9,51.4,30.04,WSW,248,0.0,1.0,88,0.00,,,0.00,VWS V14.01,2013-03-05 05:06:00,
2013-03-04 21:07:00,55.0,51.5,30.03,North,0,1.0,2.0,88,0.00,,,0.00,VWS V14.01,2013-03-05 05:07:00,
2013-03-04 21:08:00,55.0,51.5,30.03,NNE,22,1.0,1.0,88,0.00,,,0.00,VWS V14.01,2013-03-05 05:08:00,
2013-03-04 21:09:00,55.0,51.5,30.03,NNE,22,1.0,2.0,88,0.00,,,0.00,VWS V14.01,2013-03-05 05:09:00,
2013-03-04 21:10:00,55.0,51.5,30.03,NNE,22,1.0,1.0,88,0.00,,,0.00,VWS V14.01,2013-03-05 05:10:00,
2013-03-04 21:11:00,55.1,51.6,30.03,East,90,1.0,2.0,88,0.00,,,0.00,VWS V14.01,2013-03-05 05:11:00,
2013-03-04 21:12:00,55.1,51.6,30.03,East,90,2.0,3.0,88,0.00,,,0.00,VWS V14.01,2013-03-05 05:12:00,
2013-03-04 21:13:00,55.1,51.6,30.03,East,90,2.0,2.0,88,0.00,,,0.00,VWS V14.01,2013-03-05 05:13:00,
2013-03-04 21:14:00,55.1,51.6,30.03,East,90,1.0,2.0,88,0.00,,,0.00,VWS V14.01,2013-03-05 05:14:00,
2013-03-04 21:15:00,55.1,51.6,30.03,ENE,68,1.0,2.0,88,0.00,,,0.00,VWS V14.01,2013-03-05 05:15:00,
2013-03-04 21:16:00,55.1,51.6,30.03,East,90,1.0,2.0,88,0.00,,,0.00,VWS V14.01,2013-03-05 05:16:00,
2013-03-04 21:17:00,55.2,51.7,30.03,ESE,112,1.0,2.0,88,0.00,,,0.00,VWS V14.01,2013-03-05 05:17:00,
2013-03-04 21:18:00,55.2,51.7,30.03,NE,45,1.0,2.0,88,0.00,,,0.00,VWS V14.01,2013-03-05 05:18:00,
2013-03-04 21:19:00,55.2,51.7,30.03,NE,45,2.0,3.0,88,0.00,,,0.00,VWS V14.01,2013-03-05 05:19:00,
2013-03-04 21:20:00,55.2,51.7,30.03,East,90,3.0,5.0,88,0.00,,,0.00,VWS V14.01,2013-03-05 05:20:00,
2013-03-04 21:21:00,55.2,51.4,30.03,East,90,2.0,3.0,87,0.00,,,0.00,VWS V14.01,2013-03-05 05:21:00,
2013-03-04 21:22:00,55.2,51.4,30.03,ENE,68,2.0,3.0,87,0.00,,,0.00,VWS V14.01,2013-03-05 05:22:00,
2013-03-04 21:23:00,55.2,51.4,30.03,ENE,68,2.0,3.0,87,0.00,,,0.00,VWS V14.01,2013-03-05 05:23:00,
2013-03-04 21:24:00,55.3,51.5,30.03,North,0,1.0,2.0,87,0.00,,,0.00,VWS V14.01,2013-03-05 05:24:00,
2013-03-04 21:25:00,55.3,51.5,30.03,ENE,68,1.0,2.0,87,0.00,,,0.00,VWS V14.01,2013-03-05 05:25:00,
2013-03-04 21:26:00,55.3,51.5,30.03,ESE,112,2.0,4.0,87,0.00,,,0.00,VWS V14.01,2013-03-05 05:26:00,
2013-03-04 21:27:00,55.4,51.6,30.03,East,90,2.0,3.0,87,0.00,,,0.00,VWS V14.01,2013-03-05 05:27:00,
2013-03-04 21:28:00,55.3,51.5,30.03,East,90,3.0,4.0,87,0.00,,,0.00,VWS V14.01,2013-03-05 05:28:00,
2013-03-04 21:29:00,55.4,51.6,30.03,East,90,2.0,3.0,87,0.00,,,0.00,VWS V14.01,2013-03-05 05:29:00,
2013-03-04 21:30:00,55.4,51.6,30.03,East,90,3.0,3.0,87,0.00,,,0.00,VWS V14.01,2013-03-05 05:30:00,
2013-03-04 21:31:00,55.4,51.6,30.03,ENE,68,2.0,4.0,87,0.00,,,0.00,VWS V14.01,2013-03-05 05:31:00,
2013-03-04 21:32:00,55.4,51.6,30.03,East,90,2.0,4.0,87,0.00,,,0.00,VWS V14.01,2013-03-05 05:32:00,
2013-03-04 21:33:00,55.4,51.6,30.03,East,90,2.0,3.0,87,0.00,,,0.00,VWS V14.01,2013-03-05 05:33:00,
2013-03-04 21:34:00,55.4,51.6,30.03,ESE,112,1.0,2.0,87,0.00,,,0.00,VWS V14.01,2013-03-05 05:34:00,
2013-03-04 21:35:00,55.4,51.6,30.03,ESE,112,3.0,5.0,87,0.00,,,0.00,VWS V14.01,2013-03-05 05:35:00,
2013-03-04 21:36:00,55.4,51.6,30.03,East,90,3.0,4.0,87,0.00,,,0.00,VWS V14.01,2013-03-05 05:36:00,
2013-03-04 21:37:00,55.4,51.6,30.03,East,90,2.0,3.0,87,0.00,,,0.00,VWS V14.01,2013-03-05 05:37:00,
2013-03-04 21:38:00,55.4,51.6,30.02,ESE,112,1.0,2.0,87,0.00,,,0.00,VWS V14.01,2013-03-05 05:38:00,
2013-03-04 21:39:00,55.4,51.6,30.02,East,90,2.0,3.0,87,0.00,,,0.00,VWS V14.01,2013-03-05 05:39:00,
2013-03-04 21:40:00,55.5,51.7,30.02,ENE,68,2.0,3.0,87,0.00,,,0.00,VWS V14.01,2013-03-05 05:40:00,
2013-03-04 21:41:00,55.4,51.3,30.02,NE,45,3.0,6.0,86,0.00,,,0.00,VWS V14.01,2013-03-05 05:41:00,
2013-03-04 21:42:00,55.4,51.3,30.02,ENE,68,3.0,6.0,86,0.00,,,0.00,VWS V14.01,2013-03-05 05:42:00,
2013-03-04 21:43:00,55.4,51.3,30.02,NE,45,2.0,4.0,86,0.00,,,0.00,VWS V14.01,2013-03-05 05:43:00,
2013-03-04 21:44:00,55.4,51.3,30.02,East,90,2.0,3.0,86,0.00,,,0.00,VWS V14.01,2013-03-05 05:44:00,
2013-03-04 21:45:00,55.4,51.3,30.02,ENE,68,2.0,4.0,86,0.00,,,0.00,VWS V14.01,2013-03-05 05:45:00,
2013-03-04 21:46:00,55.4,51.3,30.02,East,90,4.0,5.0,86,0.00,,,0.00,VWS V14.01,2013-03-05 05:46:00,
2013-03-04 21:47:00,55.3,51.2,30.02,East,90,3.0,4.0,86,0.00,,,0.00,VWS V14.01,2013-03-05 05:47:00,
2013-03-04 21:48:00,55.3,51.2,30.02,ESE,112,3.0,4.0,86,0.00,,,0.00,VWS V14.01,2013-03-05 05:48:00,
2013-03-04 21:49:00,55.3,51.2,30.02,ESE,112,3.0,4.0,86,0.00,,,0.00,VWS V14.01,2013-03-05 05:49:00,
2013-03-04 21:50:00,55.3,51.2,30.02,ESE,112,2.0,4.0,86,0.00,,,0.00,VWS V14.01,2013-03-05 05:50:00,
2013-03-04 21:51:00,55.2,51.1,30.02,East,90,4.0,6.0,86,0.00,,,0.00,VWS V14.01,2013-03-05 05:51:00,
2013-03-04 21:52:00,55.1,51.0,30.02,East,90,3.0,3.0,86,0.00,,,0.00,VWS V14.01,2013-03-05 05:52:00,
2013-03-04 21:53:00,55.1,51.0,30.02,East,90,2.0,3.0,86,0.00,,,0.00,VWS V14.01,2013-03-05 05:53:00,
2013-03-04 21:54:00,55.1,51.0,30.02,East,90,1.0,1.0,86,0.00,,,0.00,VWS V14.01,2013-03-05 05:54:00,
2013-03-04 21:55:00,55.1,51.0,30.03,East,90,1.0,1.0,86,0.00,,,0.00,VWS V14.01,2013-03-05 05:55:00,
2013-03-04 21:56:00,55.1,51.3,30.03,ENE,68,1.0,3.0,87,0.00,,,0.00,VWS V14.01,2013-03-05 05:56:00,
2013-03-04 21:57:00,55.1,51.0,30.03,ENE,68,2.0,3.0,86,0.00,,,0.00,VWS V14.01,2013-03-05 05:57:00,
2013-03-04 21:58:00,55.0,50.9,30.03,ENE,68,0.0,0.0,86,0.00,,,0.00,VWS V14.01,2013-03-05 05:58:00,
2013-03-04 21:59:00,55.0,50.9,30.02,ENE,68,0.0,1.0,86,0.00,,,0.00,VWS V14.01,2013-03-05 05:59:00,
2013-03-04 22:00:00,55.0,50.9,30.02,East,90,1.0,2.0,86,0.00,,,0.00,VWS V14.01,2013-03-05 06:00:00,
2013-03-04 22:01:00,54.9,50.8,30.02,East,90,1.0,1.0,86,0.00,,,0.00,VWS V14.01,2013-03-05 06:01:00,
2013-03-04 22:02:00,54.9,51.1,30.02,East,90,1.0,1.0,87,0.00,,,0.00,VWS V14.01,2013-03-05 06:02:00,
2013-03-04 22:03:00,54.9,51.1,30.02,East,90,2.0,3.0,87,0.00,,,0.00,VWS V14.01,2013-03-05 06:03:00,
2013-03-04 22:04:00,54.9,51.1,30.03,ENE,68,2.0,3.0,87,0.00,,,0.00,VWS V14.01,2013-03-05 06:04:00,
2013-03-04 22:05:00,54.9,51.1,30.02,ESE,112,2.0,2.0,87,0.00,,,0.00,VWS V14.01,2013-03-05 06:05:00,
2013-03-04 22:06:00,54.9,51.1,30.02,SE,135,1.0,1.0,87,0.00,,,0.00,VWS V14.01,2013-03-05 06:06:00,
2013-03-04 22:07:00,54.8,51.0,30.02,SE,135,1.0,2.0,87,0.00,,,0.00,VWS V14.01,2013-03-05 06:07:00,
2013-03-04 22:08:00,54.8,51.0,30.02,SE,135,1.0,1.0,87,0.00,,,0.00,VWS V14.01,2013-03-05 06:08:00,
2013-03-04 22:09:00,54.8,51.0,30.02,SE,135,0.0,1.0,87,0.00,,,0.00,VWS V14.01,2013-03-05 06:09:00,
2013-03-04 22:10:00,54.7,50.9,30.02,SSE,158,1.0,1.0,87,0.00,,,0.00,VWS V14.01,2013-03-05 06:10:00,
2013-03-04 22:11:00,54.8,51.0,30.02,SSE,158,0.0,1.0,87,0.00,,,0.00,VWS V14.01,2013-03-05 06:11:00,
2013-03-04 22:12:00,54.7,50.9,30.02,SSE,158,0.0,1.0,87,0.00,,,0.00,VWS V14.01,2013-03-05 06:12:00,
2013-03-04 22:13:00,54.7,50.9,30.02,SSE,158,0.0,0.0,87,0.00,,,0.00,VWS V14.01,2013-03-05 06:13:00,
2013-03-04 22:14:00,54.7,50.9,30.02,SSE,158,0.0,0.0,87,0.00,,,0.00,VWS V14.01,2013-03-05 06:14:00,
2013-03-04 22:15:00,54.8,51.0,30.02,SSE,158,0.0,0.0,87,0.00,,,0.00,VWS V14.01,2013-03-05 06:15:00,
2013-03-04 22:16:00,54.8,51.0,30.02,SSE,158,0.0,1.0,87,0.00,,,0.00,VWS V14.01,2013-03-05 06:16:00,
2013-03-04 22:17:00,54.8,51.0,30.02,SSE,158,0.0,1.0,87,0.00,,,0.00,VWS V14.01,2013-03-05 06:17:00,
2013-03-04 22:18:00,54.8,51.0,30.02,SSE,158,0.0,1.0,87,0.00,,,0.00,VWS V14.01,2013-03-05 06:18:00,
2013-03-04 22:19:00,54.8,51.0,30.02,SSE,158,1.0,1.0,87,0.00,,,0.00,VWS V14.01,2013-03-05 06:19:00,
2013-03-04 22:20:00,54.8,51.0,30.02,South,180,1.0,2.0,87,0.00,,,0.00,VWS V14.01,2013-03-05 06:20:00,
2013-03-04 22:21:00,54.8,51.0,30.02,SSW,202,1.0,2.0,87,0.00,,,0.00,VWS V14.01,2013-03-05 06:21:00,
2013-03-04 22:22:00,54.8,51.0,30.02,SSW,202,0.0,1.0,87,0.00,,,0.00,VWS V14.01,2013-03-05 06:22:00,
2013-03-04 22:23:00,54.8,51.0,30.02,SSE,158,1.0,1.0,87,0.00,,,0.00,VWS V14.01,2013-03-05 06:23:00,
2013-03-04 22:24:00,54.8,51.0,30.02,South,180,1.0,1.0,87,0.00,,,0.00,VWS V14.01,2013-03-05 06:24:00,
2013-03-04 22:25:00,54.8,51.0,30.02,South,180,0.0,1.0,87,0.00,,,0.00,VWS V14.01,2013-03-05 06:25:00,
2013-03-04 22:26:00,54.7,50.9,30.02,South,180,0.0,0.0,87,0.00,,,0.00,VWS V14.01,2013-03-05 06:26:00,
2013-03-04 22:27:00,54.7,50.9,30.02,SW,225,1.0,1.0,87,0.00,,,0.00,VWS V14.01,2013-03-05 06:27:00,
2013-03-04 22:28:00,54.7,50.9,30.02,SW,225,0.0,1.0,87,0.00,,,0.00,VWS V14.01,2013-03-05 06:28:00,
2013-03-04 22:29:00,54.7,50.9,30.02,SW,225,0.0,1.0,87,0.00,,,0.00,VWS V14.01,2013-03-05 06:29:00,
2013-03-04 22:30:00,54.7,50.9,30.02,SW,225,0.0,1.0,87,0.00,,,0.00,VWS V14.01,2013-03-05 06:30:00,
2013-03-04 22:31:00,54.7,50.9,30.02,SW,225,0.0,0.0,87,0.00,,,0.00,VWS V14.01,2013-03-05 06:31:00,
2013-03-04 22:32:00,54.7,50.9,30.02,ESE,112,1.0,2.0,87,0.00,,,0.00,VWS V14.01,2013-03-05 06:32:00,
2013-03-04 22:33:00,54.7,50.9,30.03,SE,135,1.0,1.0,87,0.00,,,0.00,VWS V14.01,2013-03-05 06:33:00,
2013-03-04 22:34:00,54.7,50.9,30.03,ENE,68,2.0,3.0,87,0.00,,,0.00,VWS V14.01,2013-03-05 06:34:00,
2013-03-04 22:35:00,54.7,50.9,30.03,ENE,68,2.0,3.0,87,0.00,,,0.00,VWS V14.01,2013-03-05 06:35:00,
2013-03-04 22:36:00,54.7,50.9,30.03,NE,45,1.0,2.0,87,0.00,,,0.00,VWS V14.01,2013-03-05 06:36:00,
2013-03-04 22:37:00,54.6,50.8,30.02,NNE,22,2.0,3.0,87,0.00,,,0.00,VWS V14.01,2013-03-05 06:37:00,
2013-03-04 22:38:00,54.6,50.8,30.02,NNE,22,3.0,4.0,87,0.00,,,0.00,VWS V14.01,2013-03-05 06:38:00,
2013-03-04 22:39:00,54.6,50.8,30.02,NNE,22,1.0,2.0,87,0.00,,,0.00,VWS V14.01,2013-03-05 06:39:00,
2013-03-04 22:40:00,54.5,50.7,30.02,NNE,22,0.0,1.0,87,0.00,,,0.00,VWS V14.01,2013-03-05 06:40:00,
2013-03-04 22:41:00,54.5,50.7,30.02,NNW,338,0.0,1.0,87,0.00,,,0.00,VWS V14.01,2013-03-05 06:41:00,
2013-03-04 22:42:00,54.4,50.6,30.02,NNW,338,1.0,2.0,87,0.00,,,0.00,VWS V14.01,2013-03-05 06:42:00,
2013-03-04 22:43:00,54.4,50.6,30.02,North,0,1.0,2.0,87,0.00,,,0.00,VWS V14.01,2013-03-05 06:43:00,
2013-03-04 22:44:00,54.4,50.6,30.02,North,0,1.0,1.0,87,0.00,,,0.00,VWS V14.01,2013-03-05 06:44:00,
2013-03-04 22:45:00,54.3,50.5,30.02,North,0,0.0,0.0,87,0.00,,,0.00,VWS V14.01,2013-03-05 06:45:00,
2013-03-04 22:46:00,54.3,50.5,30.02,North,0,0.0,0.0,87,0.00,,,0.00,VWS V14.01,2013-03-05 06:46:00,
2013-03-04 22:47:00,54.3,50.5,30.02,North,0,0.0,1.0,87,0.00,,,0.00,VWS V14.01,2013-03-05 06:47:00,
2013-03-04 22:48:00,54.3,50.8,30.02,ESE,112,1.0,1.0,88,0.00,,,0.00,VWS V14.01,2013-03-05 06:48:00,
2013-03-04 22:49:00,54.3,50.8,30.03,ESE,112,0.0,1.0,88,0.00,,,0.00,VWS V14.01,2013-03-05 06:49:00,
2013-03-04 22:50:00,54.3,50.8,30.03,ESE,112,1.0,1.0,88,0.00,,,0.00,VWS V14.01,2013-03-05 06:50:00,
2013-03-04 22:51:00,54.2,50.7,30.03,SW,225,1.0,1.0,88,0.00,,,0.00,VWS V14.01,2013-03-05 06:51:00,
2013-03-04 22:52:00,54.2,50.7,30.03,SSW,202,1.0,2.0,88,0.00,,,0.00,VWS V14.01,2013-03-05 06:52:00,
2013-03-04 22:53:00,54.2,50.7,30.03,SSW,202,1.0,2.0,88,0.00,,,0.00,VWS V14.01,2013-03-05 06:53:00,
2013-03-04 22:54:00,54.1,50.6,30.03,SSW,202,1.0,2.0,88,0.00,,,0.00,VWS V14.01,2013-03-05 06:54:00,
2013-03-04 22:55:00,54.1,50.6,30.03,SSW,202,1.0,1.0,88,0.00,,,0.00,VWS V14.01,2013-03-05 06:55:00,
2013-03-04 22:56:00,54.1,50.6,30.03,SSW,202,1.0,1.0,88,0.00,,,0.00,VWS V14.01,2013-03-05 06:56:00,
2013-03-04 22:57:00,54.0,50.5,30.03,SW,225,1.0,2.0,88,0.00,,,0.00,VWS V14.01,2013-03-05 06:57:00,
2013-03-04 22:58:00,54.0,50.5,30.03,SW,225,1.0,2.0,88,0.00,,,0.00,VWS V14.01,2013-03-05 06:58:00,
2013-03-04 22:59:00,54.0,50.5,30.03,SW,225,1.0,1.0,88,0.00,,,0.00,VWS V14.01,2013-03-05 06:59:00,
2013-03-04 23:00:00,53.9,50.4,30.03,SW,225,0.0,1.0,88,0.00,,,0.00,VWS V14.01,2013-03-05 07:00:00,
2013-03-04 23:01:00,53.9,50.4,30.03,SW,225,1.0,1.0,88,0.00,,,0.00,VWS V14.01,2013-03-05 07:01:00,
2013-03-04 23:02:00,53.9,50.4,30.03,SSW,202,1.0,1.0,88,0.00,,,0.00,VWS V14.01,2013-03-05 07:02:00,
2013-03-04 23:03:00,53.9,50.4,30.03,SSW,202,1.0,1.0,88,0.00,,,0.00,VWS V14.01,2013-03-05 07:03:00,
2013-03-04 23:04:00,53.8,50.3,30.03,SSW,202,1.0,1.0,88,0.00,,,0.00,VWS V14.01,2013-03-05 07:04:00,
2013-03-04 23:05:00,53.8,50.3,30.03,SSW,202,1.0,1.0,88,0.00,,,0.00,VWS V14.01,2013-03-05 07:05:00,
2013-03-04 23:06:00,53.8,50.3,30.03,SSW,202,1.0,1.0,88,0.00,,,0.00,VWS V14.01,2013-03-05 07:06:00,
2013-03-04 23:07:00,53.7,50.2,30.03,SSW,202,0.0,1.0,88,0.00,,,0.00,VWS V14.01,2013-03-05 07:07:00,
2013-03-04 23:08:00,53.7,50.5,30.03,SSW,202,0.0,1.0,89,0.00,,,0.00,VWS V14.01,2013-03-05 07:08:00,
2013-03-04 23:09:00,53.7,50.5,30.03,SSW,202,1.0,1.0,89,0.00,,,0.00,VWS V14.01,2013-03-05 07:09:00,
2013-03-04 23:10:00,53.7,50.5,30.03,SSW,202,0.0,1.0,89,0.00,,,0.00,VWS V14.01,2013-03-05 07:10:00,
2013-03-04 23:11:00,53.7,50.5,30.03,SSW,202,0.0,0.0,89,0.00,,,0.00,VWS V14.01,2013-03-05 07:11:00,
2013-03-04 23:12:00,53.6,50.4,30.03,SSW,202,0.0,0.0,89,0.00,,,0.00,VWS V14.01,2013-03-05 07:12:00,
2013-03-04 23:13:00,53.6,50.4,30.03,SSW,202,0.0,0.0,89,0.00,,,0.00,VWS V14.01,2013-03-05 07:13:00,
2013-03-04 23:14:00,53.6,50.4,30.03,SSW,202,0.0,0.0,89,0.00,,,0.00,VWS V14.01,2013-03-05 07:14:00,
2013-03-04 23:15:00,53.6,50.4,30.03,SSW,202,0.0,0.0,89,0.00,,,0.00,VWS V14.01,2013-03-05 07:15:00,
2013-03-04 23:16:00,53.5,50.3,30.03,SSW,202,0.0,0.0,89,0.00,,,0.00,VWS V14.01,2013-03-05 07:16:00,
2013-03-04 23:17:00,53.5,50.3,30.02,ESE,112,0.0,1.0,89,0.00,,,0.00,VWS V14.01,2013-03-05 07:17:00,
2013-03-04 23:18:00,53.5,50.3,30.02,ESE,112,1.0,1.0,89,0.00,,,0.00,VWS V14.01,2013-03-05 07:18:00,
2013-03-04 23:19:00,53.4,50.2,30.02,East,90,1.0,1.0,89,0.00,,,0.00,VWS V14.01,2013-03-05 07:19:00,
2013-03-04 23:20:00,53.4,50.2,30.02,East,90,0.0,1.0,89,0.00,,,0.00,VWS V14.01,2013-03-05 07:20:00,
2013-03-04 23:21:00,53.4,50.2,30.02,East,90,0.0,0.0,89,0.00,,,0.00,VWS V14.01,2013-03-05 07:21:00,
2013-03-04 23:22:00,53.3,50.2,30.02,East,90,1.0,1.0,89,0.00,,,0.00,VWS V14.01,2013-03-05 07:22:00,
2013-03-04 23:23:00,53.3,50.2,30.02,East,90,1.0,2.0,89,0.00,,,0.00,VWS V14.01,2013-03-05 07:23:00,
2013-03-04 23:24:00,53.3,50.2,30.02,East,90,1.0,1.0,89,0.00,,,0.00,VWS V14.01,2013-03-05 07:24:00,
2013-03-04 23:25:00,53.3,50.2,30.02,East,90,1.0,2.0,89,0.00,,,0.00,VWS V14.01,2013-03-05 07:25:00,
2013-03-04 23:26:00,53.3,50.2,30.02,East,90,1.0,1.0,89,0.00,,,0.00,VWS V14.01,2013-03-05 07:26:00,
2013-03-04 23:27:00,53.3,50.2,30.02,East,90,1.0,1.0,89,0.00,,,0.00,VWS V14.01,2013-03-05 07:27:00,
2013-03-04 23:28:00,53.2,50.0,30.02,East,90,0.0,1.0,89,0.00,,,0.00,VWS V14.01,2013-03-05 07:28:00,
2013-03-04 23:29:00,53.2,50.0,30.03,East,90,1.0,1.0,89,0.00,,,0.00,VWS V14.01,2013-03-05 07:29:00,
2013-03-04 23:30:00,53.2,50.0,30.03,East,90,1.0,1.0,89,0.00,,,0.00,VWS V14.01,2013-03-05 07:30:00,
2013-03-04 23:31:00,53.2,50.0,30.03,East,90,0.0,1.0,89,0.00,,,0.00,VWS V14.01,2013-03-05 07:31:00,
2013-03-04 23:32:00,53.2,50.0,30.03,East,90,0.0,0.0,89,0.00,,,0.00,VWS V14.01,2013-03-05 07:32:00,
2013-03-04 23:33:00,53.2,50.0,30.03,East,90,0.0,0.0,89,0.00,,,0.00,VWS V14.01,2013-03-05 07:33:00,
2013-03-04 23:34:00,53.2,50.0,30.03,East,90,0.0,0.0,89,0.00,,,0.00,VWS V14.01,2013-03-05 07:34:00,
2013-03-04 23:35:00,53.2,50.0,30.03,East,90,0.0,1.0,89,0.00,,,0.00,VWS V14.01,2013-03-05 07:35:00,
2013-03-04 23:36:00,53.1,50.0,30.03,East,90,0.0,0.0,89,0.00,,,0.00,VWS V14.01,2013-03-05 07:36:00,
2013-03-04 23:37:00,53.1,50.0,30.03,East,90,0.0,1.0,89,0.00,,,0.00,VWS V14.01,2013-03-05 07:37:00,
2013-03-04 23:38:00,53.1,50.0,30.03,East,90,0.0,0.0,89,0.00,,,0.00,VWS V14.01,2013-03-05 07:38:00,
2013-03-04 23:39:00,53.1,50.0,30.03,East,90,0.0,0.0,89,0.00,,,0.00,VWS V14.01,2013-03-05 07:39:00,
2013-03-04 23:40:00,53.1,50.0,30.03,East,90,0.0,0.0,89,0.00,,,0.00,VWS V14.01,2013-03-05 07:40:00,
2013-03-04 23:41:00,53.0,49.8,30.03,East,90,0.0,0.0,89,0.00,,,0.00,VWS V14.01,2013-03-05 07:41:00,
2013-03-04 23:42:00,53.0,49.8,30.03,East,90,0.0,0.0,89,0.00,,,0.00,VWS V14.01,2013-03-05 07:42:00,
2013-03-04 23:43:00,52.9,49.8,30.03,East,90,0.0,0.0,89,0.00,,,0.00,VWS V14.01,2013-03-05 07:43:00,
2013-03-04 23:44:00,52.9,49.8,30.03,East,90,0.0,0.0,89,0.00,,,0.00,VWS V14.01,2013-03-05 07:44:00,
2013-03-04 23:45:00,52.9,49.8,30.03,East,90,0.0,1.0,89,0.00,,,0.00,VWS V14.01,2013-03-05 07:45:00,
2013-03-04 23:46:00,52.8,50.0,30.03,East,90,0.0,1.0,90,0.00,,,0.00,VWS V14.01,2013-03-05 07:46:00,
2013-03-04 23:47:00,52.8,50.0,30.03,East,90,0.0,1.0,90,0.00,,,0.00,VWS V14.01,2013-03-05 07:47:00,
2013-03-04 23:48:00,52.8,50.0,30.03,East,90,0.0,0.0,90,0.00,,,0.00,VWS V14.01,2013-03-05 07:48:00,
2013-03-04 23:49:00,52.8,50.0,30.03,East,90,0.0,1.0,90,0.00,,,0.00,VWS V14.01,2013-03-05 07:49:00,
2013-03-04 23:50:00,52.7,49.8,30.03,East,90,1.0,1.0,90,0.00,,,0.00,VWS V14.01,2013-03-05 07:50:00,
2013-03-04 23:51:00,52.7,49.8,30.03,East,90,1.0,1.0,90,0.00,,,0.00,VWS V14.01,2013-03-05 07:51:00,
2013-03-04 23:52:00,52.7,49.8,30.03,East,90,1.0,1.0,90,0.00,,,0.00,VWS V14.01,2013-03-05 07:52:00,
2013-03-04 23:53:00,52.6,49.8,30.03,East,90,0.0,1.0,90,0.00,,,0.00,VWS V14.01,2013-03-05 07:53:00,
2013-03-04 23:54:00,52.6,49.8,30.03,East,90,1.0,1.0,90,0.00,,,0.00,VWS V14.01,2013-03-05 07:54:00,
2013-03-04 23:55:00,52.6,49.8,30.03,SSW,202,0.0,1.0,90,0.00,,,0.00,VWS V14.01,2013-03-05 07:55:00,
2013-03-04 23:56:00,52.6,49.8,30.03,South,180,1.0,1.0,90,0.00,,,0.00,VWS V14.01,2013-03-05 07:56:00,
2013-03-04 23:57:00,52.5,49.7,30.03,SSW,202,0.0,1.0,90,0.00,,,0.00,VWS V14.01,2013-03-05 07:57:00,
2013-03-04 23:58:00,52.5,49.7,30.03,SSW,202,1.0,1.0,90,0.00,,,0.00,VWS V14.01,2013-03-05 07:58:00,
2013-03-04 23:59:00,52.5,49.7,30.03,SSW,202,0.0,1.0,90,0.00,,,0.00,VWS V14.01,2013-03-05 07:59:00,